[[{"header":{"parameterUnit":"m.s-1","parameterCategory":1,"la1":30.6,"la2":29.2853,"lo1":-89.7004,"lo2":-87.6739,"dy":0.0162,"dx":0.0183,"nx":112,"ny":82,"refTime":"2023-05-29T12:00:00:Z","depth":0,"parameterNumber":2,"parameterNumberName":"U-component_of_WINDS"},"data":[0.0,0.0,0.0,0.0,0.0,0.0,0.0,0.0,0.0,0.0,0.0,0.0,0.0,0.0,0.0,0.0,0.0,0.0,0.0,0.0,0.0,0.0,0.0,0.0,0.0,0.0,0.0,0.0,0.0,0.0,0.0,0.0,0.0,0.0,0.0,0.0,0.0,0.0,0.0,0.0,0.0,0.0,0.0,0.0,0.0,0.0,0.0,0.0,0.0,0.0,0.0,0.0,0.0,0.0,0.0,0.0,0.0,0.0,0.0,0.0,0.0,0.0,0.0,0.0,0.0,0.0,0.0,0.0,0.0,0.0,0.0,0.0,0.0,0.0,0.0,0.0,0.0,0.0,0.0,0.0,0.0,0.0,0.0,0.0,0.0,0.0,0.0,0.0,0.0,0.0,0.0,0.825,0.8399,0.877,0.9442,0.8922,0.9055,1.0265,0.0,0.0,0.0,0.0,0.0,0.0,0.0,0.0,0.0,0.0,0.0,0.0,0.0,0.0,0.0,0.0,0.0,0.0,0.0,0.0,0.0,0.0,0.0,0.0,0.0,0.0,0.0,0.0,0.0,0.0,0.0,0.0,0.0,0.0,0.0,0.0,0.0,0.0,0.0,0.0,0.0,0.0,0.0,0.0,0.0,0.0,0.0,0.0,0.0,0.0,0.0,0.0,0.0,0.0,0.0,0.0,0.0,0.0,0.0,0.0,0.0,0.0,0.0,0.0,0.0,0.0,0.0,0.0,0.0,0.0,0.0,0.0,0.0,0.0,0.0,0.0,0.0,0.0,0.0,0.0,0.0,0.0,0.0,0.0,0.0,0.0,0.0,0.0,0.0,0.0,0.0,0.0,0.0,0.0,0.0,0.0,0.0,0.0,0.0,0.0,0.0,0.0,0.0,0.0,0.877,0.771,0.7633,0.771,0.7863,0.7787,0.8218,0.9585,0.0,0.0,0.0,0.0,0.0,0.0,0.0,0.0,0.0,0.0,0.0,0.0,0.0,0.0,0.0,0.0,0.0,0.0,0.0,0.0,0.0,0.0,0.0,0.0,0.0,0.0,0.0,0.0,0.0,0.0,0.0,0.0,0.0,0.0,0.0,0.0,0.0,0.0,0.0,0.0,0.0,0.0,0.0,0.0,0.0,0.0,0.0,0.0,0.0,0.0,0.0,0.0,0.0,0.0,0.0,0.0,0.0,0.0,0.0,0.0,0.0,0.0,0.0,0.0,0.0,0.0,0.0,0.0,0.0,0.0,0.0,0.0,0.0,0.0,0.0,0.0,0.0,0.0,0.0,0.0,0.0,0.0,0.0,0.0,0.0,0.0,0.0,0.0,0.0,0.0,0.0,0.0,0.0,0.0,0.0,0.0,0.0,0.0,0.0,0.0,0.0,0.0,0.0,0.8183,0.794,0.7411,0.7407,0.7484,0.7484,0.7484,0.8081,0.9416,0.9248,0.0,0.0,0.0,0.0,0.0,0.0,0.0,0.0,0.0,0.0,0.0,0.0,0.0,0.0,0.0,0.0,0.0,0.0,0.0,0.0,0.0,0.0,0.0,0.0,0.0,0.0,0.0,0.0,0.0,0.0,0.0,0.0,0.0,0.0,0.0,0.0,0.0,0.0,0.0,0.0,0.0,0.0,0.0,0.0,0.0,0.0,0.0,0.0,0.0,0.0,0.0,0.0,0.0,0.0,0.0,0.0,0.0,0.0,0.0,0.0,0.0,0.0,0.0,0.0,0.0,0.0,0.0,0.0,0.0,0.0,0.0,0.0,0.0,0.0,0.0,0.0,0.0,0.0,0.0,0.0,0.0,0.0,0.0,0.0,0.0,0.0,0.0,0.0,0.0,0.0,0.0,0.0,0.0,0.0,0.0,0.0,0.0,0.0,0.0,0.0,0.0,0.0,0.7022,0.7103,0.7103,0.7253,0.7403,0.7407,0.7407,0.8023,0.949,0.9209,0.0,0.0,0.0,0.0,0.0,0.0,0.0,0.0,0.0,0.0,0.0,0.0,0.0,0.0,0.0,0.0,0.0,0.0,0.0,0.0,0.0,0.0,0.0,0.0,0.0,0.0,0.0,0.0,0.0,0.0,0.0,0.0,0.0,0.0,0.0,0.0,0.0,0.0,0.0,0.0,0.0,0.0,0.0,0.0,0.0,0.0,0.0,0.0,0.0,0.0,0.0,0.0,0.0,0.0,0.0,0.0,0.0,0.0,0.0,0.0,0.0,0.0,0.0,0.0,0.0,0.0,0.0,0.0,0.0,0.0,0.0,0.0,0.0,0.0,0.0,0.0,0.0,0.0,0.0,0.0,0.0,0.0,0.0,0.0,0.0,0.0,0.0,0.0,0.0,0.0,0.0,0.0,0.0,0.0,0.0,0.0,0.0,0.0,0.0,0.0,0.0,0.0,0.7249,0.6942,0.6942,0.6942,0.7019,0.718,0.7257,0.8008,0.9793,0.9232,0.0,0.0,0.0,0.0,0.0,0.0,0.0,0.0,0.0,0.0,0.0,0.0,0.0,0.0,0.0,0.0,0.0,0.0,0.0,0.0,0.0,0.0,0.0,0.0,0.0,0.0,0.0,0.0,0.0,0.0,0.0,0.0,0.0,0.0,0.0,0.0,0.0,0.0,0.0,0.0,0.0,0.0,0.0,0.0,0.0,0.0,0.0,0.0,0.0,0.0,0.0,0.0,0.0,0.0,0.0,0.0,0.0,0.0,0.0,0.0,0.0,0.0,0.0,0.0,0.0,0.0,0.0,0.0,0.0,0.0,0.0,0.0,0.0,0.0,0.0,0.0,0.0,0.0,0.0,0.0,0.0,0.0,0.0,0.0,0.0,0.0,0.0,0.0,0.0,0.0,0.0,0.0,0.0,0.0,0.0,0.0,0.0,0.0,0.0,0.0,0.0,0.0,0.6791,0.6714,0.0,0.6788,0.6942,0.7022,0.7022,0.7706,0.9442,0.0,0.0,0.0,0.0,0.0,0.0,0.0,0.0,0.0,0.0,0.0,0.0,0.0,0.0,0.0,0.0,0.0,0.0,0.0,0.0,0.0,0.0,0.0,0.0,0.0,0.0,0.0,0.0,0.0,0.0,0.0,0.0,0.0,0.0,0.0,0.0,0.0,0.0,0.0,0.0,0.0,0.0,0.0,0.0,0.0,0.0,0.0,0.0,0.0,0.0,0.0,0.0,0.0,0.0,0.0,0.0,0.0,0.0,0.0,0.0,0.0,0.0,0.0,0.0,0.0,0.0,0.0,0.0,0.0,0.0,0.0,0.0,0.0,0.0,0.0,0.0,0.0,0.0,0.0,0.0,0.0,0.0,0.0,0.0,0.0,0.0,0.0,0.0,0.0,0.0,0.0,0.0,0.0,0.0,0.0,0.0,0.0,0.0,0.0,0.0,0.0,0.0,0.6318,0.6412,0.6486,0.0,0.6637,0.671,0.6788,0.6788,0.7548,0.9221,0.0,0.0,0.0,0.0,0.0,0.0,0.0,0.0,0.0,0.0,0.0,0.0,0.0,0.0,0.0,0.0,0.0,0.0,0.0,0.0,0.0,0.0,0.0,0.0,0.0,0.0,0.0,0.0,0.0,0.0,0.0,0.0,0.0,0.0,0.0,0.0,0.0,0.0,0.0,0.0,0.0,0.0,0.0,0.0,0.0,0.0,0.0,0.0,0.0,0.0,0.0,0.0,0.0,0.0,0.0,0.0,0.0,0.0,0.0,0.0,0.0,0.0,0.0,0.0,0.0,0.0,0.0,0.0,0.0,0.0,0.0,0.0,0.0,0.0,0.0,0.0,0.0,0.0,0.0,0.0,0.0,0.0,0.0,0.0,0.0,0.0,0.0,0.0,0.0,0.0,0.0,0.0,0.0,0.0,0.0,0.0,0.0,0.0,0.0,0.0,0.0,0.0,0.624,0.6261,0.6261,0.6338,0.6338,0.6412,0.6563,0.6563,0.7399,0.0,0.0,0.0,0.0,0.0,0.0,0.0,0.0,0.0,0.0,0.0,0.0,0.0,0.0,0.0,0.0,0.0,0.0,0.0,0.0,0.0,0.0,0.0,0.0,0.0,0.0,0.0,0.0,0.0,0.0,0.0,0.0,0.0,0.0,0.0,0.0,0.0,0.0,0.0,0.0,0.0,0.0,0.0,0.0,0.0,0.0,0.0,0.0,0.0,0.0,0.0,0.0,0.0,0.0,0.0,0.0,0.0,0.0,0.0,0.0,0.0,0.0,0.0,0.0,0.0,0.0,0.0,0.0,0.0,0.0,0.0,0.0,0.0,0.0,0.0,0.0,0.0,0.0,0.0,0.0,0.0,0.0,0.0,0.0,0.0,0.0,0.0,0.0,0.0,0.0,0.0,0.0,0.0,0.0,0.0,0.0,0.0,0.0,0.0,0.0,0.0,0.0,0.0,0.6227,0.6103,0.6099,0.6261,0.6338,0.6338,0.6412,0.6412,0.6872,0.7936,0.0,0.0,0.0,0.0,0.0,0.0,0.0,0.0,0.0,0.0,0.0,0.0,0.0,0.0,0.0,0.0,0.0,0.0,0.0,0.0,0.0,0.0,0.0,0.0,0.0,0.0,0.0,0.0,0.0,0.0,0.0,0.0,0.0,0.0,0.0,0.0,0.0,0.0,0.0,0.0,0.0,0.0,0.0,0.0,0.0,0.0,0.0,0.0,0.0,0.0,0.0,0.0,0.0,0.0,0.0,0.0,0.0,0.0,0.0,0.0,0.0,0.0,0.0,0.0,0.0,0.0,0.0,0.0,0.0,0.0,0.0,0.0,0.0,0.0,0.0,0.0,0.0,0.0,0.0,0.0,0.0,0.0,0.0,0.0,0.0,0.0,0.0,0.0,0.0,0.0,0.0,0.0,0.0,0.0,0.0,0.0,0.0,0.0,0.0,0.0,0.0,0.0,0.6069,0.6099,0.6099,0.6261,0.6312,0.6346,0.6346,0.64,0.6828,0.7612,0.0,0.0,0.0,0.0,0.0,0.0,0.0,0.0,0.0,0.0,0.0,0.0,0.0,0.0,0.0,0.0,0.0,0.0,0.0,0.0,0.0,0.0,0.0,0.0,0.0,0.0,0.0,0.0,0.0,0.0,0.0,0.0,0.0,0.0,0.0,0.0,0.0,0.0,0.0,0.0,0.0,0.0,0.0,0.0,0.0,0.0,0.0,0.0,0.0,0.0,0.0,0.0,0.0,0.0,0.0,0.0,0.0,0.0,0.0,0.0,0.0,0.0,0.0,0.0,0.0,0.0,0.0,0.0,0.0,0.0,0.0,0.0,0.0,0.0,0.0,0.0,0.0,0.0,0.0,0.0,0.0,0.0,0.0,0.0,0.0,0.0,0.0,0.0,0.0,0.0,0.0,0.0,0.0,0.0,0.0,0.0,0.0,0.0,0.0,0.0,0.0,0.0,0.5864,0.6132,0.6224,0.6302,0.6417,0.6491,0.6491,0.662,0.6947,0.7683,0.0,0.0,0.0,0.0,0.0,0.0,0.0,0.0,0.0,0.0,0.0,0.0,0.0,0.0,0.0,0.0,0.0,0.0,0.0,0.0,0.0,0.0,0.0,0.0,0.0,0.0,0.0,0.0,0.0,0.0,0.0,0.0,0.0,0.0,0.0,0.0,0.0,0.0,0.0,0.0,0.0,0.0,0.0,0.0,0.0,0.0,0.0,0.0,0.0,0.0,0.0,0.0,0.0,0.0,0.0,0.0,0.0,0.0,0.0,0.0,-0.5805,0.0,0.0,0.0,0.0,0.0,0.0,0.0,0.0,0.0,0.0,0.0,0.0,0.0,0.0,0.0,0.0,0.0,0.0,0.0,0.0,0.0,0.0,0.0,0.0,0.0,0.0,0.0,0.0,0.0,0.0,0.0,0.0,0.0,0.0,0.0,0.0,0.0,0.0,0.0,0.0,0.0,0.5769,0.5804,0.5873,0.6031,0.6055,0.6071,0.6071,0.6268,0.6456,0.6619,0.7435,0.0,0.0,0.0,0.0,0.0,0.0,0.0,0.0,0.0,0.0,0.0,0.0,0.0,0.0,0.0,0.0,0.0,0.0,0.0,0.0,0.0,0.0,0.0,0.0,0.0,0.0,0.0,0.0,0.0,0.0,0.0,0.0,0.0,0.0,0.0,0.0,0.0,0.0,0.0,0.0,0.0,0.0,0.0,0.0,0.0,0.0,0.0,0.0,0.0,0.0,0.0,0.0,0.0,0.0,0.0,0.0,0.0,0.0,0.0,0.0,-0.5616,0.0,0.0,0.0,0.0,0.0,0.0,0.0,0.0,0.0,0.0,0.0,0.0,0.0,0.0,0.0,0.0,0.0,0.0,0.0,0.0,0.0,0.0,0.0,0.0,0.0,0.0,0.0,0.0,0.0,0.0,0.0,0.0,0.0,0.0,0.0,0.0,0.0,0.0,0.0,0.0,0.5676,0.5829,0.5871,0.5951,0.6092,0.6132,0.6132,0.6364,0.6576,0.6576,0.7165,0.0,0.0,0.0,0.0,0.0,0.0,0.0,0.0,0.0,0.0,0.0,0.0,0.0,0.0,0.0,0.0,0.0,0.0,0.0,0.0,0.0,0.0,0.0,0.0,0.0,0.0,0.0,0.0,0.0,0.0,0.0,0.0,0.0,0.0,0.0,0.0,0.0,0.0,0.0,0.0,0.0,0.0,0.0,0.0,0.0,0.0,0.0,0.0,0.0,0.0,0.0,0.0,0.0,0.0,0.0,-1.0869,-0.9846,-0.8959,-0.83,-0.6595,-0.5913,-0.5951,0.0,0.0,0.0,0.0,0.0,0.0,0.0,0.0,0.0,0.0,0.0,0.0,0.0,0.0,0.0,0.0,0.0,0.0,0.0,0.0,0.0,0.0,0.0,0.0,0.0,-0.5148,-0.514,0.0,0.0,0.0,0.0,0.0,0.0,0.0,0.0,0.0,0.0,0.0,0.0,0.5658,0.584,0.5936,0.5936,0.6034,0.6103,0.6103,0.6464,0.6707,0.6707,0.6877,0.7257,0.0,0.0,0.0,0.0,0.0,0.0,0.0,0.0,0.0,0.0,0.0,0.0,0.0,0.0,0.0,0.0,0.0,0.0,0.0,0.0,0.0,0.0,0.0,0.0,0.0,0.0,0.0,0.0,0.0,0.0,0.0,0.0,-1.7701,-1.718,0.0,0.0,0.0,0.0,0.0,0.0,0.0,0.0,0.0,0.0,0.0,0.0,0.0,0.0,-1.3285,-1.2719,-1.2479,-1.2739,-1.2148,-1.102,-0.9552,-0.9493,-0.8657,-0.7158,-0.6773,0.0,-0.6034,-0.6197,0.0,0.0,0.0,0.0,0.0,0.0,0.0,0.0,0.0,0.0,0.0,0.0,0.0,0.0,0.0,0.0,0.0,0.0,0.0,0.0,0.0,0.0,-0.5322,-0.5322,-0.5333,-0.5336,0.0,-0.3514,-0.1473,-0.0233,0.0,0.0,0.0,0.0,0.0,0.0,0.0,0.0,0.5529,0.5619,0.5772,0.5772,0.5789,0.58,0.58,0.5988,0.6171,0.6171,0.6343,0.6602,0.6939,0.765,0.0,0.0,0.0,0.0,0.0,0.0,0.0,0.0,0.0,0.0,0.0,0.0,0.0,0.0,0.0,0.0,0.0,0.0,0.0,0.0,0.0,0.0,0.0,0.0,0.0,0.0,0.0,0.0,0.0,-1.735,-1.7584,-1.7367,-1.7792,-1.8071,0.0,0.0,0.0,0.0,0.0,0.0,0.0,0.0,0.0,-1.3472,-1.291,-1.2536,-1.2286,-1.2365,-1.2426,-1.255,-1.1869,-1.1182,-1.0422,-0.9411,-0.8508,-0.7744,-0.7204,-0.6809,-0.6433,-0.6427,-0.6254,-0.5999,0.0,0.0,0.0,0.0,0.0,0.0,-0.5575,0.0,0.0,0.0,0.0,0.0,0.0,0.0,0.0,0.0,0.0,0.0,0.0,0.0,0.0,-0.5556,-0.5575,-0.5578,-0.5591,-0.4818,-0.328,0.0,-0.0,-0.0,-0.0,0.0,0.0,0.0,0.0,0.0,0.5654,0.57,0.5733,0.5733,0.5733,0.5733,0.5733,0.5908,0.6083,0.6083,0.6257,0.6432,0.6612,0.7139,0.7632,0.0,0.0,0.0,0.0,0.0,0.0,0.0,0.0,0.0,0.0,0.0,0.0,0.0,0.0,0.0,0.0,0.0,0.0,0.0,0.0,0.0,0.0,0.0,0.0,0.0,0.0,0.0,0.0,-1.7515,-1.7542,-1.7646,-1.7366,-1.7434,0.0,0.0,0.0,0.0,0.0,0.0,-1.5542,-1.4816,-1.392,-1.2783,-1.2398,-1.2048,-1.1733,-1.2119,-1.2183,-1.2081,-1.1497,-1.1063,-1.0544,-0.9152,-0.8368,-0.8105,-0.7404,-0.7054,-0.6881,-0.6697,-0.6517,-0.634,-0.6257,-0.6169,0.0,-0.5822,-0.5733,-0.5733,-0.5733,-0.5733,-0.5733,-0.5733,0.0,-0.6432,-0.5908,0.0,0.0,0.0,0.0,-0.5483,-0.5572,0.0,-0.5534,-0.5711,-0.5733,-0.5738,-0.5665,-0.5282,-0.3976,0.0,-0.0,-0.0,-0.0,0.0,0.0,0.0,0.0,0.5657,0.5735,0.5733,0.5733,0.5733,0.5733,0.5733,0.5733,0.5908,0.5997,0.5997,0.6169,0.6254,0.6343,0.6526,0.6962,0.7834,0.0,0.0,0.0,0.0,0.0,0.0,0.0,0.0,0.0,0.0,0.0,0.0,0.0,0.0,0.0,0.0,0.0,0.0,0.0,0.0,0.0,0.0,0.0,0.0,0.0,0.0,0.0,0.0,0.0,-1.8266,-1.6994,0.0,0.0,0.0,0.0,-1.6603,-1.6184,-1.5542,-1.4673,-1.3608,-1.2797,-1.247,-1.1818,-1.1769,-1.227,-1.23,-1.2015,-1.1305,-1.1316,-1.0366,-0.8632,-0.8544,-0.8017,-0.7139,-0.7139,-0.7051,-0.7054,-0.7051,-0.6786,-0.6428,-0.6428,-0.6254,-0.6083,-0.5822,-0.5733,-0.5733,-0.5733,-0.5733,-0.5733,-0.5733,-0.5733,-0.5733,-0.5733,-0.573,0.0,0.0,-0.5719,-0.5716,-0.5722,-0.5725,-0.5727,-0.5733,-0.5733,-0.5735,-0.5657,-0.4324,-0.2448,0.0,-0.0,-0.0,-0.0,0.0,0.0,0.2594,0.4486,0.5665,0.5735,0.5733,0.5733,0.5733,0.5733,0.5733,0.5733,0.5733,0.5733,0.5733,0.5733,0.5819,0.6083,0.6171,0.6349,0.6881,0.6874,0.0,0.0,0.0,0.0,0.0,0.0,0.0,0.0,0.0,0.0,0.0,0.0,0.0,0.0,0.0,0.0,0.0,0.0,0.0,0.0,0.0,0.0,0.0,0.0,0.0,0.0,0.0,0.0,-1.7648,-1.6849,0.0,0.0,-1.6114,-1.5842,-1.5921,-1.5346,-1.48,-1.437,-1.3561,-1.3023,-1.2707,-1.2265,-1.2125,-1.2312,-1.1888,-1.1582,-1.1499,-1.0197,-0.924,-0.8715,-0.7929,-0.7404,-0.7139,-0.7139,-0.7139,-0.7139,-0.7139,-0.6962,-0.6786,-0.6517,-0.6343,-0.6257,-0.5819,-0.5733,-0.5733,-0.5733,-0.5733,-0.5733,-0.5733,-0.5733,-0.5733,-0.5733,-0.5733,-0.5733,-0.5733,-0.5733,-0.5733,-0.5733,-0.5733,-0.5733,-0.5733,-0.5738,-0.5744,-0.5665,-0.5186,-0.4461,-0.3778,-0.169,-0.0,-0.0,-0.0,0.0628,0.2598,0.4491,0.5665,0.5735,0.5733,0.5733,0.5733,0.5733,0.5733,0.5733,0.5733,0.5733,0.5733,0.5733,0.5733,0.5822,0.5994,0.6171,0.6349,0.6615,0.6792,0.0,0.0,0.0,0.0,0.0,0.0,0.0,0.0,0.0,0.0,0.0,0.0,0.0,0.0,0.0,0.0,0.0,0.0,0.0,0.0,0.0,0.0,0.0,0.0,0.0,0.0,-1.7044,-1.7375,-1.6376,-1.5754,-1.6035,-1.5621,-1.5405,-1.561,-1.5178,-1.4893,-1.4645,-1.3892,-1.3338,-1.3007,-1.255,-1.2355,-1.2445,-1.1673,-1.1241,-1.1241,-0.9414,-0.8456,-0.8372,-0.7492,-0.7139,-0.7139,-0.7139,-0.7139,-0.7139,-0.7139,-0.7139,-0.7051,-0.6605,-0.6428,-0.6343,-0.5908,-0.5733,-0.5733,-0.5733,-0.5733,-0.5733,-0.5733,-0.5733,-0.5733,-0.5733,-0.5733,-0.5733,-0.5733,-0.5733,-0.5733,-0.5733,-0.5733,-0.5733,-0.5733,-0.5741,-0.5568,-0.4853,-0.5223,-0.5323,-0.4057,-0.1689,-0.0,-0.0,-0.0,0.0628,0.2598,0.4491,0.5665,0.5735,0.5733,0.5733,0.5733,0.5733,0.5733,0.5733,0.5733,0.5733,0.5733,0.5733,0.5733,0.5733,0.5908,0.6083,0.6169,0.6704,0.6881,0.6881,0.0,0.0,0.0,0.0,0.0,0.0,0.0,0.0,0.0,0.0,0.0,0.0,0.0,0.0,0.0,0.0,0.0,0.0,0.0,0.0,0.0,0.0,0.0,-1.8131,-1.8063,-1.7871,-1.7425,-1.5666,-1.4721,-1.5443,-1.515,-1.5145,-1.5757,-1.5774,-1.5699,-1.552,-1.445,-1.3646,-1.3369,-1.2649,-1.2445,-1.2705,-1.1757,-1.0982,-1.0294,-0.9069,-0.8113,-0.7507,-0.7231,-0.7139,-0.7139,-0.7139,-0.7139,-0.7139,-0.7139,-0.7139,-0.7051,-0.6605,-0.6428,-0.6343,-0.5908,-0.5733,-0.5733,-0.5733,-0.5733,-0.5733,-0.5733,-0.5733,-0.5733,-0.5733,-0.5733,-0.5733,-0.5733,-0.5733,-0.5733,-0.5733,-0.5733,-0.5733,-0.5733,-0.5741,-0.5206,-0.3406,-0.4405,-0.4593,-0.0719,-0.0,-0.0,-0.0,0.009,0.0808,0.2599,0.4491,0.0,0.5735,0.5733,0.5733,0.5733,0.5733,0.5733,0.5733,0.5733,0.5733,0.5733,0.5733,0.5733,0.5733,0.5733,0.5908,0.6343,0.6874,0.7051,0.7051,0.0,0.0,0.0,0.0,0.0,0.0,0.0,0.0,0.0,0.0,0.0,0.0,0.0,0.0,0.0,0.0,0.0,0.0,0.0,0.0,0.0,0.0,-1.9333,-1.87,-1.7257,-1.6446,-1.695,-1.5833,-1.5168,-1.5576,-1.5609,-1.5757,-1.6112,-1.6438,-1.6522,-1.6258,-1.517,-1.4515,-1.4324,-1.3348,-1.2893,-1.2966,-1.1499,-1.0722,-1.0463,-0.8811,-0.794,-0.7768,-0.7503,-0.7323,-0.7139,-0.7139,-0.7139,-0.7139,-0.7139,-0.7139,-0.7051,-0.6789,-0.6704,-0.6612,-0.6346,-0.6083,-0.5997,-0.5997,-0.5819,-0.5733,-0.5733,-0.5733,-0.5733,-0.5733,-0.5733,-0.5733,-0.5733,-0.5733,-0.5733,-0.5733,-0.5733,-0.5735,-0.5741,-0.566,-0.5578,-0.5041,-0.5325,-0.46,-0.0719,-0.0,-0.0,-0.0,0.2337,0.3868,0.3047,0.0,0.0,0.5735,0.5733,0.5733,0.5733,0.5733,0.5733,0.5733,0.5733,0.5733,0.0,0.5733,0.5733,0.5733,0.5733,0.5819,0.6169,0.6432,0.6697,0.0,0.0,0.0,0.0,0.0,0.0,0.0,0.0,0.0,0.0,0.0,0.0,0.0,0.0,0.0,0.0,0.0,0.0,0.0,0.0,0.0,0.0,-1.9651,-1.9121,-1.8808,-1.7285,-1.6324,-1.6751,-1.6121,-1.588,-1.6302,-1.6473,-1.6655,-1.7107,-1.7286,-1.7458,-1.7434,-1.5994,-1.5182,-1.5115,-1.3886,-1.3228,-1.3228,-1.1499,-1.0636,-1.0722,-0.8811,-0.7944,-0.8028,-0.768,-0.7415,0.0,-0.7143,-0.7139,-0.7139,-0.7139,-0.7139,0.0,0.0,0.0,0.0,0.0,-0.6343,-0.6257,-0.6171,-0.5997,-0.5819,-0.5733,-0.5733,-0.5733,-0.5733,-0.5733,-0.5733,-0.5733,-0.5733,-0.5733,-0.5733,-0.5733,-0.5735,-0.5744,-0.5119,-0.4764,-0.5502,-0.4416,-0.2611,-0.045,0.0,0.0,-0.0,0.3148,0.5318,0.422,0.5027,0.5744,0.0,0.5733,0.5733,0.5733,0.5733,0.5733,0.5733,0.5733,0.0,0.0,0.0,0.5733,0.5733,0.5819,0.0,0.0,0.0,0.652,0.0,0.0,0.0,0.0,0.7014,0.7095,0.0,0.0,0.0,0.0,0.0,0.0,0.0,0.0,0.0,0.0,0.0,0.0,0.0,0.0,0.0,0.0,-1.9475,-1.8337,-1.8808,-1.8008,-1.7213,-1.6806,-1.6634,-1.6808,-1.7388,-1.7492,-1.7801,-1.8297,-1.8315,-1.8389,-1.8754,0.0,0.0,0.0,0.0,-1.3398,-1.3398,-1.1671,-1.0982,-1.1154,-0.9074,-0.8201,-0.8372,-0.7852,-0.7507,-0.7507,-0.7234,-0.7139,-0.7139,-0.7139,-0.7139,-0.7054,-0.6881,-0.6792,-0.6792,-0.6609,-0.6428,0.0,0.0,0.0,0.0,-0.5822,-0.5733,-0.5733,-0.5733,-0.5733,-0.5733,-0.5733,-0.5733,-0.5733,-0.5733,-0.5735,-0.5738,-0.5657,-0.4395,-0.359,-0.4775,-0.2427,-0.0,-0.0,-0.0,0.018,0.0539,0.3238,0.5497,0.5673,0.5662,0.0,0.5735,0.5733,0.5733,0.5733,0.0,0.0,0.5733,0.5733,0.5733,0.5733,0.5733,0.5733,0.5733,0.5908,0.6083,0.6083,0.6254,0.6432,0.6432,0.67,0.6792,0.6881,0.7054,0.7139,0.0,0.0,0.0,0.0,0.0,0.0,0.0,0.0,0.0,0.0,0.0,0.0,0.0,0.0,0.0,-2.0767,-1.9727,-1.91,-1.9354,-1.8995,-1.8536,-1.8066,-1.7716,-1.7815,-1.8544,-1.8321,-1.8452,-1.9303,-1.9182,-1.9061,-1.9143,-1.7342,0.0,-1.6527,-1.4643,-1.3652,-1.3652,-1.279,-1.2277,-1.2106,0.0,0.0,-0.9323,-0.846,-0.7852,-0.7507,-0.7415,-0.7323,-0.7139,-0.7139,-0.7139,-0.7139,-0.7051,-0.7054,-0.7054,-0.6962,-0.6697,-0.6428,-0.6343,-0.6083,-0.5819,-0.5997,-0.5908,-0.5733,-0.5997,-0.5908,0.0,-0.5733,-0.5733,-0.5733,-0.5733,-0.5738,-0.5657,-0.5665,-0.5402,-0.441,-0.1708,-0.0539,-0.0,-0.0,-0.0,0.0988,0.4051,0.3954,0.3948,0.5489,0.5657,0.5735,0.5733,0.5733,0.5733,0.5733,0.5733,0.5733,0.5733,0.5733,0.5733,0.5733,0.5733,0.5733,0.5733,0.5733,0.5911,0.6083,0.6254,0.652,0.6704,0.6966,0.7054,0.7054,0.7054,0.7139,0.0,0.0,0.0,0.0,0.0,0.0,0.0,0.0,0.0,0.0,0.0,-2.4377,0.0,0.0,-2.1944,-2.1066,-2.0085,-1.9658,-2.0347,-2.0172,-1.9775,-1.9153,-1.9128,-1.935,-1.9873,-1.9936,-1.9918,-1.9904,-1.9844,-1.9618,-1.9301,-1.7989,-1.7017,-1.6698,-1.5304,-1.4321,-1.3913,-1.313,-1.2619,-1.2534,-1.1241,-1.0544,-1.0453,-0.9414,-0.8715,-0.8285,-0.7768,-0.7323,-0.7139,-0.7139,-0.7139,-0.7139,-0.7139,-0.7139,-0.7139,-0.7139,-0.6962,-0.6697,-0.6612,-0.6438,-0.6263,-0.6257,-0.6083,-0.5908,-0.6083,-0.5908,-0.5733,-0.5733,-0.5733,-0.5735,-0.5738,-0.5744,-0.5662,-0.5676,-0.5681,-0.4685,-0.0809,-0.0,-0.0,-0.0,0.1527,0.3419,0.5412,0.4945,0.4576,0.5573,0.5741,0.5733,0.5733,0.5733,0.5733,0.5733,0.5733,0.5733,0.5733,0.5733,0.5733,0.5733,0.5733,0.5733,0.5733,0.5733,0.5733,0.5908,0.5994,0.6171,0.6438,0.6609,0.6786,0.6966,0.7054,0.7139,0.0,0.0,0.0,0.0,0.0,0.0,0.0,0.0,-2.6183,-2.5047,-2.4709,-2.4323,-2.3551,-2.2797,-2.2115,-2.1376,-2.056,-2.0347,-2.1429,-2.1431,-2.1184,-2.0715,-2.0761,-2.0977,-2.1228,-2.1613,-2.1431,-2.0537,-2.0391,-2.0001,-1.9301,-1.8487,-1.7674,-1.6935,-1.5966,-1.5068,-1.4334,-1.3392,-1.296,-1.2966,-1.2015,-1.158,-1.1494,-1.0453,-0.9666,-0.9235,-0.8025,-0.7415,-0.7143,-0.7139,-0.7139,-0.7139,-0.7139,-0.7139,-0.7139,-0.7139,-0.7054,-0.7054,-0.6881,-0.6792,-0.6704,-0.652,-0.6346,-0.6083,-0.6171,-0.5997,-0.5733,-0.5733,-0.5733,-0.5735,-0.5744,-0.5387,-0.5211,-0.5589,-0.5138,-0.378,-0.0629,-0.0,-0.0,-0.0,0.3058,0.5684,0.5681,0.5668,0.5657,0.5657,0.5738,0.5733,0.5733,0.5733,0.5733,0.5733,0.5733,0.5733,0.5733,0.5733,0.5733,0.5733,0.5733,0.5733,0.5733,0.5733,0.5733,0.5822,0.5822,0.5908,0.6171,0.6346,0.6612,0.6795,0.6966,0.7139,-3.2718,-3.186,-3.0866,-2.9588,-2.8598,-2.7583,0.0,0.0,-2.4419,-2.3722,-2.3327,-2.2944,-2.2249,-2.1865,-2.1479,-2.0782,-2.1112,-2.1551,-2.2008,-2.2538,-2.2912,-2.3144,-2.2659,-2.2484,-2.2985,-2.2531,-2.2027,-2.1583,-2.1058,-2.0304,-1.9381,-1.8487,-1.7997,-1.7836,-1.6288,-1.5311,-1.5235,-1.4412,-1.3913,-1.3913,-1.2966,-1.2528,-1.2528,-1.158,-1.0539,-0.9492,-0.8113,-0.7507,-0.7415,-0.7231,-0.7139,-0.7139,-0.7139,-0.7139,-0.7139,-0.7139,-0.6966,-0.6792,-0.6795,-0.6612,-0.652,-0.6704,-0.6438,-0.6171,-0.6615,-0.6263,-0.5733,-0.5997,-0.5908,-0.5735,-0.5744,-0.4484,-0.3678,-0.5318,-0.3148,-0.0539,-0.009,-0.0,-0.0,-0.0,0.3058,0.5681,0.5673,0.5665,0.5657,0.5657,0.5738,0.5733,0.5733,0.5733,0.5733,0.5733,0.5733,0.5733,0.5733,0.5733,0.5733,0.5733,0.5733,0.5733,0.5733,0.5733,0.5822,0.6083,0.6083,0.6171,0.6343,0.6612,0.6792,0.6795,0.6966,0.7139,-3.3082,-3.236,-3.1589,-2.9837,-2.923,-2.8603,-2.6767,-2.5965,-2.532,-2.4271,-2.3616,-2.309,-2.2823,-2.2519,-2.2273,0.0,-2.169,-2.1973,-2.3084,-2.3171,-2.3609,-2.4809,-2.4695,-2.4259,-2.3661,-2.3745,-2.3526,-2.2713,-2.2414,-2.1669,-2.0226,-1.9825,-1.9107,-1.7997,-1.7269,-1.6453,-1.5394,-1.5068,-1.458,-1.4088,-1.3737,-1.3483,-1.3483,-1.2528,-1.123,-0.9579,-0.8719,-0.8028,-0.7507,-0.7757,-0.7577,-0.7139,-0.7665,-0.758,-0.7139,-0.7139,-0.7054,-0.6966,-0.6966,-0.6877,-0.6786,-0.6966,-0.6792,-0.6529,-0.6707,-0.6352,-0.5997,-0.6083,-0.5913,-0.5744,-0.5662,-0.5126,-0.4137,-0.2697,-0.1168,-0.0,-0.0,0.1708,0.3328,0.3328,0.4587,0.5668,0.5665,0.5657,0.5738,0.5738,0.5735,0.5733,0.5733,0.5733,0.5733,0.5733,0.5733,0.5733,0.5733,0.5733,0.5733,0.5733,0.5733,0.5733,0.5733,0.5733,0.5733,0.5908,0.5908,0.5997,0.6257,0.6435,0.6612,0.6795,0.6966,0.7139,-3.3361,-3.2781,-3.2148,-3.0191,-2.9629,-2.9141,-2.7454,-2.6535,-2.5725,-2.4711,-2.3897,-2.3403,-2.333,-2.315,-2.2848,-2.2604,-2.2261,-2.2435,-2.3712,-2.3725,-2.4244,-2.5775,-2.605,-2.5664,-2.4564,-2.4862,-2.4719,-2.361,-2.3463,-2.2713,-2.0991,-2.0914,-2.0129,-1.8559,-1.8238,-1.7342,-1.5876,-1.556,-1.4985,-1.4088,-1.4088,-1.4088,-1.4088,-1.3137,-1.1923,-1.0448,-0.9753,-0.889,-0.8025,-0.8456,-0.8017,-0.7139,-0.7841,-0.7665,-0.7139,-0.7139,-0.7139,-0.7139,-0.7139,-0.7139,-0.7139,-0.7139,-0.6969,-0.6795,-0.6881,-0.6529,-0.6086,-0.5991,-0.5827,-0.5573,-0.5034,-0.5313,-0.4775,-0.0899,-0.0,0.027,0.1348,0.378,0.5684,0.5681,0.5668,0.5657,0.5657,0.5738,0.5733,0.5733,0.5733,0.5733,0.5733,0.5733,0.5733,0.5733,0.5733,0.5733,0.5733,0.5733,0.5733,0.5733,0.5733,0.5733,0.5733,0.5733,0.5733,0.5733,0.5733,0.5822,0.5997,0.6169,0.6435,0.6618,0.6877,0.7054,-3.3864,-3.3148,-3.2353,-3.0864,-2.9468,-2.8261,-2.7625,-2.6076,-2.4724,-2.4509,-2.3897,-2.333,-2.3138,-2.3078,-2.2884,-2.2237,-2.2616,-2.3133,-2.349,-2.4198,-2.5103,-2.6077,-2.6327,-2.6396,0.0,-2.5828,-2.5158,-2.412,-2.3891,-2.2999,-2.1211,-2.1058,-2.0692,-1.9863,-1.8789,-1.7891,-1.7001,-1.5959,-1.4985,-1.4088,-1.4088,-1.4088,-1.4088,-1.3137,-1.2705,-1.2528,-1.1391,-1.0269,-0.9148,-0.8978,-0.8189,-0.7139,-0.7139,-0.7139,-0.7139,-0.7139,-0.7139,-0.7139,-0.7139,-0.7139,-0.7139,-0.7139,-0.6969,-0.6792,-0.7054,-0.671,-0.6094,-0.5542,-0.5557,-0.5307,-0.3497,-0.4314,-0.4775,-0.0899,-0.0,0.0988,0.4685,0.5594,0.5681,0.5673,0.5665,0.5657,0.5657,0.5738,0.5733,0.5733,0.5733,0.5733,0.5733,0.5733,0.5733,0.5733,0.5733,0.5733,0.5733,0.5733,0.5733,0.5733,0.5733,0.5733,0.5733,0.5733,0.5733,0.5733,0.5733,0.5733,0.5733,0.5997,0.6083,0.6171,0.6615,0.6795,-3.3877,-3.3084,-3.2223,-3.0727,-2.9597,-2.8591,-2.754,-2.6663,-2.5797,-2.4865,-2.4808,-2.4738,-2.4279,-2.3598,-2.3217,-2.3361,-2.2834,-2.2885,-2.4063,-2.4549,-2.5169,-2.6271,-2.6465,0.0,0.0,0.0,0.0,-2.5312,-2.5087,-2.4192,-2.2403,-2.2178,-2.1441,-1.9942,-1.9381,-1.8479,-1.7001,-1.6527,-1.556,-1.4088,-1.4088,-1.4088,-1.4088,-1.3737,-1.3307,-1.2705,-1.2083,-1.0869,-0.9231,-0.9666,-0.8707,-0.7139,-0.7753,-0.7665,-0.7139,-0.7139,-0.7139,-0.7139,-0.7139,-0.7139,-0.7139,-0.7139,-0.7054,-0.7054,-0.7054,-0.6432,-0.5725,-0.6174,-0.5104,-0.395,-0.4587,-0.3323,-0.1616,-0.0269,-0.0,0.1078,0.4867,0.5681,0.5673,0.5665,0.5744,0.5738,0.5738,0.5735,0.5733,0.5733,0.5733,0.5733,0.5733,0.5733,0.5733,0.5733,0.5733,0.5733,0.5733,0.5733,0.5733,0.5733,0.5733,0.5733,0.5733,0.5733,0.5733,0.5733,0.5733,0.5733,0.5733,0.5997,0.6083,0.6083,0.6615,0.6795,-3.3748,-3.3102,-3.2409,-3.0897,-3.0064,-2.9268,-2.8097,-2.7333,-2.6573,-2.5481,-2.5412,-2.5398,-2.4951,-2.4168,-2.3807,-2.4368,-2.3551,-2.3231,-2.4507,-2.4938,-2.5394,-2.6105,-2.6395,-2.6533,0.0,0.0,0.0,-2.598,-2.5758,-2.4862,-2.3073,-2.2861,-2.1973,-2.0177,-1.9863,-1.8886,-1.7082,-1.6854,-1.5801,-1.4088,-1.4088,-1.4088,-1.4088,-1.4088,-1.3737,-1.3222,-1.3033,-1.1906,-1.0188,-1.0356,-0.9314,-0.7669,-0.7929,-0.7669,-0.7139,-0.7139,-0.7139,-0.7139,-0.7139,-0.7139,-0.7139,-0.7139,-0.7139,-0.7051,-0.6697,-0.5985,-0.5364,-0.546,-0.376,-0.2241,-0.3776,-0.2065,-0.0,-0.0,-0.0,0.0899,0.4045,0.522,0.5668,0.5744,0.5738,0.5733,0.5733,0.5733,0.5733,0.5733,0.5733,0.5733,0.5733,0.5733,0.5733,0.5733,0.5733,0.5733,0.5733,0.5733,0.5733,0.5733,0.5733,0.5733,0.5733,0.5733,0.5733,0.5733,0.5733,0.5733,0.5733,0.5908,0.5997,0.5997,0.6352,0.6615,-3.3556,-3.3203,-3.2845,-3.1359,-3.0714,-3.0194,-2.9104,-2.8015,-2.7049,-2.6269,-2.5837,-2.5494,0.0,0.0,-2.454,-2.5078,-2.4483,-2.421,-2.4784,-2.5296,-2.5614,0.0,0.0,0.0,0.0,0.0,0.0,-2.6201,0.0,-2.4933,-2.3294,-2.3095,-2.2285,-2.0644,-2.0177,-1.9045,-1.7415,-1.6854,-1.5801,-1.4088,-1.4088,-1.4088,-1.4088,-1.4088,-1.4088,-1.4088,-1.4088,-1.3307,-1.1929,-1.0961,-0.9749,-0.8368,-0.7492,-0.7139,-0.7139,-0.7139,-0.7139,-0.7139,-0.7139,-0.7139,-0.7139,-0.7139,-0.7051,-0.6874,-0.5985,-0.5455,-0.4835,-0.3674,-0.1792,-0.0269,-0.1076,-0.0718,-0.0,-0.0,0.018,0.0808,0.251,0.4399,0.5665,0.5738,0.5733,0.5733,0.5733,0.5733,0.5733,0.5733,0.5733,0.5733,0.5733,0.5733,0.5733,0.5733,0.5733,0.5733,0.5733,0.5733,0.5733,0.5733,0.5733,0.5733,0.5733,0.5733,0.5733,0.5733,0.5733,0.5733,0.5733,0.5733,0.5733,0.5733,0.5997,0.6257,-3.3784,-3.3284,-3.2627,-3.1138,-3.0551,-2.9989,-2.8638,-2.8143,-2.7735,-2.6602,-2.7027,-2.717,-2.5833,0.0,0.0,-2.464,-2.3476,0.0,-2.409,-2.4709,0.0,-2.5536,0.0,-2.6533,-2.6533,-2.6533,0.0,0.0,-2.6037,-2.5087,-2.3514,-2.3169,-2.2285,-2.0644,-2.0177,-1.9371,-1.8318,-1.6617,-1.5151,-1.4088,-1.4088,-1.4088,-1.4088,-1.4088,-1.4088,-1.4088,-1.4088,-1.3307,-1.1929,-1.0961,-0.9749,-0.8368,-0.7492,-0.7139,-0.7139,-0.7139,-0.7139,-0.7139,-0.7139,-0.7139,-0.7139,-0.7139,-0.6609,-0.5985,-0.5808,-0.4652,-0.3583,-0.3946,-0.2601,-0.0897,-0.0449,-0.0449,-0.0449,-0.009,0.2157,0.3957,0.3138,0.4395,0.5657,0.5735,0.5733,0.5733,0.5733,0.5733,0.5733,0.5733,0.5733,0.5733,0.5733,0.5733,0.5733,0.5733,0.5733,0.5733,0.5733,0.5733,0.5733,0.5733,0.5733,0.5733,0.5733,0.5733,0.5733,0.5733,0.5733,0.5733,0.5733,0.5733,0.5733,0.5733,0.6169,0.6343,-3.3506,-3.3046,-3.2482,-3.1325,-3.0908,-3.0402,-2.9073,-2.8857,-2.8607,-2.7449,-2.7932,-2.8073,-2.6416,-2.5816,-2.5268,0.0,0.0,0.0,-2.354,-2.4316,-2.4951,0.0,-2.5749,0.0,-2.6496,-2.6533,-2.6533,0.0,-2.6188,-2.5453,-2.4108,-2.3452,-2.2499,-2.1165,-2.0401,-1.9529,-1.847,-1.6445,-1.5151,-1.4664,-1.425,-1.4088,-1.4088,-1.4088,-1.4088,-1.4088,0.0,-1.3568,-1.2699,-1.166,-1.0443,-0.9148,-0.8101,-0.7489,-0.7139,-0.7139,-0.7139,-0.7139,-0.7139,-0.7139,-0.7051,-0.6609,-0.6163,-0.5542,-0.4739,-0.3758,-0.2957,-0.296,-0.2153,-0.1166,-0.0718,-0.0538,0.009,0.2066,0.4141,0.5407,0.4397,0.4935,0.5744,0.5735,0.5733,0.5733,0.5733,0.5733,0.5733,0.5733,0.5733,0.5733,0.5733,0.5733,0.5733,0.5733,0.5733,0.5733,0.5733,0.5733,0.5733,0.5733,0.5733,0.5733,0.5733,0.5733,0.5733,0.5733,0.5733,0.5733,0.5733,0.5733,0.5733,0.5908,0.6169,0.6346,-3.296,-3.2681,-3.24,-3.162,-3.1227,-3.079,-2.9859,-2.9625,-2.931,-2.8336,-2.867,-2.856,-2.6766,-2.6396,-2.583,-2.4281,0.0,-2.3813,-2.299,-2.3991,-2.479,-2.4822,-2.5272,-2.5824,-2.6471,-2.6533,-2.6533,-2.6533,-2.6339,-2.5828,-2.4779,-2.3745,-2.2713,-2.1614,-2.0712,-1.9608,-1.8292,-1.6609,-1.5636,-1.5394,-1.4657,-1.4166,-1.4088,-1.4088,-1.4088,-1.4088,0.0,0.0,-1.3561,-1.2448,-1.1402,-1.0269,-0.8973,-0.8017,-0.7316,-0.7139,-0.7139,-0.7139,-0.7139,-0.7139,-0.6962,-0.6163,-0.5719,-0.5184,-0.358,-0.2867,-0.251,-0.1614,-0.1253,-0.1072,-0.134,-0.0624,0.1067,0.4732,0.5636,0.563,0.5614,0.5697,0.5695,0.5687,0.5684,0.5684,0.5684,0.5684,0.5684,0.5684,0.5684,0.5684,0.5684,0.5714,0.5733,0.5733,0.5733,0.5733,0.5733,0.5733,0.5733,0.5733,0.5733,0.5733,0.5733,0.5733,0.5733,0.5733,0.5733,0.5733,0.5733,0.5733,0.5908,0.6171,0.6171,0.6441,-3.2648,-3.2451,-3.2213,-3.1295,-3.0352,-2.9658,-2.9735,-2.9034,-2.8379,-2.8276,-2.8996,-2.8844,-2.6257,-2.6681,-2.6417,-2.3257,-2.3484,-2.3695,-2.2408,-2.3344,-2.4318,0.0,-2.5272,-2.5824,-2.6471,-2.6533,0.0,0.0,0.0,0.0,-2.4779,-2.3745,-2.2414,-2.0644,-2.0177,-1.945,-1.8301,-1.7827,-1.6862,-1.5394,-1.5235,-1.4824,-1.4088,-1.4088,-1.4088,-1.4088,0.0,0.0,-1.3392,-1.2357,-1.1666,-1.0977,-0.9152,-0.8368,-0.8193,-0.7404,-0.7139,-0.7139,-0.7139,-0.7139,-0.7051,-0.6874,-0.5802,-0.4467,-0.42,-0.2953,-0.1614,-0.1436,-0.1329,-0.1311,-0.14,-0.0172,0.17,0.4437,0.5289,0.5363,0.536,0.5439,0.5434,0.5431,0.5431,0.5431,0.5431,0.5431,0.5431,0.5431,0.5431,0.5431,0.5431,0.5608,0.5733,0.5733,0.5733,0.5733,0.5733,0.5733,0.5733,0.5733,0.5733,0.5733,0.5733,0.5733,0.5733,0.5733,0.5733,0.5822,0.5997,0.5997,0.6169,0.6343,0.6615,0.6707,-3.2092,-3.1806,-3.1511,-3.0804,-2.9832,-2.9114,-2.9367,-2.879,-2.8205,-2.8356,-2.9196,-2.9163,-2.6669,-2.7137,-2.6857,-2.3886,-2.3561,-2.345,-2.2651,-2.2847,-2.3439,-2.4293,-2.487,-2.541,-2.5963,-2.6221,0.0,0.0,0.0,0.0,-2.5382,-2.3902,-2.2499,-2.1088,-2.0323,-1.9618,-1.9116,-1.8399,-1.7594,-1.678,-1.5801,-1.5151,-1.4741,-1.4334,-1.4088,-1.4088,0.0,0.0,-1.3476,-1.296,-1.1923,-1.0707,-0.9666,-0.8623,-0.7753,-0.7228,-0.7139,-0.7139,-0.7139,-0.7139,-0.7051,-0.6517,-0.5447,-0.42,-0.3757,-0.2597,-0.1436,-0.1436,-0.1238,-0.0957,-0.0,0.0769,0.1848,0.4545,0.5215,0.5374,0.5374,0.5371,0.5368,0.5368,0.5368,0.5368,0.5368,0.5368,0.5368,0.5368,0.5368,0.5368,0.5368,0.5472,0.5545,0.5545,0.5548,0.5548,0.5545,0.5545,0.5545,0.5545,0.5602,0.5638,0.5638,0.57,0.5733,0.5733,0.5822,0.5997,0.6083,0.6169,0.6346,0.6612,0.6704,0.6881,-3.1393,-3.0982,-3.0567,-2.9969,-2.8957,-2.8231,-2.8785,-2.8223,-2.7821,-2.8325,-2.9196,-2.917,-2.7142,-2.7428,-2.7141,-2.4696,-2.4096,-2.3725,-2.3106,-2.2841,-2.298,-2.3816,-2.4417,0.0,-2.5415,-2.5865,0.0,0.0,0.0,0.0,0.0,-2.3913,-2.266,-2.1832,-2.0624,-1.9942,-1.9863,-1.8895,-1.8247,-1.7997,-1.6617,-1.5801,-1.5394,-1.4657,-1.425,-1.4088,0.0,0.0,0.0,-1.3483,-1.2266,-1.0448,-1.0096,-0.8882,-0.7404,-0.7139,-0.7139,-0.7139,-0.7139,-0.7139,-0.6962,-0.5985,-0.5092,-0.4111,-0.3223,-0.2241,-0.1344,-0.125,-0.1054,-0.0345,0.1888,0.2023,0.2151,0.4637,0.5298,0.5292,0.5292,0.5292,0.5292,0.5292,0.5292,0.5292,0.5292,0.5292,0.5292,0.5292,0.5292,0.5292,0.5292,0.5295,0.5295,0.5295,0.543,0.5463,0.5371,0.5371,0.5368,0.5368,0.5458,0.5513,0.5513,0.5605,0.5667,0.578,0.5954,0.6145,0.626,0.6435,0.6612,0.6881,0.6881,0.6966,-3.0485,-3.0031,-2.9419,-2.855,-2.7084,-2.6291,-2.7834,-2.6978,-2.6335,-2.7979,-2.8779,-2.8684,-2.695,-2.7342,-2.713,-2.471,-2.5077,-2.5065,-2.3276,-2.3513,-2.3875,-2.3704,0.0,0.0,-2.5117,0.0,0.0,0.0,0.0,0.0,0.0,-2.3537,-2.266,-2.1832,-2.0789,-2.0186,-1.9863,-1.9636,-1.8984,-1.7997,-1.7836,-1.6935,-1.5394,-1.5311,-1.4824,-1.4088,0.0,0.0,0.0,-1.3398,-1.2528,-1.1149,-1.0274,-0.9231,-0.8281,-0.7404,-0.7139,-0.7139,-0.7139,-0.7139,-0.6962,-0.5985,-0.5092,-0.4111,-0.3223,-0.2241,-0.1341,-0.0878,-0.0773,0.0084,0.3792,0.37,0.3153,0.4656,0.505,0.505,0.505,0.505,0.505,0.505,0.505,0.505,0.505,0.505,0.505,0.505,0.505,0.505,0.505,0.5056,0.5059,0.505,0.5243,0.5374,0.5296,0.5374,0.5368,0.5368,0.5379,0.5385,0.5385,0.5398,0.5537,0.5904,0.5907,0.6225,0.6707,0.6792,0.6881,0.7051,0.7051,0.7054,-3.0234,-2.9673,-2.8914,-2.752,-2.6642,-2.6199,-2.668,-2.6176,-2.6038,-2.7557,-2.8255,-2.8199,-2.6853,-2.7073,-2.6886,-2.5112,-2.454,-2.4263,-2.4162,-2.3643,-2.3398,-2.3688,-2.4115,0.0,0.0,0.0,0.0,0.0,0.0,0.0,0.0,-2.412,-2.3316,-2.2585,-2.1538,-2.0634,-1.9942,-1.9715,-1.9311,-1.8807,-1.8238,-1.7342,-1.6124,-1.5636,-1.4901,-1.4088,0.0,0.0,0.0,-1.3398,-1.2266,-1.0448,-1.0009,-0.8969,-0.7577,-0.7228,-0.7139,-0.7139,-0.7139,-0.6697,-0.606,-0.5105,-0.4122,-0.3345,-0.3034,-0.2222,-0.132,-0.0873,0.0254,0.1562,0.3096,0.383,0.4309,0.4859,0.5018,0.5018,0.5018,0.5018,0.5018,0.5018,0.5018,0.5018,0.5018,0.5018,0.5018,0.5018,0.5018,0.5018,0.5023,0.5023,0.5026,0.5031,0.4225,0.4025,0.5002,0.5159,0.5159,0.5159,0.5222,0.526,0.526,0.533,0.5474,0.5608,0.5861,0.6096,0.6496,0.6757,0.697,0.7139,0.7139,0.7139,-2.9876,-2.9241,-2.8247,-2.6534,-2.6056,-2.5846,-2.5399,-2.5364,-2.5786,-2.7051,-2.7595,-2.7519,-2.656,-2.6508,-2.6221,-2.4941,-2.4172,-2.3964,-2.4574,-2.3902,-2.3473,-2.3916,0.0,0.0,0.0,0.0,0.0,0.0,0.0,0.0,0.0,0.0,-2.3975,-2.3032,-2.2059,-2.1078,-1.9942,-1.9794,-1.9548,-1.9301,-1.8647,-1.7917,-1.7025,-1.6206,-1.5311,0.0,0.0,0.0,0.0,-1.3398,-1.218,-1.0274,-1.0009,-0.8882,-0.7485,-0.7179,-0.7078,-0.7071,-0.7027,-0.6399,-0.551,-0.4479,-0.3605,-0.2845,-0.254,-0.1918,-0.1292,-0.0855,0.1161,0.3217,0.3214,0.4126,0.5018,0.5018,0.5018,0.5018,0.5018,0.5018,0.5018,0.5018,0.5018,0.5018,0.5018,0.5018,0.5018,0.5018,0.4545,0.4467,0.4948,0.5026,0.5031,0.4964,0.3532,0.321,0.4865,0.5018,0.5018,0.5018,0.5091,0.5137,0.5137,0.5219,0.5363,0.5399,0.5729,0.604,0.6348,0.6603,0.685,0.7078,0.7078,0.7099,-2.9194,-2.8432,-2.7195,-2.5365,-2.4946,-2.4723,-2.4054,-2.4418,-2.5219,-2.637,-2.6659,-2.6533,-2.601,-2.5574,-2.4986,-2.3905,-2.4312,-2.464,-2.4149,-2.4553,-2.4721,0.0,0.0,0.0,0.0,0.0,0.0,0.0,0.0,0.0,0.0,0.0,-2.4576,-2.3032,-2.2209,-2.1155,-1.9942,-1.9863,-1.9706,-1.9301,-1.9301,-1.8816,-1.7997,-1.7098,0.0,0.0,0.0,0.0,0.0,-1.3398,-1.2534,-1.1149,-1.0269,-0.9318,-0.8348,-0.7325,-0.6929,-0.6909,-0.6759,-0.6201,-0.536,-0.436,-0.3693,-0.3025,-0.1684,-0.1349,-0.1342,-0.082,0.2078,0.4953,0.4953,0.5026,0.5018,0.5018,0.5018,0.5018,0.5018,0.5018,0.5018,0.5018,0.5018,0.5018,0.5018,0.5018,0.5018,0.5018,0.36,0.313,0.4781,0.5034,0.4967,0.4967,0.3536,0.3217,0.4873,0.5023,0.5018,0.5018,0.5018,0.5018,0.5018,0.5021,0.5154,0.5514,0.5517,0.5822,0.636,0.6363,0.6609,0.6929,0.6929,0.7007,-2.9023,-2.776,-2.6217,-2.441,-2.3872,-2.3763,-2.3468,-2.3856,-2.4611,-2.5821,-2.5797,-2.5351,-2.4595,-2.3991,-2.3413,-2.2831,-2.289,-2.3178,-2.3639,0.0,0.0,-2.3493,0.0,0.0,0.0,0.0,0.0,0.0,0.0,0.0,0.0,0.0,-2.4576,-2.3032,-2.2723,-2.1756,-1.9942,-1.9863,-1.9706,-1.9301,-1.9301,-1.8567,-1.7098,-1.6862,0.0,0.0,0.0,0.0,0.0,-1.3194,-1.2272,-1.09,-0.9893,-0.8919,-0.8002,-0.7122,-0.6773,-0.6766,-0.6719,-0.5696,-0.443,-0.4117,-0.3035,-0.1885,-0.1453,-0.1382,-0.1228,-0.0479,0.063,0.2115,0.4392,0.5021,0.5018,0.5018,0.5018,0.5018,0.5018,0.5018,0.5018,0.5018,0.5018,0.5018,0.5018,0.4073,0.3682,0.4797,0.4557,0.3608,0.1803,0.3614,0.4969,0.4975,0.4491,0.3929,0.3368,0.4309,0.5018,0.5018,0.5018,0.5018,0.5018,0.5018,0.5034,0.5151,0.5305,0.5524,0.5816,0.614,0.646,0.6776,0.6878,0.6953,-2.8592,-2.7367,-2.5754,-2.3947,-2.342,-2.3132,-2.2656,-2.2963,-2.364,-2.4577,-2.4382,-2.3829,-2.3289,-2.2789,-2.23,-2.1801,-2.1921,-2.2253,0.0,0.0,0.0,-2.345,0.0,0.0,0.0,0.0,0.0,0.0,0.0,0.0,0.0,0.0,-2.4576,-2.3032,-2.3032,-2.2059,-2.0098,-1.9942,-1.9706,-1.939,-1.9301,-1.8567,-1.7188,0.0,0.0,0.0,0.0,0.0,0.0,-1.294,-1.2249,-1.1155,-0.9846,-0.8978,-0.8324,-0.704,-0.6614,-0.6607,-0.6468,-0.5306,-0.3914,-0.4021,-0.2806,-0.1282,-0.1263,-0.1191,-0.0961,-0.0236,-0.0,0.047,0.2582,0.4075,0.5023,0.5023,0.5021,0.5018,0.5018,0.5018,0.5018,0.5018,0.5018,0.5021,0.5026,0.416,0.3374,0.3141,0.3139,0.2826,0.1962,0.2592,0.3618,0.4894,0.4969,0.4562,0.3522,0.4387,0.5018,0.5018,0.5018,0.5018,0.5018,0.5018,0.5018,0.5018,0.5093,0.5283,0.5442,0.5971,0.6364,0.6617,0.677,0.701,0.0,-2.6961,-2.5631,-2.3895,-2.3292,-2.2845,-2.1683,-2.1857,0.0,-2.2951,-2.2647,-2.2273,-2.2146,-2.1923,-2.1557,-2.0888,-2.1299,0.0,0.0,-2.2636,0.0,0.0,0.0,0.0,0.0,0.0,0.0,0.0,0.0,0.0,0.0,0.0,0.0,-2.3106,-2.3032,-2.2134,-2.0342,-2.002,-1.9794,-1.9566,-1.939,-1.8798,-1.7874,0.0,0.0,0.0,0.0,0.0,0.0,-1.2654,-1.2295,-1.165,-0.9913,-0.9256,-0.8995,-0.7144,-0.6458,-0.6437,-0.6064,-0.5002,-0.3832,-0.3921,-0.2746,-0.1257,-0.1257,-0.0943,-0.055,-0.0079,-0.0,-0.0,-0.0,0.2271,0.4636,0.4792,0.4787,0.4859,0.494,0.5018,0.5018,0.5018,0.5018,0.5023,0.4964,0.4805,0.3616,0.047,-0.0,0.1099,0.4252,0.1963,0.1178,0.433,0.4886,0.5037,0.5021,0.5018,0.5018,0.5018,0.5018,0.5018,0.5018,0.5018,0.5018,0.5018,0.5018,0.5093,0.5321,0.5839,0.6221,0.6461,0.6614,0.7173,-2.6332,0.0,-2.4332,-2.3228,-2.2248,-2.1511,0.0,-2.16,-2.1863,-2.2419,-2.2062,-2.1497,-2.1407,-2.0746,-2.0361,-2.0485,0.0,0.0,-2.093,0.0,0.0,0.0,0.0,0.0,0.0,0.0,0.0,0.0,0.0,0.0,0.0,0.0,0.0,-2.3902,-2.3316,-2.2134,-2.0342,-2.0264,-2.0029,-1.9566,-1.9557,-1.8505,-1.67,0.0,0.0,0.0,0.0,0.0,0.0,-1.2368,-1.1618,-1.0572,-0.9296,-0.8458,-0.7831,-0.6709,-0.6312,-0.6305,-0.6203,-0.5165,-0.3599,-0.2353,-0.1413,-0.0864,-0.1178,-0.0943,-0.055,-0.0079,-0.0,-0.0,-0.0,0.0548,0.1488,0.2818,0.3052,0.3444,0.4711,0.5029,0.5029,0.5029,0.5034,0.504,0.4964,0.2907,0.0942,0.0157,-0.0,0.0314,0.1099,0.0471,0.0314,0.1099,0.3456,0.5031,0.5029,0.5021,0.5018,0.5018,0.5018,0.5018,0.5018,0.5018,0.5018,0.5018,0.5018,0.5093,0.5321,0.559,0.5761,0.5843,0.6773,0.7327,-2.537,-2.4747,-2.4052,-2.267,-2.1629,-2.0836,-2.046,-2.0145,-2.0113,-2.0614,-2.0398,-2.0157,-2.0157,-1.9803,-1.9695,-2.0194,-1.9761,0.0,0.0,0.0,0.0,0.0,0.0,0.0,0.0,0.0,0.0,0.0,0.0,0.0,0.0,0.0,0.0,0.0,-2.3018,-2.2218,-2.1011,-2.0489,-2.0012,-1.9434,-1.9347,-1.8186,-1.603,0.0,0.0,0.0,0.0,0.0,-1.2361,-1.2069,-1.1258,-1.0171,-0.9128,-0.8246,-0.7407,-0.6567,-0.6338,-0.6261,-0.6112,-0.5332,-0.4001,-0.1727,-0.0786,-0.0707,-0.1178,-0.11,-0.0786,-0.0157,-0.0,-0.0,-0.0,-0.0,0.0235,0.1175,0.1331,0.1565,0.2507,0.3292,0.4079,0.4878,0.4964,0.4489,0.2986,0.1178,-0.0,-0.0,-0.0,-0.0,-0.0,-0.0,-0.0,-0.0,0.2982,0.5034,0.5026,0.5021,0.5018,0.5018,0.5018,0.5018,0.5018,0.5018,0.5018,0.5018,0.5018,0.5171,0.5401,0.5559,0.587,0.6335,0.704,0.7622,-2.467,-2.4419,-2.396,-2.2108,-2.1205,-2.0435,-1.9202,-1.8536,-1.8298,-1.8608,-1.8792,-1.8857,-1.8881,-1.9153,-1.9506,0.0,0.0,0.0,0.0,0.0,0.0,0.0,0.0,0.0,0.0,0.0,0.0,0.0,0.0,0.0,0.0,0.0,0.0,0.0,-2.265,-2.2343,-2.1763,-2.0811,-1.9966,-1.9241,-1.907,-1.7845,-1.5823,-1.5671,0.0,0.0,0.0,0.0,-1.2069,-1.174,-1.0962,-0.9911,-0.9003,-0.8169,-0.7253,-0.6567,-0.6338,-0.6261,-0.5796,-0.5101,-0.4012,-0.1492,-0.0628,-0.055,-0.0943,-0.1178,-0.11,-0.0236,-0.0,-0.0,-0.0,-0.0,-0.0,-0.0,-0.0,-0.0,-0.0,0.1096,0.2507,0.3932,0.4252,0.3303,0.0471,-0.0,-0.0,-0.0,-0.0,-0.0,-0.0,-0.0,-0.0,-0.0,0.2747,0.4638,0.4623,0.4859,0.5018,0.5018,0.5018,0.5018,0.5018,0.5018,0.5018,0.5018,0.5015,0.5171,0.5482,0.5712,0.6254,0.7103,0.7334,0.8165,-2.3917,-2.3369,-2.258,-2.1309,-2.052,-1.9806,-1.8952,-1.8661,-1.8608,-1.8525,-1.8845,-1.8963,-1.8375,-1.9227,-1.9879,0.0,0.0,0.0,0.0,0.0,0.0,0.0,0.0,0.0,0.0,0.0,0.0,0.0,0.0,0.0,0.0,0.0,0.0,0.0,0.0,-2.2297,-2.1523,-2.075,-1.978,-1.8786,-1.8777,-1.7889,-1.6258,-1.5593,-1.4469,0.0,0.0,0.0,-1.1546,-1.1502,-1.0432,-0.8927,-0.8775,-0.7787,-0.6493,-0.6338,-0.6338,-0.6183,-0.5168,-0.3524,-0.1803,-0.1335,-0.0707,-0.0079,-0.0157,-0.0707,-0.11,-0.0236,-0.0,-0.0,-0.0,-0.0,-0.0,-0.0,-0.0,-0.0,-0.0,0.0235,0.0471,0.0707,0.0785,0.0628,0.0079,-0.0,-0.0,-0.0,-0.0,-0.0,-0.0,-0.0,-0.0,-0.0,0.1723,0.2896,0.2895,0.4151,0.5018,0.5018,0.5018,0.5018,0.5018,0.5018,0.5018,0.5018,0.5168,0.5168,0.5093,0.6173,0.6707,0.6623,0.808,0.8998,-2.2847,-2.2298,-2.1637,-2.0289,-1.9701,-1.9286,-1.8284,-1.7857,-1.7667,-1.7501,-1.8311,-1.8701,-1.7612,0.0,-1.8826,-1.7481,0.0,0.0,0.0,0.0,0.0,0.0,0.0,0.0,0.0,0.0,0.0,0.0,0.0,0.0,0.0,0.0,0.0,0.0,0.0,0.0,-2.0751,-2.0414,-1.9661,-1.8514,-1.8432,-1.7622,-1.6163,-1.5732,-1.4688,0.0,0.0,-1.2218,-1.1558,-1.1409,-1.0657,-0.9458,-0.8927,-0.8016,-0.6872,-0.649,-0.6183,-0.5873,-0.5004,-0.2893,-0.0627,-0.0863,-0.0471,-0.0,-0.0,-0.0314,-0.055,-0.0079,-0.0,-0.0,-0.0,-0.0,-0.0,-0.0,-0.0,-0.0,-0.0,-0.0,-0.0,-0.0,-0.0,-0.0,-0.0,-0.0,-0.0,-0.0,-0.0,-0.0,-0.0,-0.0,0.0707,0.2518,0.3379,0.3847,0.3843,0.4548,0.5018,0.5018,0.5018,0.5018,0.5018,0.5018,0.5018,0.5018,0.5093,0.5401,0.6018,0.6633,0.7314,0.8219,0.8988,0.9528,-2.2002,-2.1451,-2.0864,-1.9628,-1.9135,-1.8736,-1.7685,-1.709,-1.6705,-1.6581,-1.7575,-1.8081,-1.6952,-1.7618,0.0,-1.6832,0.0,0.0,0.0,0.0,0.0,0.0,0.0,0.0,0.0,0.0,0.0,0.0,0.0,0.0,0.0,0.0,0.0,0.0,0.0,0.0,-2.0355,-2.0172,-1.9488,-1.8225,-1.8075,-1.7404,-1.6254,-1.5974,-1.4966,-1.3448,-1.323,-1.2579,-1.1632,-1.1409,-1.0887,-1.0067,-0.9079,-0.8093,-0.7176,-0.649,-0.6106,-0.564,-0.5082,-0.3281,-0.1096,-0.0627,-0.0235,-0.0,-0.0,-0.0,-0.0,-0.0,-0.0,-0.0,-0.0,-0.0,-0.0,-0.0,-0.0,-0.0,-0.0,-0.0,-0.0,-0.0,-0.0,-0.0,-0.0,-0.0,-0.0,-0.0,-0.0,-0.0,-0.0,0.0707,0.2121,0.4737,0.4967,0.5034,0.5029,0.5021,0.5018,0.5018,0.5018,0.5018,0.5018,0.5018,0.5018,0.5018,0.5249,0.5786,0.6707,0.7242,0.8156,0.9448,0.9674,0.9906,-2.1639,-2.0955,-2.0335,-1.9694,-1.9082,-1.8337,-1.7497,-1.6964,-1.6581,-1.6431,-1.6828,-1.7013,-1.6616,-1.7236,-1.8198,0.0,0.0,0.0,0.0,0.0,0.0,0.0,0.0,0.0,0.0,0.0,0.0,0.0,0.0,0.0,0.0,0.0,0.0,0.0,0.0,0.0,-2.1071,-2.042,-1.932,-1.7754,-1.7646,-1.742,-1.7097,-1.6184,-1.5251,-1.4163,-1.3295,-1.2358,-1.1409,-1.1186,-1.0663,-0.9841,-0.9008,-0.7787,-0.6416,-0.6338,-0.6025,-0.5559,-0.5401,-0.5015,-0.416,-0.1018,-0.0,-0.0,-0.0,-0.0,-0.0,-0.0,-0.0,-0.0,-0.0,-0.0,-0.0,-0.0,-0.0,-0.0,-0.0,-0.0,-0.0,-0.0,-0.0,-0.0,-0.0,-0.0,-0.0,-0.0,-0.0,-0.0,-0.0,0.275,0.4726,0.4967,0.5029,0.5018,0.5018,0.5018,0.5018,0.5018,0.5018,0.5018,0.5018,0.5018,0.5018,0.5018,0.5944,0.6402,0.624,0.8152,0.9074,0.9074,0.9836,1.0293,-2.0549,-1.9901,-1.9253,-1.8586,-1.8198,-1.7893,-1.7636,-1.7108,-1.6719,-1.667,-1.6932,-1.735,-1.7839,0.0,-1.6695,0.0,0.0,0.0,0.0,0.0,0.0,0.0,0.0,0.0,0.0,0.0,0.0,0.0,0.0,0.0,0.0,0.0,0.0,0.0,0.0,0.0,0.0,-2.0184,-1.9126,-1.8041,-1.7668,-1.7461,-1.7392,-1.676,-1.5754,-1.4442,-1.3656,-1.2578,-1.1294,-1.0838,-1.0414,-1.0067,-0.8891,-0.7605,-0.6338,-0.6338,-0.6025,-0.5637,-0.5637,-0.5335,-0.4794,-0.3534,-0.1727,-0.0,-0.0,-0.0,-0.0,-0.0,-0.0,-0.0,-0.0,-0.0,-0.0,-0.0,-0.0,-0.0,-0.0,-0.0,-0.0,-0.0,-0.0,-0.0,-0.0,-0.0,-0.0,-0.0,0.1807,0.3147,0.3144,0.4252,0.4964,0.5037,0.5026,0.5018,0.5018,0.5018,0.5018,0.5018,0.5018,0.5018,0.5018,0.5018,0.5246,0.5705,0.617,0.6857,0.7927,0.8765,0.9377,0.9911,1.0212,1.0368,-1.9628,-1.8957,-1.822,-1.7619,-1.7475,-1.7422,-1.746,-1.7155,-1.6727,-1.6417,-1.6707,-1.7277,-1.8132,-1.6953,0.0,0.0,0.0,0.0,0.0,0.0,0.0,0.0,0.0,0.0,0.0,0.0,0.0,0.0,0.0,0.0,0.0,0.0,0.0,0.0,0.0,0.0,0.0,-1.9508,-1.8595,-1.7963,-1.7375,-1.7072,-1.7015,-1.6726,-1.5746,-1.4268,-1.3746,-1.2611,-1.1153,-1.0615,-1.0049,-0.9502,-0.8365,-0.7196,-0.6115,-0.6115,-0.5888,-0.5515,-0.564,-0.5041,-0.4276,-0.4794,-0.275,-0.0,-0.0,-0.0,-0.0,-0.0,-0.0,-0.0,-0.0,-0.0,-0.0,-0.0,-0.0,-0.0,-0.0,-0.0,-0.0,-0.0,-0.0,-0.0,-0.0,-0.0,0.0393,0.1415,0.3544,0.4972,0.4967,0.504,0.5034,0.5026,0.5021,0.5018,0.5018,0.5018,0.5093,0.5401,0.5401,0.5246,0.5018,0.5246,0.5628,0.6163,0.6703,0.7625,0.8927,0.9231,0.9685,1.0293,1.0368,1.0293,-1.889,-1.8085,-1.7326,-1.7101,-1.7101,-1.7067,-1.6959,-1.6868,-1.6548,-1.56,-1.5863,-1.6487,-1.6995,-1.7054,0.0,0.0,0.0,0.0,0.0,0.0,0.0,0.0,0.0,0.0,0.0,0.0,0.0,0.0,0.0,0.0,0.0,0.0,0.0,0.0,0.0,0.0,0.0,-1.8434,-1.7698,-1.7482,-1.6617,-1.6128,-1.5974,-1.5955,-1.5033,-1.3584,-1.3369,-1.2362,-1.088,-1.0667,-0.962,-0.8004,-0.7287,-0.6508,-0.58,-0.58,-0.5512,-0.5246,-0.5396,-0.4157,-0.2734,-0.445,-0.2669,-0.0,-0.0,-0.0,-0.0,-0.0,-0.0,-0.0,-0.0,-0.0,-0.0,-0.0,-0.0,-0.0,-0.0,-0.0,-0.0,-0.0,-0.0,-0.0,-0.0,-0.0,0.1178,0.4501,0.4972,0.4967,0.4967,0.5029,0.5018,0.5018,0.5018,0.5018,0.5018,0.5018,0.5323,0.6163,0.6163,0.586,0.5096,0.5783,0.624,0.624,0.7855,0.8703,0.8703,0.9685,1.0067,0.9922,1.0067,1.0067,-1.7881,-1.7051,-1.6289,-1.5728,-1.5807,-1.5781,-1.4915,-1.5806,-1.665,-1.6049,-1.6247,-1.6959,-1.8087,0.0,0.0,0.0,0.0,0.0,0.0,0.0,0.0,0.0,0.0,0.0,0.0,0.0,0.0,0.0,0.0,0.0,0.0,0.0,0.0,0.0,0.0,0.0,0.0,0.0,-1.7679,-1.7469,-1.6048,-1.559,-1.5974,-1.5827,-1.5227,-1.4213,-1.3225,-1.2211,-1.1235,-0.97,-0.859,-0.778,-0.7026,-0.6335,-0.58,-0.58,-0.5512,-0.5162,-0.5134,-0.3974,-0.236,-0.1709,-0.082,-0.0,-0.0,-0.0,-0.0,-0.0,-0.0,-0.0,-0.0,-0.0,-0.0,-0.0,-0.0,-0.0,-0.0,-0.0,-0.0,-0.0,-0.0,-0.0,-0.0,0.199,0.3857,0.4878,0.4008,0.3684,0.4867,0.5021,0.5018,0.5018,0.5018,0.5018,0.5018,0.5018,0.5323,0.6163,0.6163,0.6395,0.6777,0.7003,0.7387,0.7931,0.847,0.9008,0.9539,0.9841,0.9992,0.9922,0.9992,0.9992,-1.6922,-1.6088,-1.5321,-1.484,-1.4911,-1.4982,-1.4705,-1.5283,-1.591,-1.6079,-1.6279,-1.6887,-1.8158,0.0,0.0,0.0,0.0,0.0,0.0,0.0,0.0,0.0,0.0,0.0,0.0,0.0,0.0,0.0,0.0,0.0,0.0,0.0,0.0,0.0,0.0,0.0,0.0,0.0,0.0,-1.6402,-1.5351,-1.5055,-1.5364,-1.5087,-1.4504,-1.3708,-1.221,-1.1311,-1.0672,-0.8803,-0.7851,-0.7497,-0.6499,-0.5884,-0.5554,-0.5627,-0.5348,-0.4935,-0.4856,-0.4158,-0.2873,-0.0726,-0.0,-0.0,-0.0,-0.0,-0.0,-0.0,-0.0,-0.0,-0.0,-0.0,-0.0,-0.0,-0.0,-0.0,-0.0,-0.0,-0.0,-0.0,0.0948,0.1686,0.1712,0.3011,0.427,0.4884,0.4135,0.3837,0.4859,0.5018,0.5018,0.5018,0.5018,0.5093,0.5476,0.5476,0.5938,0.7088,0.7161,0.7544,0.8385,0.8156,0.8237,0.8699,0.9008,0.9387,0.9922,0.9922,0.9922,0.9922,0.9922,0.9997,-1.614,-1.5251,-1.4497,-1.4361,-1.4353,-1.4697,-1.572,-1.5222,-1.4945,-1.6004,0.0,-1.6505,-1.775,0.0,0.0,0.0,0.0,0.0,0.0,0.0,0.0,0.0,0.0,0.0,0.0,0.0,0.0,0.0,0.0,0.0,0.0,0.0,0.0,0.0,0.0,0.0,0.0,0.0,0.0,0.0,-1.4706,-1.4606,-1.4455,-1.401,-1.3312,-1.2389,-1.0787,-0.9983,-0.967,-0.8107,-0.7451,-0.7256,-0.6017,-0.5355,-0.5153,-0.5292,-0.5093,-0.4643,-0.4774,-0.4474,-0.3718,-0.122,-0.0217,-0.0,-0.0,-0.0,-0.0,-0.0,-0.0,-0.0,-0.0,-0.0,-0.0,-0.0,-0.0,-0.0,-0.0,-0.0,0.0073,0.0362,0.2537,0.4297,0.4305,0.3411,0.3236,0.4779,0.5018,0.5004,0.5015,0.5018,0.5018,0.5018,0.5018,0.5323,0.6163,0.6163,0.6934,0.8623,0.8703,0.9084,0.9846,0.9236,0.8775,0.8775,0.9539,0.9922,0.9922,0.9922,0.9922,0.9922,0.9922,0.9922,-1.5455,-1.4689,-1.4137,-1.4008,-1.4274,-1.468,-1.5171,-1.5358,-1.567,-1.6847,-1.6826,-1.7086,0.0,0.0,0.0,0.0,0.0,0.0,0.0,0.0,0.0,0.0,0.0,0.0,0.0,0.0,0.0,0.0,0.0,0.0,0.0,0.0,0.0,0.0,0.0,0.0,-1.7865,-1.6662,-1.6026,0.0,-1.502,-1.4506,-1.4515,-1.4387,-1.3511,-1.2074,-1.1142,-1.0345,-0.9478,-0.8624,-0.7907,-0.7321,-0.6535,-0.5745,-0.5153,-0.5292,-0.5093,-0.4634,-0.4876,-0.3934,-0.2646,-0.3219,-0.1851,-0.0,-0.0,-0.0,-0.0,-0.0,-0.0,-0.0,-0.0,-0.0,-0.0,-0.0,-0.0,-0.0,-0.0,-0.0,0.0703,0.2964,0.3851,0.4296,0.431,0.4194,0.4262,0.4737,0.486,0.4909,0.5004,0.5018,0.5018,0.5018,0.5018,0.5323,0.6163,0.6163,0.6934,0.8623,0.8703,0.9084,0.9846,0.9765,0.9614,0.9614,0.9841,0.9922,0.9922,0.9922,0.9922,0.9922,0.9922,0.9992,-1.5525,-1.4697,-1.4281,-1.4281,-1.476,-1.5263,-1.5843,-1.6248,-1.6683,-1.7521,-1.7178,0.0,0.0,0.0,0.0,0.0,0.0,0.0,0.0,0.0,0.0,0.0,0.0,0.0,0.0,0.0,0.0,0.0,0.0,0.0,0.0,0.0,0.0,0.0,0.0,0.0,-1.7224,-1.6036,-1.5468,-1.541,-1.4793,-1.4515,-1.4506,-1.4198,-1.2948,-1.1031,-1.1017,-1.0401,-0.942,-0.8753,-0.8037,-0.7321,-0.6662,-0.5811,-0.4957,-0.5156,-0.4894,-0.45,-0.4782,-0.3699,-0.2149,-0.2223,-0.1213,-0.0,-0.0,-0.0,-0.0,-0.0,-0.0,-0.0,-0.0,-0.0,-0.0,-0.0,-0.0,-0.0,-0.0,0.1102,0.247,0.3999,0.4322,0.4333,0.4324,0.4444,0.4539,0.4719,0.4798,0.4857,0.492,0.498,0.5018,0.5018,0.5323,0.5935,0.6777,0.7161,0.7927,0.9231,0.9311,0.9463,0.9916,0.9922,0.9922,0.9922,0.9922,0.9922,0.9922,0.9922,0.9922,0.9922,0.9922,0.9916,-1.5807,-1.4911,-1.4353,-1.476,-1.5251,-1.5877,-1.6724,-1.7187,-1.75,-1.793,0.0,0.0,0.0,0.0,0.0,0.0,0.0,0.0,0.0,0.0,0.0,0.0,0.0,0.0,0.0,0.0,0.0,0.0,0.0,0.0,0.0,0.0,0.0,0.0,0.0,-1.6325,-1.6196,-1.508,-1.4529,-1.4529,-1.4354,-1.4236,-1.4119,-1.3679,-1.2348,-1.0351,-1.0717,-1.0345,-0.942,-0.8753,-0.8037,-0.7321,-0.6662,-0.5745,-0.4831,-0.5024,-0.4761,-0.4367,-0.4651,-0.3632,-0.1879,-0.0471,-0.0,-0.0,-0.0,-0.0,-0.0,-0.0,-0.0,-0.0,-0.0,-0.0,-0.0,-0.0,0.0404,0.0741,0.0741,0.2631,0.4327,0.4325,0.4311,0.43,0.43,0.4379,0.4482,0.4676,0.4708,0.4787,0.4828,0.4996,0.5223,0.5246,0.5935,0.6777,0.7617,0.8313,0.9079,0.9841,0.9922,0.9922,0.9922,0.9922,0.9922,0.9922,0.9922,0.9922,0.9922,0.9922,0.9922,0.9922,0.9922,0.9916,-1.5877,-1.4697,-1.4,-1.4545,-1.5171,-1.5877,-1.6724,-1.7187,-1.75,0.0,0.0,0.0,0.0,0.0,0.0,0.0,0.0,0.0,0.0,0.0,0.0,0.0,0.0,0.0,0.0,0.0,0.0,0.0,0.0,0.0,0.0,0.0,-1.8177,-1.7496,-1.7104,0.0,-1.5866,-1.5004,-1.4576,-1.4576,-1.3836,-1.3166,-1.2582,-1.311,-1.277,-1.164,-1.0604,-0.9919,-0.942,-0.8753,-0.8037,-0.7321,-0.6662,-0.5745,-0.4831,-0.5024,-0.4891,-0.4561,-0.4706,-0.356,-0.1878,-0.047,-0.0,-0.0,-0.0,-0.0,-0.0,-0.0,-0.0,-0.0,-0.0,-0.0,-0.0,-0.0,0.1887,0.3715,0.3715,0.4056,0.4325,0.4308,0.4303,0.43,0.43,0.4314,0.4363,0.4477,0.4507,0.4594,0.4809,0.5442,0.5947,0.5999,0.6777,0.7617,0.847,0.8623,0.9079,0.9841,0.9922,0.9922,0.9922,0.9922,0.9922,0.9922,0.9922,0.9922,0.9922,0.9922,0.9922,0.9922,0.9922,1.0143,-1.5816,-1.4911,-1.4553,-1.5108,-1.5807,-1.6585,-1.7364,-1.7649,-1.7793,0.0,0.0,0.0,0.0,0.0,0.0,0.0,0.0,0.0,0.0,0.0,0.0,0.0,0.0,0.0,0.0,0.0,0.0,0.0,0.0,0.0,0.0,-1.816,-1.7588,-1.6908,-1.6262,0.0,-1.5414,-1.4609,-1.4077,-1.3873,-1.3504,-1.3177,-1.2831,-1.2444,-1.176,-1.0871,-1.0625,-0.998,-0.8979,-0.8493,-0.7853,-0.7168,-0.662,-0.5811,-0.4957,-0.4957,-0.4827,-0.4697,-0.4712,-0.4108,-0.2958,-0.074,-0.0,-0.0,-0.0,-0.0,-0.0,-0.0,-0.0,-0.0,-0.0,-0.0,0.0404,0.2022,0.3374,0.4325,0.4314,0.4314,0.4311,0.4303,0.43,0.43,0.43,0.43,0.4317,0.4368,0.4428,0.4647,0.5114,0.5627,0.6096,0.6625,0.7463,0.8187,0.8689,0.9084,0.9539,0.9846,0.9922,0.9922,0.9922,0.9922,0.9922,0.9922,0.9922,0.9922,0.9922,0.9922,0.9922,0.9922,1.0218,1.0663,-1.6167,-1.5542,-1.5392,-1.5886,-1.6446,-1.7079,-1.7794,0.0,0.0,0.0,0.0,0.0,0.0,0.0,0.0,0.0,0.0,0.0,0.0,0.0,0.0,0.0,0.0,0.0,0.0,0.0,0.0,0.0,0.0,0.0,-1.8093,-1.7527,-1.6999,-1.655,-1.5612,-1.512,-1.512,-1.4548,-1.397,-1.3459,-1.3348,-1.3238,-1.3131,-1.2095,-1.1052,-0.9995,-1.0364,-0.987,-0.8751,-0.8221,-0.7624,-0.6963,-0.6454,-0.5814,-0.5042,-0.4882,-0.4834,-0.4837,-0.4579,-0.4517,-0.4113,-0.1414,-0.027,-0.0,-0.0,-0.0,-0.0,-0.0,-0.0,0.0202,0.0876,0.1078,0.155,0.3305,0.4048,0.4317,0.4303,0.43,0.43,0.43,0.43,0.43,0.43,0.43,0.43,0.43,0.4374,0.4711,0.5428,0.5811,0.6297,0.726,0.8079,0.8607,0.8905,0.9456,0.9857,0.9916,0.9922,0.9922,0.9922,0.9922,0.9997,1.0143,1.0143,1.0067,0.9922,1.0067,1.0067,0.9916,1.0588,1.1186,-1.7413,-1.6784,-1.6306,-1.6724,-1.6862,-1.7079,0.0,0.0,0.0,0.0,0.0,0.0,0.0,0.0,0.0,0.0,0.0,0.0,0.0,0.0,0.0,0.0,0.0,0.0,0.0,0.0,0.0,0.0,0.0,0.0,-1.8093,-1.7089,-1.6569,-1.6669,-1.5686,-1.5099,-1.5099,-1.5118,-1.4756,-1.399,-1.3565,-1.3157,-1.2733,-1.2255,-1.131,-1.0,-0.9518,-0.9195,-0.8915,-0.8043,-0.7389,-0.6745,-0.6204,-0.5586,-0.4913,-0.4847,-0.4903,-0.4846,-0.3892,-0.4375,-0.5001,-0.2693,-0.1078,-0.0,-0.0,-0.0,-0.0,-0.0,-0.0,0.0607,0.3374,0.4056,0.378,0.2485,0.3291,0.4303,0.43,0.43,0.43,0.43,0.43,0.43,0.43,0.43,0.43,0.43,0.4306,0.4616,0.5415,0.6203,0.7034,0.7858,0.8654,0.9253,0.9499,0.9599,0.969,0.9906,0.9922,0.9922,0.9922,0.9922,1.0143,1.0738,1.0738,1.0443,0.9922,1.0443,1.0438,0.9916,1.0887,1.1694,-1.7285,-1.7079,-1.6881,-1.6872,-1.7295,-1.7657,-1.794,-1.793,0.0,0.0,0.0,0.0,0.0,0.0,0.0,0.0,0.0,0.0,0.0,0.0,0.0,0.0,0.0,0.0,0.0,0.0,0.0,0.0,0.0,0.0,-1.8655,-1.7674,-1.7123,-1.7144,-1.6115,-1.5416,-1.5158,-1.5581,-1.5205,-1.399,-1.3835,-1.3394,-1.2663,-1.2207,-1.1541,-1.0761,-0.9703,-0.8832,-0.8244,-0.7665,-0.7092,-0.6478,-0.6073,-0.5478,-0.483,-0.4327,-0.4573,-0.4854,-0.3205,-0.384,-0.4867,-0.1751,-0.0404,-0.0,-0.0,-0.0,-0.0,-0.0,0.1348,0.2969,0.4056,0.4325,0.418,0.3627,0.3897,0.43,0.43,0.43,0.43,0.43,0.43,0.43,0.43,0.43,0.43,0.43,0.4691,0.5233,0.5952,0.6768,0.7583,0.848,0.8848,0.9082,0.9319,0.934,0.9443,0.9685,0.9701,0.9766,0.9916,1.0293,1.0588,1.0812,1.1558,1.1632,1.1037,1.0887,1.0887,1.1037,1.1694,1.2425,-1.7491,-1.7364,-1.7157,-1.7148,-1.7579,-1.794,-1.7881,0.0,0.0,0.0,0.0,0.0,0.0,0.0,0.0,0.0,0.0,0.0,0.0,0.0,0.0,0.0,0.0,0.0,0.0,0.0,0.0,0.0,0.0,0.0,-1.8655,-1.7852,-1.7243,-1.6893,-1.6498,-1.6196,-1.5964,-1.6474,-1.6135,-1.4879,-1.4587,-1.3994,-1.3066,-1.2466,-1.1896,-1.1345,-1.0081,-0.9099,-0.8281,-0.7521,-0.686,-0.6271,-0.5885,-0.537,-0.48,-0.4258,-0.4244,-0.4325,-0.2952,-0.2986,-0.3257,-0.1074,-0.0202,-0.0,-0.0,-0.0,0.0202,0.1146,0.2834,0.4327,0.4325,0.4317,0.4308,0.4303,0.43,0.43,0.43,0.43,0.43,0.43,0.43,0.43,0.43,0.43,0.4367,0.4628,0.5017,0.5672,0.6662,0.7195,0.7841,0.866,0.8748,0.884,0.9071,0.9093,0.9265,0.973,0.9818,0.9935,1.001,1.0691,1.1111,1.1111,1.2077,1.2599,1.2512,1.1781,1.1484,1.1706,1.2425,1.3375,0.0,0.0,0.0,-1.7569,0.0,0.0,-1.7539,0.0,0.0,0.0,0.0,0.0,0.0,0.0,0.0,0.0,0.0,0.0,0.0,0.0,0.0,0.0,0.0,0.0,0.0,0.0,0.0,0.0,0.0,-1.8093,-1.8147,-1.7689,-1.6977,-1.5893,-1.6869,-1.7424,-1.7436,-1.7903,-1.7644,-1.6676,-1.5766,-1.4851,-1.3912,-1.3101,-1.2298,-1.157,-1.0574,-0.9814,-0.9106,-0.7723,-0.6756,-0.6173,-0.5758,-0.5258,-0.4701,-0.461,-0.4047,-0.3326,-0.3308,-0.1863,-0.0129,-0.0867,-0.0606,-0.0,-0.0,0.0067,0.0741,0.352,0.4268,0.4258,0.4317,0.4308,0.43,0.43,0.43,0.43,0.43,0.43,0.43,0.43,0.43,0.43,0.43,0.43,0.4561,0.5213,0.5342,0.587,0.7326,0.7526,0.7787,0.8447,0.8517,0.8608,0.8834,0.8918,0.9225,0.9956,1.0284,1.0431,1.0353,1.1261,1.1706,1.1706,1.2298,1.3112,1.4129,1.3112,1.2305,1.1855,1.3164,1.4474,-1.6376,0.0,0.0,0.0,0.0,0.0,0.0,0.0,0.0,0.0,0.0,0.0,0.0,0.0,0.0,0.0,0.0,0.0,0.0,0.0,0.0,0.0,0.0,0.0,0.0,0.0,0.0,0.0,0.0,-1.7854,-1.8709,-1.8597,-1.815,-1.7503,-1.8111,-1.8282,-1.7891,-1.847,-1.805,-1.6606,-1.6377,-1.5588,-1.4364,-1.3487,-1.26,-1.1737,-1.0277,-0.9465,-0.9106,-0.8262,-0.7241,-0.6213,-0.6055,-0.5413,-0.4485,-0.4048,-0.3983,-0.4062,-0.3142,-0.1619,-0.0063,-0.0258,-0.0522,-0.0722,-0.0134,0.1484,0.3246,0.4061,0.3507,0.2958,0.4036,0.4303,0.43,0.43,0.43,0.43,0.43,0.4691,0.4888,0.4364,0.43,0.43,0.43,0.4691,0.508,0.5276,0.6199,0.706,0.7456,0.7922,0.8317,0.8447,0.8517,0.8544,0.8603,0.8608,0.8904,0.9676,1.0002,1.0443,1.0916,1.1846,1.2378,1.2378,1.2973,1.3557,1.4129,1.339,1.3317,1.3833,1.4474,1.5133,-1.5525,-1.5824,-1.6044,0.0,0.0,0.0,-1.7263,-1.7107,0.0,0.0,0.0,0.0,0.0,0.0,0.0,0.0,0.0,0.0,0.0,0.0,0.0,0.0,0.0,0.0,0.0,0.0,0.0,0.0,-1.7056,-1.7585,-1.8542,-1.8792,-1.8545,-1.7748,-1.8493,-1.8729,-1.8424,-1.9002,-1.8632,-1.7324,-1.7045,-1.6177,-1.4859,-1.4137,-1.3286,-1.2369,-1.069,-0.9836,-0.9458,-0.8309,-0.7187,-0.6154,-0.5664,-0.5062,-0.4473,-0.4103,-0.4023,-0.3992,-0.3587,-0.2596,-0.1336,-0.0313,-0.0511,-0.1037,-0.0593,0.0935,0.2771,0.3991,0.3713,0.3228,0.41,0.43,0.43,0.43,0.4498,0.4691,0.4691,0.5282,0.5543,0.4821,0.4957,0.5153,0.5153,0.5477,0.587,0.6199,0.6929,0.7591,0.7852,0.8252,0.8576,0.8829,0.8641,0.8582,0.8829,0.8829,0.919,0.9892,1.0511,1.1064,1.1559,1.2508,1.2893,1.2599,1.3193,1.3783,1.4281,1.3833,1.4042,1.4848,1.5062,1.5426,-1.4966,-1.5117,-1.5196,0.0,0.0,0.0,-1.6978,-1.6751,0.0,0.0,0.0,0.0,0.0,0.0,0.0,0.0,0.0,0.0,0.0,0.0,0.0,0.0,0.0,0.0,0.0,0.0,0.0,-1.6775,-1.7013,-1.741,-1.8065,-1.8613,-1.844,-1.7505,-1.8419,-1.8937,-1.8989,-1.9533,-1.9319,-1.834,-1.7841,-1.6789,-1.5323,-1.4904,-1.4183,-1.3168,-1.1494,-1.0439,-0.9859,-0.8037,-0.6853,-0.61,-0.5007,-0.4574,-0.4519,-0.4408,-0.3965,-0.3485,-0.4062,-0.3931,-0.3067,-0.0911,-0.0563,-0.096,-0.0964,-0.0525,0.0537,0.3107,0.3991,0.4118,0.4169,0.4233,0.4298,0.4348,0.4866,0.5315,0.536,0.5959,0.6302,0.5647,0.599,0.64,0.64,0.6465,0.6728,0.7391,0.7591,0.7852,0.8452,0.8576,0.877,0.9274,0.8894,0.8835,0.9332,0.9338,0.9639,1.0554,1.133,1.1916,1.2205,1.3028,1.3273,1.2673,1.3339,1.3928,1.4569,1.4418,1.4633,1.5275,1.5275,1.5426,0.0,0.0,0.0,0.0,0.0,0.0,-1.676,-1.6621,-1.6342,0.0,0.0,0.0,0.0,0.0,0.0,0.0,0.0,0.0,0.0,0.0,0.0,0.0,0.0,0.0,0.0,0.0,-1.508,-1.5843,-1.739,-1.8283,-1.8099,-1.8618,-1.8988,-1.9131,-1.8975,-1.9073,-1.9456,-1.9711,-1.9488,-1.8869,-1.8762,-1.7918,-1.6384,-1.5563,-1.4436,-1.3037,-1.117,-1.0154,-0.9703,-0.811,-0.6956,-0.6154,-0.5445,-0.4897,-0.4463,-0.3959,-0.3683,-0.3522,-0.3046,-0.2715,-0.2333,-0.1644,-0.0895,-0.0241,-0.0185,-0.0127,0.0131,0.0669,0.1947,0.3153,0.3151,0.3756,0.4408,0.4755,0.498,0.5135,0.5562,0.6333,0.6895,0.6763,0.6561,0.64,0.64,0.6863,0.7326,0.7456,0.7987,0.8382,0.8511,0.8894,0.921,0.9274,0.921,0.9332,0.9831,0.9524,0.9833,1.1041,1.1546,1.2123,1.2783,1.3244,1.3419,1.3346,1.3992,1.4425,1.4569,1.515,1.5505,1.5655,1.5655,1.5726,0.0,0.0,0.0,-1.4106,0.0,0.0,0.0,-1.6053,-1.6053,0.0,0.0,0.0,0.0,0.0,0.0,0.0,0.0,0.0,0.0,0.0,0.0,0.0,0.0,0.0,0.0,0.0,-1.4025,-1.4845,-1.697,-1.8084,-1.7749,-1.8478,-1.8993,-1.9155,-1.8909,-1.9177,-1.9921,-2.0307,-2.026,-1.9773,-1.9773,-1.885,-1.7002,-1.63,-1.5193,-1.3732,-1.185,-1.0718,-1.006,-0.833,-0.7062,-0.6154,-0.5555,-0.4783,-0.4015,-0.3738,-0.3236,-0.2681,-0.2406,-0.1961,-0.1461,-0.1028,-0.0465,-0.0,-0.0,0.0863,0.1773,0.1798,0.2145,0.2625,0.3351,0.3921,0.44,0.491,0.5251,0.5645,0.6082,0.6852,0.7517,0.7628,0.7482,0.7329,0.7437,0.7972,0.8301,0.8052,0.8506,0.8835,0.8517,0.8958,0.9396,0.9646,0.9646,0.9837,1.0345,1.0161,1.0477,1.1457,1.1899,1.247,1.3228,1.3411,1.3564,1.3775,1.4353,1.4713,1.4919,1.5505,1.5805,1.5805,1.5805,1.5805,0.0,0.0,0.0,0.0,0.0,-1.5259,0.0,0.0,0.0,0.0,0.0,0.0,0.0,0.0,0.0,0.0,0.0,0.0,0.0,0.0,0.0,0.0,0.0,0.0,0.0,0.0,-1.3086,-1.4025,-1.6342,-1.7571,-1.7345,-1.8313,-1.8871,-1.88,-1.8843,-1.9319,-2.0189,-2.0751,-2.09,-2.0695,-2.0598,-1.961,-1.785,-1.728,-1.6262,-1.4883,-1.307,-1.1784,-1.0849,-0.8788,-0.7305,-0.6261,-0.5563,-0.4673,-0.3738,-0.3514,-0.2792,-0.1958,-0.1903,-0.1456,-0.0785,-0.028,-0.0057,0.0058,0.0529,0.2038,0.362,0.3581,0.3088,0.2764,0.406,0.4409,0.4653,0.5188,0.577,0.6269,0.6702,0.7277,0.779,0.7978,0.8148,0.8289,0.8597,0.9022,0.921,0.8829,0.9081,0.9145,0.8829,0.9145,0.9646,1.0085,1.0148,1.0345,1.0926,1.087,1.1125,1.188,1.2323,1.2811,1.347,1.3492,1.371,1.4057,1.4425,1.4776,1.5204,1.5576,1.5805,1.5805,1.5805,1.5805,0.0,0.0,0.0,0.0,-1.3528,0.0,0.0,0.0,0.0,0.0,0.0,-1.4713,-1.4713,0.0,0.0,0.0,0.0,0.0,0.0,0.0,0.0,0.0,0.0,0.0,0.0,0.0,0.0,-1.3708,-1.5918,-1.7158,-1.6971,-1.8199,-1.8999,-1.9208,-1.9408,-1.9639,-1.9944,-2.0175,-2.0592,-2.1129,-2.0642,-2.0132,-1.9597,-1.8561,-1.7533,-1.6357,-1.445,-1.3098,-1.2208,-0.9778,-0.7996,-0.6736,-0.5724,-0.4952,-0.4294,-0.3181,-0.2736,-0.2458,-0.14,-0.0953,-0.0842,-0.0449,-0.0169,0.0397,0.257,0.3372,0.3582,0.362,0.3726,0.4126,0.5081,0.5243,0.5401,0.628,0.656,0.6693,0.6981,0.7277,0.7442,0.7469,0.7865,0.8408,0.9099,0.9274,0.9396,0.9767,0.9518,0.946,0.9767,0.9894,1.0148,1.0674,1.0737,1.0926,1.1435,1.1059,1.1254,1.2347,1.2451,1.2811,1.347,1.3492,1.371,1.4057,1.4425,1.4776,1.5204,1.5576,1.5805,1.5805,1.5805,1.5805,0.0,0.0,0.0,0.0,0.0,0.0,-1.331,0.0,-1.397,0.0,0.0,0.0,0.0,0.0,0.0,0.0,0.0,0.0,0.0,0.0,0.0,0.0,0.0,0.0,0.0,0.0,0.0,0.0,0.0,-1.6306,-1.6465,-1.7804,-1.8801,-1.9302,-1.9382,-1.9738,-2.0371,-2.044,-2.0688,-2.1012,-2.0564,-2.0105,-1.968,-1.837,-1.7396,-1.661,-1.484,-1.3301,-1.2081,-1.0501,-0.8725,-0.6905,-0.5941,-0.4689,-0.3403,-0.2903,-0.2235,-0.1567,-0.1065,-0.0898,-0.0729,0.0505,0.1403,0.214,0.2452,0.3033,0.3618,0.3611,0.4,0.4537,0.5044,0.5486,0.5886,0.6745,0.6796,0.6806,0.7196,0.7262,0.7334,0.7751,0.8119,0.8739,0.968,0.98,0.9773,0.9952,1.0098,1.0098,1.0021,1.0281,1.0541,1.0807,1.1059,1.1373,1.156,1.1373,1.1646,1.2482,1.3078,1.3484,1.3484,1.392,1.4209,1.4425,1.4776,1.5141,1.5576,1.5726,1.5938,1.6272,1.5938,1.5805,-1.2327,0.0,0.0,0.0,0.0,0.0,0.0,0.0,0.0,0.0,0.0,0.0,0.0,0.0,-1.4537,0.0,0.0,0.0,0.0,0.0,0.0,0.0,0.0,0.0,0.0,0.0,0.0,0.0,0.0,0.0,-1.585,-1.7348,-1.8462,-1.9134,-1.9398,-1.9843,-2.0448,-2.0437,-2.0561,-2.0823,-2.0384,-2.0041,-1.9754,-1.8363,-1.7439,-1.6807,-1.529,-1.3749,-1.2123,-1.1063,-0.9402,-0.737,-0.6015,-0.4454,-0.299,-0.2577,-0.1789,-0.0897,-0.0897,-0.0729,-0.028,0.1121,0.2471,0.3436,0.2577,0.291,0.3638,0.3805,0.4235,0.4721,0.5348,0.5879,0.6517,0.7212,0.7172,0.7126,0.7488,0.7417,0.7458,0.8074,0.8492,0.9082,1.0073,1.0232,1.0281,1.0401,1.0667,1.0737,1.0471,1.0667,1.087,1.0989,1.1373,1.1622,1.1622,1.1622,1.1838,1.2482,1.3479,1.3992,1.371,1.4281,1.4713,1.4991,1.5133,1.5488,1.6,1.6,1.6202,1.6603,1.607,1.5867,0.0,0.0,0.0,-1.1576,0.0,0.0,0.0,0.0,-1.2224,0.0,0.0,0.0,0.0,-1.4274,-1.4458,-1.4188,-1.4348,0.0,0.0,0.0,0.0,0.0,0.0,0.0,0.0,0.0,0.0,0.0,0.0,0.0,-1.4904,-1.677,-1.8108,-1.8697,-1.9656,-2.009,-1.9922,-1.9797,-2.0064,-2.0714,-2.0162,-2.0041,-2.023,-1.9163,-1.8188,-1.7301,-1.6267,-1.4772,-1.2866,-1.1301,-0.9806,-0.8225,-0.5848,-0.4486,-0.371,-0.2315,-0.1454,-0.0894,-0.0897,-0.028,0.0617,0.0838,0.2127,0.3596,0.353,0.3583,0.3749,0.4298,0.4515,0.4955,0.6424,0.6932,0.7279,0.7959,0.7968,0.7848,0.8051,0.7851,0.783,0.8275,0.882,0.9376,0.9932,1.0417,1.0926,1.1498,1.1122,1.0996,1.1498,1.1122,1.0996,1.1498,1.156,1.1622,1.1622,1.1622,1.1838,1.2482,1.3479,1.4057,1.4057,1.4418,1.5062,1.5974,1.548,1.5621,1.6533,1.6533,1.6603,1.6603,1.607,1.607,0.0,0.0,-1.004,-1.0374,0.0,0.0,0.0,0.0,0.0,0.0,0.0,0.0,0.0,-1.3331,-1.344,-1.3331,-1.3411,-1.344,0.0,0.0,0.0,0.0,0.0,0.0,0.0,0.0,0.0,0.0,0.0,0.0,0.0,-1.5898,-1.7211,-1.8224,-1.9249,-1.985,-1.9883,-1.9861,-1.99,-2.0034,-1.9315,-1.9214,-1.96,-1.8315,-1.7607,-1.7333,-1.5864,-1.4291,-1.2606,-1.1188,-0.916,-0.6829,-0.5376,-0.3687,-0.1921,-0.14,-0.0798,-0.0224,0.0168,0.0783,0.1455,0.1679,0.2575,0.3699,0.4079,0.419,0.4298,0.4901,0.5325,0.5832,0.6684,0.725,0.769,0.8249,0.8091,0.7951,0.8433,0.8232,0.819,0.8942,0.9907,1.0565,1.0415,1.1234,1.1849,1.1622,1.1435,1.1373,1.156,1.1435,1.1498,1.1872,1.1747,1.1685,1.1941,1.2326,1.274,1.3168,1.4584,1.5054,1.4489,1.5762,1.6324,1.5974,1.6464,1.6811,1.7097,1.7097,1.7304,1.7716,1.7107,1.676,-0.8092,-0.8383,0.0,0.0,-0.9261,0.0,-0.9999,0.0,0.0,0.0,0.0,0.0,0.0,0.0,-1.2204,-1.2352,-1.2586,-1.2666,0.0,-1.2599,0.0,0.0,0.0,0.0,0.0,0.0,0.0,0.0,-1.2158,0.0,0.0,0.0,-1.6332,-1.7809,-1.892,-1.964,-1.9931,-1.9758,-1.9696,-1.969,-1.9049,-1.8829,-1.8971,-1.8078,-1.7454,-1.7015,-1.5493,-1.3962,-1.2362,-1.091,-0.8789,-0.6364,-0.5056,-0.3271,-0.138,-0.0817,-0.0171,0.0448,0.123,0.1845,0.2345,0.2736,0.3461,0.4298,0.468,0.4791,0.4912,0.5575,0.6096,0.6593,0.7413,0.7974,0.8454,0.8897,0.8628,0.8498,0.9124,0.8903,0.8817,0.9769,1.0833,1.1471,1.1318,1.2228,1.2634,1.174,1.1802,1.1919,1.1919,1.1919,1.2042,1.2359,1.2166,1.2166,1.2482,1.3107,1.3635,1.3842,1.5206,1.5833,1.5409,1.6673,1.7235,1.6811,1.7235,1.752,1.7716,1.7716,1.793,1.8269,1.8124,1.7716]},{"header":{"parameterUnit":"m.s-1","parameterCategory":1,"la1":30.6,"la2":29.2853,"lo1":-89.7004,"lo2":-87.6739,"dy":0.0162,"dx":0.0183,"nx":112,"ny":82,"refTime":"2023-05-29T12:00:00:Z","depth":0,"parameterNumber":3,"parameterNumberName":"V-component_of_WINDS"},"data":[0.0,0.0,0.0,0.0,0.0,0.0,0.0,0.0,0.0,0.0,0.0,0.0,0.0,0.0,0.0,0.0,0.0,0.0,0.0,0.0,0.0,0.0,0.0,0.0,0.0,0.0,0.0,0.0,0.0,0.0,0.0,0.0,0.0,0.0,0.0,0.0,0.0,0.0,0.0,0.0,0.0,0.0,0.0,0.0,0.0,0.0,0.0,0.0,0.0,0.0,0.0,0.0,0.0,0.0,0.0,0.0,0.0,0.0,0.0,0.0,0.0,0.0,0.0,0.0,0.0,0.0,0.0,0.0,0.0,0.0,0.0,0.0,0.0,0.0,0.0,0.0,0.0,0.0,0.0,0.0,0.0,0.0,0.0,0.0,0.0,0.0,0.0,0.0,0.0,0.0,0.0,-3.5038,-3.4982,-3.4851,-3.4634,-3.4812,-3.4091,-3.2069,0.0,0.0,0.0,0.0,0.0,0.0,0.0,0.0,0.0,0.0,0.0,0.0,0.0,0.0,0.0,0.0,0.0,0.0,0.0,0.0,0.0,0.0,0.0,0.0,0.0,0.0,0.0,0.0,0.0,0.0,0.0,0.0,0.0,0.0,0.0,0.0,0.0,0.0,0.0,0.0,0.0,0.0,0.0,0.0,0.0,0.0,0.0,0.0,0.0,0.0,0.0,0.0,0.0,0.0,0.0,0.0,0.0,0.0,0.0,0.0,0.0,0.0,0.0,0.0,0.0,0.0,0.0,0.0,0.0,0.0,0.0,0.0,0.0,0.0,0.0,0.0,0.0,0.0,0.0,0.0,0.0,0.0,0.0,0.0,0.0,0.0,0.0,0.0,0.0,0.0,0.0,0.0,0.0,0.0,0.0,0.0,0.0,0.0,0.0,0.0,0.0,0.0,0.0,0.0,-3.4851,-3.5141,-3.5157,-3.5141,-3.5107,-3.5124,-3.4564,-3.3154,0.0,0.0,0.0,0.0,0.0,0.0,0.0,0.0,0.0,0.0,0.0,0.0,0.0,0.0,0.0,0.0,0.0,0.0,0.0,0.0,0.0,0.0,0.0,0.0,0.0,0.0,0.0,0.0,0.0,0.0,0.0,0.0,0.0,0.0,0.0,0.0,0.0,0.0,0.0,0.0,0.0,0.0,0.0,0.0,0.0,0.0,0.0,0.0,0.0,0.0,0.0,0.0,0.0,0.0,0.0,0.0,0.0,0.0,0.0,0.0,0.0,0.0,0.0,0.0,0.0,0.0,0.0,0.0,0.0,0.0,0.0,0.0,0.0,0.0,0.0,0.0,0.0,0.0,0.0,0.0,0.0,0.0,0.0,0.0,0.0,0.0,0.0,0.0,0.0,0.0,0.0,0.0,0.0,0.0,0.0,0.0,0.0,0.0,0.0,0.0,0.0,0.0,0.0,-3.4753,-3.5089,-3.5245,-3.5226,-3.5209,-3.5209,-3.5209,-3.4656,-3.3385,-3.2519,0.0,0.0,0.0,0.0,0.0,0.0,0.0,0.0,0.0,0.0,0.0,0.0,0.0,0.0,0.0,0.0,0.0,0.0,0.0,0.0,0.0,0.0,0.0,0.0,0.0,0.0,0.0,0.0,0.0,0.0,0.0,0.0,0.0,0.0,0.0,0.0,0.0,0.0,0.0,0.0,0.0,0.0,0.0,0.0,0.0,0.0,0.0,0.0,0.0,0.0,0.0,0.0,0.0,0.0,0.0,0.0,0.0,0.0,0.0,0.0,0.0,0.0,0.0,0.0,0.0,0.0,0.0,0.0,0.0,0.0,0.0,0.0,0.0,0.0,0.0,0.0,0.0,0.0,0.0,0.0,0.0,0.0,0.0,0.0,0.0,0.0,0.0,0.0,0.0,0.0,0.0,0.0,0.0,0.0,0.0,0.0,0.0,0.0,0.0,0.0,0.0,0.0,-3.5304,-3.5308,-3.5308,-3.5258,-3.5207,-3.5226,-3.5226,-3.475,-3.3648,-3.2652,0.0,0.0,0.0,0.0,0.0,0.0,0.0,0.0,0.0,0.0,0.0,0.0,0.0,0.0,0.0,0.0,0.0,0.0,0.0,0.0,0.0,0.0,0.0,0.0,0.0,0.0,0.0,0.0,0.0,0.0,0.0,0.0,0.0,0.0,0.0,0.0,0.0,0.0,0.0,0.0,0.0,0.0,0.0,0.0,0.0,0.0,0.0,0.0,0.0,0.0,0.0,0.0,0.0,0.0,0.0,0.0,0.0,0.0,0.0,0.0,0.0,0.0,0.0,0.0,0.0,0.0,0.0,0.0,0.0,0.0,0.0,0.0,0.0,0.0,0.0,0.0,0.0,0.0,0.0,0.0,0.0,0.0,0.0,0.0,0.0,0.0,0.0,0.0,0.0,0.0,0.0,0.0,0.0,0.0,0.0,0.0,0.0,0.0,0.0,0.0,0.0,0.0,-3.5239,-3.53,-3.53,-3.53,-3.5285,-3.5293,-3.5277,-3.5034,-3.4435,-3.3011,0.0,0.0,0.0,0.0,0.0,0.0,0.0,0.0,0.0,0.0,0.0,0.0,0.0,0.0,0.0,0.0,0.0,0.0,0.0,0.0,0.0,0.0,0.0,0.0,0.0,0.0,0.0,0.0,0.0,0.0,0.0,0.0,0.0,0.0,0.0,0.0,0.0,0.0,0.0,0.0,0.0,0.0,0.0,0.0,0.0,0.0,0.0,0.0,0.0,0.0,0.0,0.0,0.0,0.0,0.0,0.0,0.0,0.0,0.0,0.0,0.0,0.0,0.0,0.0,0.0,0.0,0.0,0.0,0.0,0.0,0.0,0.0,0.0,0.0,0.0,0.0,0.0,0.0,0.0,0.0,0.0,0.0,0.0,0.0,0.0,0.0,0.0,0.0,0.0,0.0,0.0,0.0,0.0,0.0,0.0,0.0,0.0,0.0,0.0,0.0,0.0,0.0,-3.535,-3.5364,0.0,-3.533,-3.53,-3.5304,-3.5304,-3.5122,-3.4634,0.0,0.0,0.0,0.0,0.0,0.0,0.0,0.0,0.0,0.0,0.0,0.0,0.0,0.0,0.0,0.0,0.0,0.0,0.0,0.0,0.0,0.0,0.0,0.0,0.0,0.0,0.0,0.0,0.0,0.0,0.0,0.0,0.0,0.0,0.0,0.0,0.0,0.0,0.0,0.0,0.0,0.0,0.0,0.0,0.0,0.0,0.0,0.0,0.0,0.0,0.0,0.0,0.0,0.0,0.0,0.0,0.0,0.0,0.0,0.0,0.0,0.0,0.0,0.0,0.0,0.0,0.0,0.0,0.0,0.0,0.0,0.0,0.0,0.0,0.0,0.0,0.0,0.0,0.0,0.0,0.0,0.0,0.0,0.0,0.0,0.0,0.0,0.0,0.0,0.0,0.0,0.0,0.0,0.0,0.0,0.0,0.0,0.0,0.0,0.0,0.0,0.0,-3.5378,-3.546,-3.5427,0.0,-3.5379,-3.5345,-3.533,-3.533,-3.5136,-3.4714,0.0,0.0,0.0,0.0,0.0,0.0,0.0,0.0,0.0,0.0,0.0,0.0,0.0,0.0,0.0,0.0,0.0,0.0,0.0,0.0,0.0,0.0,0.0,0.0,0.0,0.0,0.0,0.0,0.0,0.0,0.0,0.0,0.0,0.0,0.0,0.0,0.0,0.0,0.0,0.0,0.0,0.0,0.0,0.0,0.0,0.0,0.0,0.0,0.0,0.0,0.0,0.0,0.0,0.0,0.0,0.0,0.0,0.0,0.0,0.0,0.0,0.0,0.0,0.0,0.0,0.0,0.0,0.0,0.0,0.0,0.0,0.0,0.0,0.0,0.0,0.0,0.0,0.0,0.0,0.0,0.0,0.0,0.0,0.0,0.0,0.0,0.0,0.0,0.0,0.0,0.0,0.0,0.0,0.0,0.0,0.0,0.0,0.0,0.0,0.0,0.0,0.0,-3.5391,-3.5507,-3.5507,-3.5493,-3.5493,-3.546,-3.5412,-3.5412,-3.5187,0.0,0.0,0.0,0.0,0.0,0.0,0.0,0.0,0.0,0.0,0.0,0.0,0.0,0.0,0.0,0.0,0.0,0.0,0.0,0.0,0.0,0.0,0.0,0.0,0.0,0.0,0.0,0.0,0.0,0.0,0.0,0.0,0.0,0.0,0.0,0.0,0.0,0.0,0.0,0.0,0.0,0.0,0.0,0.0,0.0,0.0,0.0,0.0,0.0,0.0,0.0,0.0,0.0,0.0,0.0,0.0,0.0,0.0,0.0,0.0,0.0,0.0,0.0,0.0,0.0,0.0,0.0,0.0,0.0,0.0,0.0,0.0,0.0,0.0,0.0,0.0,0.0,0.0,0.0,0.0,0.0,0.0,0.0,0.0,0.0,0.0,0.0,0.0,0.0,0.0,0.0,0.0,0.0,0.0,0.0,0.0,0.0,0.0,0.0,0.0,0.0,0.0,0.0,-3.5315,-3.5515,-3.5495,-3.5507,-3.5493,-3.5493,-3.546,-3.546,-3.5354,-3.507,0.0,0.0,0.0,0.0,0.0,0.0,0.0,0.0,0.0,0.0,0.0,0.0,0.0,0.0,0.0,0.0,0.0,0.0,0.0,0.0,0.0,0.0,0.0,0.0,0.0,0.0,0.0,0.0,0.0,0.0,0.0,0.0,0.0,0.0,0.0,0.0,0.0,0.0,0.0,0.0,0.0,0.0,0.0,0.0,0.0,0.0,0.0,0.0,0.0,0.0,0.0,0.0,0.0,0.0,0.0,0.0,0.0,0.0,0.0,0.0,0.0,0.0,0.0,0.0,0.0,0.0,0.0,0.0,0.0,0.0,0.0,0.0,0.0,0.0,0.0,0.0,0.0,0.0,0.0,0.0,0.0,0.0,0.0,0.0,0.0,0.0,0.0,0.0,0.0,0.0,0.0,0.0,0.0,0.0,0.0,0.0,0.0,0.0,0.0,0.0,0.0,0.0,-3.5322,-3.5495,-3.5495,-3.5507,-3.5795,-3.5988,-3.5988,-3.6295,-3.6396,-3.62,0.0,0.0,0.0,0.0,0.0,0.0,0.0,0.0,0.0,0.0,0.0,0.0,0.0,0.0,0.0,0.0,0.0,0.0,0.0,0.0,0.0,0.0,0.0,0.0,0.0,0.0,0.0,0.0,0.0,0.0,0.0,0.0,0.0,0.0,0.0,0.0,0.0,0.0,0.0,0.0,0.0,0.0,0.0,0.0,0.0,0.0,0.0,0.0,0.0,0.0,0.0,0.0,0.0,0.0,0.0,0.0,0.0,0.0,0.0,0.0,0.0,0.0,0.0,0.0,0.0,0.0,0.0,0.0,0.0,0.0,0.0,0.0,0.0,0.0,0.0,0.0,0.0,0.0,0.0,0.0,0.0,0.0,0.0,0.0,0.0,0.0,0.0,0.0,0.0,0.0,0.0,0.0,0.0,0.0,0.0,0.0,0.0,0.0,0.0,0.0,0.0,0.0,-3.5515,-3.5688,-3.5751,-3.5738,-3.6392,-3.6815,-3.6815,-3.7546,-3.7943,-3.7761,0.0,0.0,0.0,0.0,0.0,0.0,0.0,0.0,0.0,0.0,0.0,0.0,0.0,0.0,0.0,0.0,0.0,0.0,0.0,0.0,0.0,0.0,0.0,0.0,0.0,0.0,0.0,0.0,0.0,0.0,0.0,0.0,0.0,0.0,0.0,0.0,0.0,0.0,0.0,0.0,0.0,0.0,0.0,0.0,0.0,0.0,0.0,0.0,0.0,0.0,0.0,0.0,0.0,0.0,0.0,0.0,0.0,0.0,0.0,0.0,-3.3782,0.0,0.0,0.0,0.0,0.0,0.0,0.0,0.0,0.0,0.0,0.0,0.0,0.0,0.0,0.0,0.0,0.0,0.0,0.0,0.0,0.0,0.0,0.0,0.0,0.0,0.0,0.0,0.0,0.0,0.0,0.0,0.0,0.0,0.0,0.0,0.0,0.0,0.0,0.0,0.0,0.0,-3.6421,-3.7167,-3.7611,-3.7546,-3.77,-3.7797,-3.7797,-3.7963,-3.807,-3.8022,-3.7811,0.0,0.0,0.0,0.0,0.0,0.0,0.0,0.0,0.0,0.0,0.0,0.0,0.0,0.0,0.0,0.0,0.0,0.0,0.0,0.0,0.0,0.0,0.0,0.0,0.0,0.0,0.0,0.0,0.0,0.0,0.0,0.0,0.0,0.0,0.0,0.0,0.0,0.0,0.0,0.0,0.0,0.0,0.0,0.0,0.0,0.0,0.0,0.0,0.0,0.0,0.0,0.0,0.0,0.0,0.0,0.0,0.0,0.0,0.0,0.0,-3.5456,0.0,0.0,0.0,0.0,0.0,0.0,0.0,0.0,0.0,0.0,0.0,0.0,0.0,0.0,0.0,0.0,0.0,0.0,0.0,0.0,0.0,0.0,0.0,0.0,0.0,0.0,0.0,0.0,0.0,0.0,0.0,0.0,0.0,0.0,0.0,0.0,0.0,0.0,0.0,0.0,-3.7423,-3.7874,-3.8144,-3.8112,-3.8466,-3.8717,-3.8717,-3.9075,-3.9297,-3.9297,-3.9135,0.0,0.0,0.0,0.0,0.0,0.0,0.0,0.0,0.0,0.0,0.0,0.0,0.0,0.0,0.0,0.0,0.0,0.0,0.0,0.0,0.0,0.0,0.0,0.0,0.0,0.0,0.0,0.0,0.0,0.0,0.0,0.0,0.0,0.0,0.0,0.0,0.0,0.0,0.0,0.0,0.0,0.0,0.0,0.0,0.0,0.0,0.0,0.0,0.0,0.0,0.0,0.0,0.0,0.0,0.0,-3.6991,-3.7397,-3.768,-3.7831,-3.8383,-3.8415,-3.8112,0.0,0.0,0.0,0.0,0.0,0.0,0.0,0.0,0.0,0.0,0.0,0.0,0.0,0.0,0.0,0.0,0.0,0.0,0.0,0.0,0.0,0.0,0.0,0.0,0.0,-3.6632,-3.6574,0.0,0.0,0.0,0.0,0.0,0.0,0.0,0.0,0.0,0.0,0.0,0.0,-3.8433,-3.8505,-3.8569,-3.8569,-3.9206,-3.965,-3.965,-4.0246,-4.0622,-4.0622,-4.0554,-4.013,0.0,0.0,0.0,0.0,0.0,0.0,0.0,0.0,0.0,0.0,0.0,0.0,0.0,0.0,0.0,0.0,0.0,0.0,0.0,0.0,0.0,0.0,0.0,0.0,0.0,0.0,0.0,0.0,0.0,0.0,0.0,0.0,-2.6367,-2.6709,0.0,0.0,0.0,0.0,0.0,0.0,0.0,0.0,0.0,0.0,0.0,0.0,0.0,0.0,-3.4608,-3.4945,-3.5487,-3.6224,-3.657,-3.6906,-3.7272,-3.8073,-3.8652,-3.9096,-3.9937,0.0,-3.8099,-3.8053,0.0,0.0,0.0,0.0,0.0,0.0,0.0,0.0,0.0,0.0,0.0,0.0,0.0,0.0,0.0,0.0,0.0,0.0,0.0,0.0,0.0,0.0,-3.787,-3.787,-3.7947,-3.7967,0.0,-3.6491,-3.5516,-3.5624,0.0,0.0,0.0,0.0,0.0,0.0,0.0,0.0,-3.934,-3.9978,-4.043,-4.043,-4.0546,-4.0623,-4.0623,-4.0675,-4.0687,-4.0687,-4.0621,-4.054,-4.0385,-4.0296,0.0,0.0,0.0,0.0,0.0,0.0,0.0,0.0,0.0,0.0,0.0,0.0,0.0,0.0,0.0,0.0,0.0,0.0,0.0,0.0,0.0,0.0,0.0,0.0,0.0,0.0,0.0,0.0,0.0,-2.6716,-2.7077,-2.7793,-2.8472,-2.892,0.0,0.0,0.0,0.0,0.0,0.0,0.0,0.0,0.0,-3.2726,-3.3852,-3.4679,-3.5182,-3.6167,-3.6869,-3.7239,-3.7932,-3.8364,-3.8558,-3.9199,-3.9604,-3.984,-4.0338,-4.0149,-3.9499,-3.946,-3.9488,-3.9548,0.0,0.0,0.0,0.0,0.0,0.0,-3.9669,0.0,0.0,0.0,0.0,0.0,0.0,0.0,0.0,0.0,0.0,0.0,0.0,0.0,0.0,-3.9533,-3.9669,-3.9688,-3.9785,-3.9237,-3.8454,0.0,-3.7031,-3.6992,-3.7832,0.0,0.0,0.0,0.0,0.0,-4.023,-4.0558,-4.079,-4.079,-4.079,-4.079,-4.079,-4.0746,-4.07,-4.07,-4.0654,-4.0607,-4.0598,-4.0489,-4.02,0.0,0.0,0.0,0.0,0.0,0.0,0.0,0.0,0.0,0.0,0.0,0.0,0.0,0.0,0.0,0.0,0.0,0.0,0.0,0.0,0.0,0.0,0.0,0.0,0.0,0.0,0.0,0.0,-2.7493,-2.7937,-2.8655,-2.9779,-3.0349,0.0,0.0,0.0,0.0,0.0,0.0,-3.2403,-3.2699,-3.3196,-3.3963,-3.477,-3.5491,-3.611,-3.7299,-3.8059,-3.8316,-3.9127,-3.9556,-3.9698,-4.0041,-4.0233,-4.0286,-4.0441,-4.0523,-4.0573,-4.0564,-4.0574,-4.0602,-4.0654,-4.0668,0.0,-4.0778,-4.079,-4.079,-4.079,-4.079,-4.079,-4.079,0.0,-4.0607,-4.0746,0.0,0.0,0.0,0.0,-3.9011,-3.9649,0.0,-4.001,-4.0636,-4.079,-4.0829,-4.0958,-4.0812,-4.0371,0.0,-3.8711,-3.8496,-3.9141,0.0,0.0,0.0,0.0,-4.09,-4.081,-4.079,-4.079,-4.079,-4.079,-4.079,-4.079,-4.0746,-4.0733,-4.0733,-4.0668,-4.0635,-4.0621,-4.0631,-4.0519,-4.03,0.0,0.0,0.0,0.0,0.0,0.0,0.0,0.0,0.0,0.0,0.0,0.0,0.0,0.0,0.0,0.0,0.0,0.0,0.0,0.0,0.0,0.0,0.0,0.0,0.0,0.0,0.0,0.0,0.0,-2.9374,-3.0976,0.0,0.0,0.0,0.0,-3.1894,-3.2109,-3.2403,-3.2763,-3.3262,-3.4,-3.4972,-3.5321,-3.6222,-3.7764,-3.7856,-3.8398,-3.9427,-3.9464,-3.9724,-4.0177,-4.0196,-4.0304,-4.0489,-4.0489,-4.0504,-4.0523,-4.0504,-4.0549,-4.0588,-4.0588,-4.0635,-4.07,-4.0778,-4.079,-4.079,-4.079,-4.079,-4.079,-4.079,-4.079,-4.079,-4.079,-4.0771,0.0,0.0,-4.0694,-4.0674,-4.0713,-4.0732,-4.0752,-4.079,-4.079,-4.081,-4.09,-4.0296,-4.0023,0.0,-4.1035,-4.1016,-4.1055,0.0,0.0,-4.0953,-4.0966,-4.0958,-4.081,-4.079,-4.079,-4.079,-4.079,-4.079,-4.079,-4.079,-4.079,-4.079,-4.079,-4.0759,-4.07,-4.0687,-4.066,-4.0573,-4.0534,0.0,0.0,0.0,0.0,0.0,0.0,0.0,0.0,0.0,0.0,0.0,0.0,0.0,0.0,0.0,0.0,0.0,0.0,0.0,0.0,0.0,0.0,0.0,0.0,0.0,0.0,0.0,0.0,-3.0722,-3.1522,0.0,0.0,-3.2144,-3.2301,-3.2284,-3.2539,-3.3048,-3.3854,-3.4207,-3.4832,-3.5883,-3.6655,-3.7318,-3.7894,-3.8581,-3.9102,-3.9452,-3.9788,-4.0021,-4.0139,-4.0321,-4.0441,-4.0489,-4.0489,-4.0489,-4.0489,-4.0489,-4.0519,-4.0549,-4.0574,-4.0621,-4.0654,-4.0759,-4.079,-4.079,-4.079,-4.079,-4.079,-4.079,-4.079,-4.079,-4.079,-4.079,-4.079,-4.079,-4.079,-4.079,-4.079,-4.079,-4.079,-4.079,-4.0829,-4.0868,-4.0958,-4.0765,-4.0733,-4.1116,-4.0746,-4.0547,-4.1094,-4.1191,-4.1147,-4.1011,-4.1005,-4.0958,-4.081,-4.079,-4.079,-4.079,-4.079,-4.079,-4.079,-4.079,-4.079,-4.079,-4.079,-4.079,-4.0778,-4.0713,-4.0687,-4.066,-4.0617,-4.0588,0.0,0.0,0.0,0.0,0.0,0.0,0.0,0.0,0.0,0.0,0.0,0.0,0.0,0.0,0.0,0.0,0.0,0.0,0.0,0.0,0.0,0.0,0.0,0.0,0.0,0.0,-3.0748,-3.1346,-3.1967,-3.23,-3.2162,-3.2386,-3.2663,-3.2911,-3.3113,-3.3648,-3.4713,-3.5042,-3.5674,-3.673,-3.7507,-3.8024,-3.8302,-3.9095,-3.9526,-3.9526,-3.9981,-4.0214,-4.0252,-4.0425,-4.0489,-4.0489,-4.0489,-4.0489,-4.0489,-4.0489,-4.0489,-4.0504,-4.0559,-4.0588,-4.0621,-4.0746,-4.079,-4.079,-4.079,-4.079,-4.079,-4.079,-4.079,-4.079,-4.079,-4.079,-4.079,-4.079,-4.079,-4.079,-4.079,-4.079,-4.079,-4.079,-4.0848,-4.0912,-4.1003,-4.1056,-4.1122,-4.1187,-4.0727,-4.0527,-4.1094,-4.1191,-4.1147,-4.1011,-4.1005,-4.0958,-4.081,-4.079,-4.079,-4.079,-4.079,-4.079,-4.079,-4.079,-4.079,-4.079,-4.079,-4.079,-4.079,-4.0746,-4.07,-4.0668,-4.0603,-4.0573,-4.0573,0.0,0.0,0.0,0.0,0.0,0.0,0.0,0.0,0.0,0.0,0.0,0.0,0.0,0.0,0.0,0.0,0.0,0.0,0.0,0.0,0.0,0.0,0.0,-3.078,-3.0819,-3.0954,-3.1274,-3.2299,-3.287,-3.2558,-3.2674,-3.3042,-3.3792,-3.3827,-3.4249,-3.5272,-3.5765,-3.6497,-3.7492,-3.7803,-3.8302,-3.9101,-3.9376,-3.9599,-3.9804,-4.008,-4.0325,-4.0502,-4.0492,-4.0489,-4.0489,-4.0489,-4.0489,-4.0489,-4.0489,-4.0489,-4.0504,-4.0559,-4.0588,-4.0621,-4.0746,-4.079,-4.079,-4.079,-4.079,-4.079,-4.079,-4.079,-4.079,-4.079,-4.079,-4.079,-4.079,-4.079,-4.079,-4.079,-4.079,-4.079,-4.079,-4.0848,-4.092,-4.0991,-4.1053,-4.1111,-4.1185,-4.1191,-4.1191,-4.1191,-4.1191,-4.1144,-4.1031,-4.1005,0.0,-4.081,-4.079,-4.079,-4.079,-4.079,-4.079,-4.079,-4.079,-4.079,-4.079,-4.079,-4.079,-4.079,-4.079,-4.0746,-4.0621,-4.0534,-4.0504,-4.0504,0.0,0.0,0.0,0.0,0.0,0.0,0.0,0.0,0.0,0.0,0.0,0.0,0.0,0.0,0.0,0.0,0.0,0.0,0.0,0.0,0.0,0.0,-3.0201,-3.0666,-3.1456,-3.1932,-3.1711,-3.2283,-3.2902,-3.3402,-3.3473,-3.3792,-3.4553,-3.4464,-3.4835,-3.5883,-3.6399,-3.7085,-3.8058,-3.8493,-3.8813,-3.9036,-3.9452,-3.967,-3.9739,-4.0158,-4.0379,-4.0432,-4.0482,-4.0495,-4.0489,-4.0489,-4.0489,-4.0489,-4.0489,-4.0489,-4.0504,-4.0569,-4.0603,-4.0598,-4.064,-4.07,-4.0733,-4.0733,-4.0759,-4.079,-4.079,-4.079,-4.079,-4.079,-4.079,-4.079,-4.079,-4.079,-4.079,-4.079,-4.079,-4.081,-4.0848,-4.0919,-4.0989,-4.1059,-4.1141,-4.117,-4.1205,-4.1191,-4.1191,-4.1191,-4.1164,-4.1107,-4.1,0.0,0.0,-4.081,-4.079,-4.079,-4.079,-4.079,-4.079,-4.079,-4.079,-4.079,0.0,-4.079,-4.079,-4.079,-4.079,-4.0759,-4.0668,-4.0607,-4.0564,0.0,0.0,0.0,0.0,0.0,0.0,0.0,0.0,0.0,0.0,0.0,0.0,0.0,0.0,0.0,0.0,0.0,0.0,0.0,0.0,0.0,0.0,-2.9972,-3.0452,-3.0692,-3.1507,-3.2038,-3.1839,-3.2512,-3.3107,-3.3424,-3.3775,-3.4338,-3.5074,-3.5052,-3.5402,-3.6347,-3.7004,-3.7576,-3.8129,-3.8676,-3.8968,-3.8968,-3.9452,-3.9693,-3.967,-4.0158,-4.0398,-4.0362,-4.0449,-4.0499,0.0,-4.0508,-4.0489,-4.0489,-4.0489,-4.0489,0.0,0.0,0.0,0.0,0.0,-4.0621,-4.0654,-4.0687,-4.0733,-4.0759,-4.079,-4.079,-4.079,-4.079,-4.079,-4.079,-4.079,-4.079,-4.079,-4.079,-4.079,-4.081,-4.0868,-4.0951,-4.1013,-4.1098,-4.115,-4.1206,-4.1208,0.0,0.0,-4.1191,-4.1149,-4.1083,-4.1014,-4.0942,-4.0868,0.0,-4.079,-4.079,-4.079,-4.079,-4.079,-4.079,-4.079,0.0,0.0,0.0,-4.079,-4.079,-4.0759,0.0,0.0,0.0,-4.0593,0.0,0.0,0.0,0.0,-4.0292,-4.0239,0.0,0.0,0.0,0.0,0.0,0.0,0.0,0.0,0.0,0.0,0.0,0.0,0.0,0.0,0.0,0.0,-3.0133,-3.0975,-3.0692,-3.119,-3.1703,-3.1942,-3.2823,-3.3347,-3.3225,-3.3963,-3.4749,-3.5526,-3.5561,-3.5896,-3.6609,0.0,0.0,0.0,0.0,-3.891,-3.891,-3.9401,-3.9599,-3.9551,-4.0099,-4.0307,-4.0252,-4.0396,-4.0502,-4.0502,-4.0511,-4.0489,-4.0489,-4.0489,-4.0489,-4.0523,-4.0573,-4.0588,-4.0588,-4.0579,-4.0588,0.0,0.0,0.0,0.0,-4.0778,-4.079,-4.079,-4.079,-4.079,-4.079,-4.079,-4.079,-4.079,-4.079,-4.081,-4.0829,-4.09,-4.0956,-4.1035,-4.111,-4.1159,-4.1191,-4.1191,-4.1191,-4.1191,-4.1188,-4.1142,-4.1059,-4.1016,-4.0938,0.0,-4.081,-4.079,-4.079,-4.079,0.0,0.0,-4.079,-4.079,-4.079,-4.079,-4.079,-4.079,-4.079,-4.0746,-4.07,-4.07,-4.0635,-4.0607,-4.0607,-4.0583,-4.0588,-4.0573,-4.0523,-4.0489,0.0,0.0,0.0,0.0,0.0,0.0,0.0,0.0,0.0,0.0,0.0,0.0,0.0,0.0,0.0,-2.9114,-2.9946,-3.0418,-3.0234,-3.1149,-3.1945,-3.2258,-3.2629,-3.333,-3.4513,-3.5007,-3.5446,-3.5924,-3.6077,-3.6229,-3.6385,-3.719,0.0,-3.756,-3.8396,-3.8822,-3.8822,-3.9073,-3.9237,-3.929,0.0,0.0,-3.9982,-4.0233,-4.0396,-4.0502,-4.0499,-4.0495,-4.0489,-4.0489,-4.0489,-4.0489,-4.0504,-4.0523,-4.0523,-4.0519,-4.0564,-4.0588,-4.0621,-4.07,-4.0759,-4.0733,-4.0746,-4.079,-4.0733,-4.0746,0.0,-4.079,-4.079,-4.079,-4.079,-4.0829,-4.09,-4.0958,-4.1033,-4.1092,-4.1175,-4.1188,-4.1191,-4.1191,-4.1191,-4.1179,-4.1129,-4.106,-4.1002,-4.1001,-4.09,-4.081,-4.079,-4.079,-4.079,-4.079,-4.079,-4.079,-4.079,-4.079,-4.079,-4.079,-4.079,-4.079,-4.079,-4.079,-4.0765,-4.07,-4.0635,-4.0593,-4.0603,-4.0539,-4.0523,-4.0523,-4.0523,-4.0489,0.0,0.0,0.0,0.0,0.0,0.0,0.0,0.0,0.0,0.0,0.0,-2.5576,0.0,0.0,-2.8213,-2.8995,-2.9777,-3.0271,-3.0308,-3.0915,-3.1494,-3.1876,-3.2799,-3.3685,-3.4421,-3.488,-3.5385,-3.5907,-3.5985,-3.6131,-3.6301,-3.6882,-3.734,-3.7505,-3.8117,-3.8559,-3.875,-3.896,-3.9129,-3.9156,-3.9526,-3.9698,-3.9702,-3.9981,-4.0139,-4.027,-4.0432,-4.0495,-4.0489,-4.0489,-4.0489,-4.0489,-4.0489,-4.0489,-4.0489,-4.0489,-4.0519,-4.0564,-4.0598,-4.0646,-4.0693,-4.0654,-4.07,-4.0746,-4.07,-4.0746,-4.079,-4.079,-4.079,-4.081,-4.0829,-4.0868,-4.0938,-4.1035,-4.1074,-4.1121,-4.1183,-4.1191,-4.1191,-4.1191,-4.1163,-4.1147,-4.111,-4.1011,-4.0956,-4.0951,-4.0848,-4.079,-4.079,-4.079,-4.079,-4.079,-4.079,-4.079,-4.079,-4.079,-4.079,-4.079,-4.079,-4.079,-4.079,-4.079,-4.079,-4.0746,-4.0713,-4.0687,-4.0646,-4.0579,-4.0549,-4.0539,-4.0523,-4.0489,0.0,0.0,0.0,0.0,0.0,0.0,0.0,0.0,-2.2363,-2.4082,-2.5364,-2.6428,-2.7093,-2.7655,-2.8179,-2.8889,-2.9499,-3.0024,-3.0321,-3.0606,-3.0967,-3.1446,-3.2904,-3.3898,-3.3972,-3.4421,-3.4971,-3.5571,-3.5677,-3.5898,-3.6301,-3.6678,-3.7055,-3.7377,-3.7844,-3.8252,-3.8596,-3.8892,-3.9017,-3.9036,-3.9298,-3.9408,-3.9433,-3.9702,-3.988,-4.0002,-4.0342,-4.0499,-4.0508,-4.0489,-4.0489,-4.0489,-4.0489,-4.0489,-4.0489,-4.0489,-4.0523,-4.0523,-4.0573,-4.0588,-4.0603,-4.0593,-4.064,-4.07,-4.0687,-4.0733,-4.079,-4.079,-4.079,-4.081,-4.0868,-4.0916,-4.0959,-4.1067,-4.1106,-4.1135,-4.1187,-4.1191,-4.1191,-4.1191,-4.1156,-4.1093,-4.1074,-4.0977,-4.09,-4.09,-4.0829,-4.079,-4.079,-4.079,-4.079,-4.079,-4.079,-4.079,-4.079,-4.079,-4.079,-4.079,-4.079,-4.079,-4.079,-4.079,-4.079,-4.0778,-4.0778,-4.0746,-4.0687,-4.064,-4.0598,-4.0607,-4.0539,-4.0489,-0.7179,-0.9136,-1.2236,-1.6317,-1.7439,-1.8693,0.0,0.0,-2.4526,-2.6578,-2.7312,-2.771,-2.8222,-2.8496,-2.8764,-2.9271,-2.9058,-2.9124,-2.9879,-3.0459,-3.1105,-3.1855,-3.2512,-3.3177,-3.3758,-3.4203,-3.4576,-3.4878,-3.522,-3.5705,-3.6259,-3.6678,-3.69,-3.6978,-3.7685,-3.8135,-3.8186,-3.8546,-3.875,-3.875,-3.9036,-3.9137,-3.9137,-3.9408,-3.9679,-3.9922,-4.0325,-4.0502,-4.0499,-4.0492,-4.0489,-4.0489,-4.0489,-4.0489,-4.0489,-4.0489,-4.0539,-4.0588,-4.0607,-4.0598,-4.0593,-4.0603,-4.0646,-4.0687,-4.0617,-4.0693,-4.079,-4.0733,-4.0746,-4.081,-4.0868,-4.0946,-4.1007,-4.1083,-4.1149,-4.1188,-4.1191,-4.1191,-4.1191,-4.1191,-4.1156,-4.1074,-4.1016,-4.0958,-4.09,-4.09,-4.0829,-4.079,-4.079,-4.079,-4.079,-4.079,-4.079,-4.079,-4.079,-4.079,-4.079,-4.079,-4.079,-4.079,-4.079,-4.079,-4.0778,-4.07,-4.07,-4.0687,-4.0621,-4.0598,-4.0588,-4.0607,-4.0539,-4.0489,-1.0035,-1.1938,-1.3899,-1.7227,-1.8532,-1.9658,-2.246,-2.3585,-2.4558,-2.6371,-2.7167,-2.764,-2.781,-2.8057,-2.8253,0.0,-2.8654,-2.9027,-2.9948,-3.0472,-3.1047,-3.1898,-3.2183,-3.2635,-3.3479,-3.3443,-3.3598,-3.4153,-3.435,-3.4847,-3.5749,-3.595,-3.6316,-3.69,-3.7246,-3.7614,-3.8101,-3.8252,-3.8483,-3.8707,-3.8792,-3.8881,-3.8881,-3.9137,-3.9489,-3.9901,-4.0158,-4.0362,-4.0502,-4.0375,-4.0389,-4.0489,-4.0372,-4.0408,-4.0489,-4.0489,-4.0523,-4.0539,-4.0539,-4.0554,-4.0549,-4.0539,-4.0588,-4.0651,-4.0622,-4.0679,-4.0733,-4.07,-4.0784,-4.0868,-4.0938,-4.1009,-4.1081,-4.1142,-4.1175,-4.1191,-4.1191,-4.1175,-4.1135,-4.1135,-4.1053,-4.0977,-4.0958,-4.09,-4.0829,-4.0829,-4.081,-4.079,-4.079,-4.079,-4.079,-4.079,-4.079,-4.079,-4.079,-4.079,-4.079,-4.079,-4.079,-4.079,-4.079,-4.079,-4.079,-4.0746,-4.0746,-4.0733,-4.0654,-4.0626,-4.0598,-4.0607,-4.0539,-4.0489,-1.1814,-1.3746,-1.5076,-1.7784,-1.9426,-2.0595,-2.174,-2.327,-2.4842,-2.604,-2.6893,-2.7401,-2.7437,-2.759,-2.784,-2.8039,-2.8238,-2.8845,-3.0078,-3.0366,-3.0753,-3.183,-3.1883,-3.212,-3.2895,-3.2695,-3.2803,-3.3563,-3.3665,-3.4153,-3.5283,-3.5328,-3.5759,-3.662,-3.6781,-3.719,-3.7861,-3.8034,-3.8285,-3.8707,-3.8707,-3.8707,-3.8707,-3.8979,-3.9305,-3.9683,-3.9859,-4.0101,-4.0342,-4.0214,-4.0304,-4.0489,-4.0339,-4.0372,-4.0489,-4.0489,-4.0489,-4.0489,-4.0489,-4.0489,-4.0489,-4.0489,-4.0558,-4.0607,-4.0573,-4.0651,-4.072,-4.0694,-4.0817,-4.0951,-4.1001,-4.1044,-4.111,-4.1182,-4.1191,-4.119,-4.1189,-4.1135,-4.1093,-4.1074,-4.0977,-4.09,-4.09,-4.0829,-4.079,-4.079,-4.079,-4.079,-4.079,-4.079,-4.079,-4.079,-4.079,-4.079,-4.079,-4.079,-4.079,-4.079,-4.079,-4.079,-4.079,-4.079,-4.079,-4.079,-4.079,-4.0778,-4.0733,-4.0668,-4.0626,-4.0636,-4.0554,-4.0523,-1.0677,-1.2891,-1.4915,-1.7909,-2.0158,-2.1882,-2.2772,-2.453,-2.6054,-2.6283,-2.6893,-2.7437,-2.7575,-2.7625,-2.776,-2.8207,-2.7929,-2.8314,-3.0202,-3.0015,-3.0183,-3.1634,-3.1655,-3.1597,0.0,-3.2038,-3.2492,-3.3198,-3.3339,-3.3937,-3.5128,-3.522,-3.5481,-3.6019,-3.6481,-3.6886,-3.7305,-3.7826,-3.8285,-3.8707,-3.8707,-3.8707,-3.8707,-3.8979,-3.9101,-3.9137,-3.9402,-3.9709,-4.0022,-4.0081,-4.025,-4.0489,-4.0489,-4.0489,-4.0489,-4.0489,-4.0489,-4.0489,-4.0489,-4.0489,-4.0489,-4.0489,-4.0558,-4.0588,-4.0523,-4.0641,-4.0777,-4.0718,-4.0834,-4.1006,-4.1003,-4.1043,-4.111,-4.1182,-4.1191,-4.1179,-4.1121,-4.1105,-4.1074,-4.1016,-4.0958,-4.09,-4.09,-4.0829,-4.079,-4.079,-4.079,-4.079,-4.079,-4.079,-4.079,-4.079,-4.079,-4.079,-4.079,-4.079,-4.079,-4.079,-4.079,-4.079,-4.079,-4.079,-4.079,-4.079,-4.079,-4.079,-4.079,-4.0733,-4.07,-4.0687,-4.0617,-4.0607,-1.0438,-1.2949,-1.5283,-1.8372,-2.0246,-2.1643,-2.2905,-2.4008,-2.5021,-2.5974,-2.6028,-2.6068,-2.6496,-2.7027,-2.7303,-2.7232,-2.77,-2.8514,-2.9848,-2.978,-3.0128,-3.1447,-3.1539,0.0,0.0,0.0,0.0,-3.2398,-3.2547,-3.3145,-3.4333,-3.4479,-3.4988,-3.5975,-3.6259,-3.6661,-3.7305,-3.756,-3.8034,-3.8707,-3.8707,-3.8707,-3.8707,-3.8792,-3.8921,-3.9101,-3.9216,-3.9529,-3.9983,-3.988,-4.0101,-4.0489,-4.0356,-4.0372,-4.0489,-4.0489,-4.0489,-4.0489,-4.0489,-4.0489,-4.0489,-4.0489,-4.0523,-4.0523,-4.0523,-4.0607,-4.0732,-4.0706,-4.0834,-4.1021,-4.1053,-4.1077,-4.1121,-4.1171,-4.1191,-4.1177,-4.1119,-4.1074,-4.1016,-4.0958,-4.0868,-4.0829,-4.0829,-4.081,-4.079,-4.079,-4.079,-4.079,-4.079,-4.079,-4.079,-4.079,-4.079,-4.079,-4.079,-4.079,-4.079,-4.079,-4.079,-4.079,-4.079,-4.079,-4.079,-4.079,-4.079,-4.079,-4.079,-4.0733,-4.07,-4.07,-4.0617,-4.0607,-1.0722,-1.2956,-1.5026,-1.82,-1.9617,-2.0685,-2.225,-2.3242,-2.4137,-2.537,-2.5412,-2.5398,-2.5837,-2.6491,-2.6791,-2.6361,-2.7093,-2.8056,-2.8949,-2.9198,-2.9733,-3.0974,-3.1317,-3.1482,0.0,0.0,0.0,-3.194,-3.2094,-3.2695,-3.3887,-3.4053,-3.4657,-3.5844,-3.6019,-3.6474,-3.7268,-3.7414,-3.7913,-3.8707,-3.8707,-3.8707,-3.8707,-3.8707,-3.8792,-3.895,-3.8952,-3.9249,-3.975,-3.9687,-3.9944,-4.0392,-4.0321,-4.0392,-4.0489,-4.0489,-4.0489,-4.0489,-4.0489,-4.0489,-4.0489,-4.0489,-4.0489,-4.0504,-4.0564,-4.0655,-4.0742,-4.0788,-4.0921,-4.1052,-4.1096,-4.112,-4.1152,-4.1191,-4.1191,-4.1182,-4.1071,-4.1036,-4.0977,-4.0868,-4.0829,-4.079,-4.079,-4.079,-4.079,-4.079,-4.079,-4.079,-4.079,-4.079,-4.079,-4.079,-4.079,-4.079,-4.079,-4.079,-4.079,-4.079,-4.079,-4.079,-4.079,-4.079,-4.079,-4.079,-4.079,-4.079,-4.079,-4.0746,-4.0733,-4.0733,-4.0679,-4.0617,-1.1309,-1.2912,-1.4196,-1.7472,-1.8546,-1.9236,-2.1049,-2.2384,-2.3513,-2.4496,-2.4951,-2.5273,0.0,0.0,-2.6201,-2.5631,-2.6254,-2.7006,-2.7646,-2.8341,-2.9207,0.0,0.0,0.0,0.0,0.0,0.0,-3.1784,0.0,-3.2641,-3.3735,-3.3919,-3.448,-3.5577,-3.5844,-3.6392,-3.7135,-3.7414,-3.7913,-3.8707,-3.8707,-3.8707,-3.8707,-3.8707,-3.8707,-3.8707,-3.8707,-3.8921,-3.9324,-3.9524,-3.984,-4.0233,-4.0425,-4.0489,-4.0489,-4.0489,-4.0489,-4.0489,-4.0489,-4.0489,-4.0489,-4.0489,-4.0504,-4.0534,-4.0655,-4.075,-4.0848,-4.0968,-4.1055,-4.1093,-4.1099,-4.1146,-4.1191,-4.1191,-4.1191,-4.1164,-4.1037,-4.0995,-4.0958,-4.0829,-4.079,-4.079,-4.079,-4.079,-4.079,-4.079,-4.079,-4.079,-4.079,-4.079,-4.079,-4.079,-4.079,-4.079,-4.079,-4.079,-4.079,-4.079,-4.079,-4.079,-4.079,-4.079,-4.079,-4.079,-4.079,-4.079,-4.079,-4.079,-4.079,-4.079,-4.0733,-4.0654,-1.1304,-1.3027,-1.4783,-1.7707,-1.8813,-1.9661,-2.1678,-2.2286,-2.2761,-2.4163,-2.3598,-2.3103,-2.3672,0.0,0.0,-2.4856,-2.6535,0.0,-2.833,-2.8931,0.0,-3.0432,0.0,-3.1482,-3.1482,-3.1482,0.0,0.0,-3.1868,-3.2547,-3.3582,-3.3869,-3.448,-3.5577,-3.5844,-3.6241,-3.6741,-3.7542,-3.8219,-3.8707,-3.8707,-3.8707,-3.8707,-3.8707,-3.8707,-3.8707,-3.8707,-3.8921,-3.9324,-3.9524,-3.984,-4.0233,-4.0425,-4.0489,-4.0489,-4.0489,-4.0489,-4.0489,-4.0489,-4.0489,-4.0489,-4.0489,-4.0579,-4.0655,-4.0681,-4.0829,-4.0957,-4.0982,-4.105,-4.1103,-4.1169,-4.115,-4.113,-4.1191,-4.1154,-4.1099,-4.1013,-4.0956,-4.09,-4.081,-4.079,-4.079,-4.079,-4.079,-4.079,-4.079,-4.079,-4.079,-4.079,-4.079,-4.079,-4.079,-4.079,-4.079,-4.079,-4.079,-4.079,-4.079,-4.079,-4.079,-4.079,-4.079,-4.079,-4.079,-4.079,-4.079,-4.079,-4.079,-4.079,-4.079,-4.0668,-4.0621,-1.2444,-1.3772,-1.5147,-1.7453,-1.8297,-1.909,-2.1026,-2.1353,-2.1655,-2.3135,-2.2518,-2.1933,-2.2661,-2.3864,-2.4723,0.0,0.0,0.0,-2.8053,-2.8471,-2.9085,0.0,-3.0687,0.0,-3.1437,-3.1482,-3.1482,0.0,-3.1769,-3.2287,-3.3182,-3.3649,-3.4317,-3.5224,-3.5694,-3.6156,-3.6643,-3.7596,-3.8219,-3.8451,-3.8627,-3.8707,-3.8707,-3.8707,-3.8707,-3.8707,0.0,-3.8851,-3.9082,-3.9364,-3.9664,-4.0022,-4.0267,-4.0406,-4.0489,-4.0489,-4.0489,-4.0489,-4.0489,-4.0489,-4.0504,-4.0579,-4.0629,-4.0718,-4.08,-4.0902,-4.1007,-4.1046,-4.1076,-4.1116,-4.1146,-4.1129,-4.1113,-4.1139,-4.112,-4.1071,-4.0976,-4.0934,-4.0868,-4.081,-4.079,-4.079,-4.079,-4.079,-4.079,-4.079,-4.079,-4.079,-4.079,-4.079,-4.079,-4.079,-4.079,-4.079,-4.079,-4.079,-4.079,-4.079,-4.079,-4.079,-4.079,-4.079,-4.079,-4.079,-4.079,-4.079,-4.079,-4.079,-4.079,-4.0746,-4.0668,-4.064,-1.4076,-1.4807,-1.5367,-1.7079,-1.7668,-1.8228,-1.9857,-2.0171,-2.0523,-2.2039,-2.1604,-2.123,-2.2064,-2.3251,-2.4193,-2.4387,0.0,-2.6916,-2.752,-2.772,-2.8267,-2.9451,-3.0118,-3.0776,-3.1407,-3.1482,-3.1482,-3.1482,-3.167,-3.2038,-3.2734,-3.3443,-3.4153,-3.4927,-3.5515,-3.6114,-3.6689,-3.7524,-3.7982,-3.8101,-3.8433,-3.8658,-3.8707,-3.8707,-3.8707,-3.8707,0.0,0.0,-3.8833,-3.9183,-3.9439,-3.9709,-4.0062,-4.0304,-4.0457,-4.0489,-4.0489,-4.0489,-4.0489,-4.0489,-4.0519,-4.0629,-4.0694,-4.0746,-4.0918,-4.0994,-4.1037,-4.1081,-4.1016,-4.0923,-4.0935,-4.0855,-4.0748,-4.0742,-4.0745,-4.0706,-4.059,-4.0539,-4.052,-4.0462,-4.0442,-4.0442,-4.0442,-4.0442,-4.0442,-4.0442,-4.0442,-4.0442,-4.0442,-4.0655,-4.079,-4.079,-4.079,-4.079,-4.079,-4.079,-4.079,-4.079,-4.079,-4.079,-4.079,-4.079,-4.079,-4.079,-4.079,-4.079,-4.079,-4.079,-4.0746,-4.0687,-4.0687,-4.0665,-1.4879,-1.5305,-1.5799,-1.7706,-1.8238,-1.8622,-1.9868,-2.0236,-2.0618,-2.1894,-2.1164,-2.0574,-2.1453,-2.2289,-2.3167,-2.4295,-2.5741,-2.7019,-2.8046,-2.8318,-2.8725,0.0,-3.0118,-3.0776,-3.1407,-3.1482,0.0,0.0,0.0,0.0,-3.2734,-3.3443,-3.435,-3.5577,-3.5844,-3.6199,-3.6706,-3.696,-3.7432,-3.8101,-3.8186,-3.8368,-3.8707,-3.8707,-3.8707,-3.8707,0.0,0.0,-3.8892,-3.9192,-3.9383,-3.958,-4.0041,-4.0233,-4.0269,-4.0441,-4.0489,-4.0489,-4.0489,-4.0489,-4.0504,-4.0534,-4.0642,-4.0791,-4.082,-4.0948,-4.1081,-4.1108,-4.0584,-4.0037,-4.0093,-3.9531,-3.8947,-3.8947,-3.886,-3.8771,-3.8752,-3.8702,-3.8663,-3.8644,-3.8644,-3.8644,-3.8644,-3.8644,-3.8644,-3.8644,-3.8644,-3.8644,-3.8644,-3.9901,-4.079,-4.079,-4.079,-4.079,-4.079,-4.079,-4.079,-4.079,-4.079,-4.079,-4.079,-4.079,-4.079,-4.079,-4.079,-4.0778,-4.0733,-4.0733,-4.0668,-4.0621,-4.0617,-4.0622,-1.6088,-1.6645,-1.7198,-1.8509,-1.8822,-1.9179,-2.0373,-2.0347,-2.0492,-2.1758,-2.0921,-2.0325,-2.1596,-2.2073,-2.2837,-2.4201,-2.5377,-2.6506,-2.7724,-2.7715,-2.7934,-2.8951,-2.9639,-3.0283,-3.0941,-3.1387,0.0,0.0,0.0,0.0,-3.2342,-3.3355,-3.4317,-3.527,-3.5739,-3.6131,-3.6333,-3.6701,-3.7094,-3.7469,-3.7913,-3.8219,-3.8401,-3.8596,-3.8707,-3.8707,0.0,0.0,-3.8862,-3.9017,-3.9305,-3.9614,-3.988,-4.0139,-4.0356,-4.0473,-4.0489,-4.0489,-4.0489,-4.0489,-4.0504,-4.0574,-4.0692,-4.082,-4.0882,-4.0992,-4.1108,-4.1108,-4.0508,-3.9852,-3.9844,-3.9172,-3.8471,-3.8404,-3.8319,-3.8237,-3.8237,-3.8218,-3.8199,-3.8199,-3.8199,-3.8199,-3.8199,-3.8199,-3.8199,-3.8199,-3.8199,-3.8199,-3.8199,-3.8934,-3.9456,-3.9456,-3.9475,-3.9475,-3.9456,-3.9456,-3.9456,-3.9456,-3.9862,-4.0113,-4.0113,-4.0558,-4.079,-4.079,-4.0778,-4.0733,-4.07,-4.0668,-4.064,-4.0598,-4.0603,-4.0573,-1.7491,-1.825,-1.8824,-1.9369,-1.9624,-1.9952,-2.0723,-2.06,-2.0586,-2.1735,-2.0921,-2.052,-2.1881,-2.2211,-2.2774,-2.4163,-2.4952,-2.5891,-2.7294,-2.6981,-2.7145,-2.8509,-2.9229,0.0,-3.0558,-3.1377,0.0,0.0,0.0,0.0,0.0,-3.3371,-3.4235,-3.4769,-3.5543,-3.5975,-3.6019,-3.6492,-3.6799,-3.69,-3.7542,-3.7913,-3.8101,-3.8433,-3.8627,-3.8707,0.0,0.0,0.0,-3.8881,-3.92,-3.9683,-3.9754,-4.0062,-4.0441,-4.0489,-4.0489,-4.0489,-4.0489,-4.0489,-4.0519,-4.0655,-4.0738,-4.0829,-4.0948,-4.1052,-4.1052,-4.0899,-4.026,-3.9569,-3.931,-3.8599,-3.7888,-3.7763,-3.7696,-3.7657,-3.7657,-3.7657,-3.7657,-3.7657,-3.7657,-3.7657,-3.7657,-3.7657,-3.7657,-3.7657,-3.7657,-3.7657,-3.7657,-3.7677,-3.7677,-3.7677,-3.8032,-3.8264,-3.8218,-3.8218,-3.8199,-3.8199,-3.8837,-3.9224,-3.9224,-3.9881,-4.0326,-4.0488,-4.0443,-4.0513,-4.0673,-4.0626,-4.0598,-4.0573,-4.0573,-4.0539,-1.8957,-1.9596,-2.0125,-2.0177,-2.0689,-2.1006,-2.0502,-2.0795,-2.1326,-2.1958,-2.1491,-2.1225,-2.2117,-2.2439,-2.2968,-2.4177,-2.4751,-2.5617,-2.7253,-2.7049,-2.7225,-2.8628,0.0,0.0,-3.0879,0.0,0.0,0.0,0.0,0.0,0.0,-3.3614,-3.4235,-3.4769,-3.547,-3.5861,-3.6019,-3.6165,-3.6468,-3.69,-3.6978,-3.7377,-3.8101,-3.8135,-3.8368,-3.8707,0.0,0.0,0.0,-3.891,-3.9137,-3.9532,-3.9728,-3.9983,-4.0251,-4.0441,-4.0489,-4.0489,-4.0489,-4.0489,-4.0519,-4.0655,-4.0738,-4.0829,-4.0948,-4.1052,-4.0955,-4.0225,-3.9387,-3.8515,-3.7661,-3.6748,-3.6034,-3.5969,-3.5936,-3.5936,-3.5936,-3.5936,-3.5936,-3.5936,-3.5936,-3.5936,-3.5936,-3.5936,-3.5936,-3.5936,-3.5936,-3.5936,-3.5936,-3.5974,-3.5994,-3.5936,-3.7309,-3.8237,-3.8288,-3.8237,-3.8199,-3.8199,-3.8276,-3.8315,-3.8315,-3.8411,-3.8786,-3.9503,-3.9522,-3.9868,-4.0622,-4.0588,-4.0573,-4.0504,-4.0504,-4.0523,-1.9354,-2.0204,-2.0911,-2.1308,-2.1098,-2.1027,-2.1799,-2.1674,-2.1656,-2.2515,-2.2175,-2.1834,-2.2234,-2.212,-2.2163,-2.2811,-2.3085,-2.374,-2.524,-2.5354,-2.5872,-2.7491,-2.836,0.0,0.0,0.0,0.0,0.0,0.0,0.0,0.0,-3.3198,-3.3767,-3.4284,-3.4975,-3.556,-3.5975,-3.6122,-3.6318,-3.6516,-3.6781,-3.719,-3.7756,-3.7982,-3.8318,-3.8707,0.0,0.0,0.0,-3.891,-3.92,-3.9683,-3.9775,-4.0043,-4.0389,-4.0473,-4.0489,-4.0489,-4.0489,-4.0564,-4.0546,-4.0126,-4.0062,-4.0252,-4.0825,-4.0701,-4.031,-3.999,-3.8866,-3.7663,-3.7254,-3.644,-3.5737,-3.5706,-3.5704,-3.5704,-3.5704,-3.5704,-3.5704,-3.5704,-3.5704,-3.5704,-3.5704,-3.5704,-3.5704,-3.5704,-3.5704,-3.5704,-3.5742,-3.5742,-3.5762,-3.58,-3.6376,-3.6753,-3.6751,-3.6709,-3.6709,-3.6709,-3.7154,-3.7425,-3.7425,-3.7928,-3.8342,-3.8677,-3.864,-3.9039,-3.9885,-3.9841,-4.0042,-4.0489,-4.0489,-4.0489,-1.9868,-2.0858,-2.1773,-2.2068,-2.1574,-2.1306,-2.2373,-2.2146,-2.1926,-2.2698,-2.2747,-2.2685,-2.2584,-2.2342,-2.2198,-2.2359,-2.2247,-2.2642,-2.4148,-2.4323,-2.4952,-2.6562,0.0,0.0,0.0,0.0,0.0,0.0,0.0,0.0,0.0,0.0,-3.3303,-3.3986,-3.4625,-3.5253,-3.5975,-3.6079,-3.6191,-3.6301,-3.6597,-3.6939,-3.7358,-3.7721,-3.8135,0.0,0.0,0.0,0.0,-3.891,-3.9227,-3.9728,-3.9775,-4.0062,-4.0386,-4.0204,-4.0142,-4.0104,-3.9854,-3.9841,-3.9835,-3.9316,-3.9229,-3.9448,-4.0095,-3.9934,-3.9451,-3.919,-3.801,-3.6774,-3.6735,-3.6211,-3.5704,-3.5704,-3.5704,-3.5704,-3.5704,-3.5704,-3.5704,-3.5704,-3.5704,-3.5704,-3.5704,-3.5704,-3.5704,-3.5704,-3.5728,-3.5737,-3.5773,-3.5762,-3.58,-3.5889,-3.5862,-3.5794,-3.5745,-3.5704,-3.5704,-3.5704,-3.6226,-3.6555,-3.6555,-3.7135,-3.7568,-3.782,-3.7771,-3.8138,-3.8979,-3.8936,-3.935,-4.0142,-4.0142,-4.0258,-2.0824,-2.1916,-2.2921,-2.2441,-2.2265,-2.2163,-2.1564,-2.189,-2.2312,-2.2324,-2.3277,-2.389,-2.3215,-2.3434,-2.3608,-2.3491,-2.2871,-2.2977,-2.4682,-2.4447,-2.4721,0.0,0.0,0.0,0.0,0.0,0.0,0.0,0.0,0.0,0.0,0.0,-3.2911,-3.3986,-3.4529,-3.5207,-3.5975,-3.6019,-3.6105,-3.6301,-3.6301,-3.6533,-3.69,-3.7303,0.0,0.0,0.0,0.0,0.0,-3.891,-3.9156,-3.9532,-3.9709,-3.9963,-4.0137,-3.9522,-3.9296,-3.9181,-3.8334,-3.8073,-3.8141,-3.8268,-3.8358,-3.8436,-3.8576,-3.8629,-3.8434,-3.7569,-3.6601,-3.5811,-3.5811,-3.5762,-3.5704,-3.5704,-3.5704,-3.5704,-3.5704,-3.5704,-3.5704,-3.5704,-3.5704,-3.5704,-3.5704,-3.5704,-3.5704,-3.5704,-3.5757,-3.5781,-3.5716,-3.582,-3.5908,-3.5908,-3.59,-3.5872,-3.5803,-3.5742,-3.5704,-3.5704,-3.5704,-3.5704,-3.5704,-3.5723,-3.6099,-3.6895,-3.6914,-3.7283,-3.8007,-3.8026,-3.846,-3.9296,-3.9296,-3.9738,-2.0894,-2.1983,-2.2891,-2.3165,-2.2654,-2.2257,-2.2961,-2.3038,-2.3152,-2.3973,-2.4056,-2.3848,-2.3339,-2.3067,-2.2709,-2.2047,-2.1816,-2.1995,-2.2728,0.0,0.0,-2.5864,0.0,0.0,0.0,0.0,0.0,0.0,0.0,0.0,0.0,0.0,-3.2911,-3.3986,-3.4169,-3.4816,-3.5975,-3.6019,-3.6105,-3.6301,-3.6301,-3.6638,-3.7303,-3.7432,0.0,0.0,0.0,0.0,0.0,-3.8319,-3.8338,-3.8649,-3.8253,-3.8251,-3.8473,-3.8428,-3.8411,-3.8373,-3.8104,-3.8112,-3.8142,-3.7588,-3.7514,-3.7531,-3.6983,-3.724,-3.7519,-3.6598,-3.6108,-3.5856,-3.5766,-3.5723,-3.5704,-3.5704,-3.5704,-3.5704,-3.5704,-3.5704,-3.5704,-3.5704,-3.5704,-3.5704,-3.5704,-3.5745,-3.5788,-3.5833,-3.5824,-3.5834,-3.5892,-3.5893,-3.5927,-3.5966,-3.5931,-3.5879,-3.5799,-3.5737,-3.5704,-3.5704,-3.5704,-3.5704,-3.5704,-3.5704,-3.582,-3.6079,-3.6037,-3.6419,-3.7244,-3.7192,-3.7593,-3.843,-3.9008,-3.9431,-2.1448,-2.2161,-2.2886,-2.3532,-2.2814,-2.2241,-2.3055,-2.3164,-2.3231,-2.3838,-2.4065,-2.4038,-2.3391,-2.3089,-2.2693,-2.1896,-2.1636,-2.1773,0.0,0.0,0.0,-2.593,0.0,0.0,0.0,0.0,0.0,0.0,0.0,0.0,0.0,0.0,-3.2911,-3.3986,-3.3986,-3.4625,-3.5888,-3.5975,-3.6105,-3.6276,-3.6301,-3.6638,-3.7283,0.0,0.0,0.0,0.0,0.0,0.0,-3.7581,-3.7421,-3.766,-3.7397,-3.7394,-3.7545,-3.7529,-3.7507,-3.7469,-3.7156,-3.7162,-3.7236,-3.6714,-3.667,-3.6716,-3.6169,-3.6387,-3.6687,-3.6093,-3.5918,-3.5876,-3.5805,-3.5765,-3.5742,-3.5742,-3.5723,-3.5704,-3.5704,-3.5704,-3.5704,-3.5704,-3.5704,-3.5723,-3.5762,-3.5814,-3.5857,-3.5898,-3.5878,-3.5905,-3.5942,-3.5942,-3.5931,-3.5958,-3.5927,-3.5863,-3.5764,-3.5728,-3.5704,-3.5704,-3.5704,-3.5704,-3.5704,-3.5704,-3.5704,-3.5704,-3.5673,-3.5883,-3.6412,-3.6665,-3.7035,-3.7526,-3.8392,-3.8766,0.0,-2.2623,-2.2877,-2.3585,-2.2889,-2.2061,-2.2258,-2.2634,0.0,-2.2456,-2.3554,-2.4307,-2.3439,-2.3407,-2.332,-2.2795,-2.2249,0.0,0.0,-2.3646,0.0,0.0,0.0,0.0,0.0,0.0,0.0,0.0,0.0,0.0,0.0,0.0,0.0,-3.3935,-3.3986,-3.4577,-3.5773,-3.5932,-3.6079,-3.6225,-3.6276,-3.6498,-3.6851,0.0,0.0,0.0,0.0,0.0,0.0,-3.675,-3.648,-3.667,-3.6996,-3.7125,-3.7109,-3.6753,-3.6622,-3.6507,-3.5759,-3.5588,-3.5713,-3.5801,-3.5891,-3.5994,-3.5994,-3.6003,-3.5992,-3.5996,-3.5957,-3.5918,-3.5898,-3.5846,-3.5814,-3.5794,-3.5755,-3.5706,-3.5715,-3.5704,-3.5704,-3.5704,-3.5704,-3.5742,-3.5889,-3.5891,-3.5912,-3.5915,-3.5957,-3.5979,-3.5921,-3.5962,-3.5977,-3.5912,-3.5899,-3.5839,-3.5723,-3.5704,-3.5704,-3.5704,-3.5704,-3.5704,-3.5704,-3.5704,-3.5704,-3.5704,-3.5704,-3.5673,-3.5601,-3.635,-3.6683,-3.6642,-3.7507,-3.7782,-2.4341,0.0,-2.3191,-2.4053,-2.3342,-2.2668,0.0,-2.3573,-2.3755,-2.4146,-2.4182,-2.4192,-2.3985,-2.3761,-2.3422,-2.3053,0.0,0.0,-2.2942,0.0,0.0,0.0,0.0,0.0,0.0,0.0,0.0,0.0,0.0,0.0,0.0,0.0,0.0,-3.3355,-3.3767,-3.4577,-3.5773,-3.5817,-3.5949,-3.6225,-3.6208,-3.6319,-3.6433,0.0,0.0,0.0,0.0,0.0,0.0,-3.5919,-3.5757,-3.5979,-3.5623,-3.5571,-3.5694,-3.5763,-3.5795,-3.5757,-3.5636,-3.5623,-3.5737,-3.5899,-3.5968,-3.6005,-3.5996,-3.6003,-3.5992,-3.5996,-3.5996,-3.5957,-3.5918,-3.5894,-3.5868,-3.5807,-3.5788,-3.5772,-3.5785,-3.5781,-3.5781,-3.5781,-3.582,-3.5858,-3.5889,-3.5937,-3.5984,-3.5976,-3.5996,-3.5995,-3.5979,-3.5993,-3.5995,-3.5979,-3.5889,-3.58,-3.5781,-3.5723,-3.5704,-3.5704,-3.5704,-3.5704,-3.5704,-3.5704,-3.5704,-3.5704,-3.5704,-3.5673,-3.5601,-3.5797,-3.5868,-3.5875,-3.6546,-3.6837,-2.537,-2.464,-2.3843,-2.4632,-2.4127,-2.3551,-2.3956,-2.4221,-2.44,-2.4567,-2.4417,-2.4236,-2.4236,-2.4023,-2.3681,-2.3231,-2.355,0.0,0.0,0.0,0.0,0.0,0.0,0.0,0.0,0.0,0.0,0.0,0.0,0.0,0.0,0.0,0.0,0.0,-3.257,-3.3567,-3.5316,-3.5667,-3.5735,-3.5608,-3.5633,-3.5692,-3.5793,0.0,0.0,0.0,0.0,0.0,-3.59,-3.5051,-3.4909,-3.518,-3.4981,-3.5019,-3.5226,-3.5432,-3.5493,-3.5507,-3.5572,-3.5678,-3.5812,-3.5955,-3.6007,-3.6009,-3.5996,-3.5999,-3.6007,-3.5996,-3.5996,-3.5996,-3.5957,-3.5957,-3.5937,-3.5899,-3.5874,-3.5845,-3.585,-3.5826,-3.5803,-3.5841,-3.5889,-3.5912,-3.5931,-3.5977,-3.5996,-3.5996,-3.5996,-3.5996,-3.5996,-3.5996,-3.5996,-3.5957,-3.5892,-3.582,-3.5762,-3.5723,-3.5704,-3.5704,-3.5704,-3.5704,-3.5704,-3.5704,-3.5704,-3.5704,-3.5704,-3.5662,-3.5608,-3.5604,-3.5554,-3.5474,-3.5799,-3.5859,-2.5997,-2.5508,-2.492,-2.532,-2.4938,-2.4462,-2.4357,-2.4599,-2.4728,-2.4471,-2.4379,-2.4354,-2.4385,-2.4296,-2.4088,0.0,0.0,0.0,0.0,0.0,0.0,0.0,0.0,0.0,0.0,0.0,0.0,0.0,0.0,0.0,0.0,0.0,0.0,0.0,-3.1176,-3.2208,-3.4327,-3.498,-3.5111,-3.4711,-3.4761,-3.4836,-3.4922,-3.4991,0.0,0.0,0.0,0.0,-3.5051,-3.4338,-3.4245,-3.4564,-3.4812,-3.5037,-3.5258,-3.5432,-3.5493,-3.5507,-3.5586,-3.5731,-3.5909,-3.5985,-3.5991,-3.5992,-3.6003,-3.5996,-3.5999,-3.5995,-3.5996,-3.5996,-3.5996,-3.5996,-3.5996,-3.5996,-3.5957,-3.5918,-3.5918,-3.5862,-3.585,-3.5899,-3.5921,-3.5942,-3.5993,-3.5996,-3.5996,-3.5996,-3.5996,-3.5996,-3.5996,-3.5996,-3.5976,-3.5918,-3.5911,-3.5834,-3.5718,-3.5706,-3.5704,-3.5704,-3.5704,-3.5704,-3.5704,-3.5704,-3.5704,-3.5704,-3.5684,-3.5662,-3.5616,-3.556,-3.5468,-3.5308,-3.5261,-3.5018,-2.6797,-2.7121,-2.715,-2.6197,-2.5454,-2.49,-2.4477,-2.443,-2.4471,-2.4583,-2.4338,-2.4271,-2.4719,-2.4833,-2.4991,0.0,0.0,0.0,0.0,0.0,0.0,0.0,0.0,0.0,0.0,0.0,0.0,0.0,0.0,0.0,0.0,0.0,0.0,0.0,0.0,-3.1549,-3.2364,-3.2888,-3.3412,-3.3891,-3.3874,-3.3822,-3.3706,-3.4018,-3.4087,0.0,0.0,0.0,-3.4259,-3.4129,-3.439,-3.4831,-3.487,-3.5124,-3.5465,-3.5493,-3.5493,-3.552,-3.5643,-3.5784,-3.5912,-3.5971,-3.6009,-3.5996,-3.5996,-3.6009,-3.5999,-3.5995,-3.5996,-3.5996,-3.5996,-3.5996,-3.5996,-3.5996,-3.5996,-3.5976,-3.5976,-3.5976,-3.5973,-3.5989,-3.5987,-3.5991,-3.5996,-3.5996,-3.5996,-3.5996,-3.5996,-3.5996,-3.5996,-3.5996,-3.5996,-3.5996,-3.5877,-3.5801,-3.5781,-3.5736,-3.5704,-3.5704,-3.5704,-3.5704,-3.5704,-3.5704,-3.5704,-3.5704,-3.5643,-3.5643,-3.5673,-3.5463,-3.5326,-3.5302,-3.4997,-3.4793,-2.7715,-2.8158,-2.8326,-2.7797,-2.6993,-2.6183,-2.5871,-2.5502,-2.523,-2.5346,-2.5203,-2.5158,-2.5388,0.0,-2.5794,-2.6162,0.0,0.0,0.0,0.0,0.0,0.0,0.0,0.0,0.0,0.0,0.0,0.0,0.0,0.0,0.0,0.0,0.0,0.0,0.0,0.0,-3.0765,-3.099,-3.1772,-3.3059,-3.3083,-3.2969,-3.2774,-3.2983,-3.3184,0.0,0.0,-3.3797,-3.4049,-3.4099,-3.4321,-3.4691,-3.4831,-3.5072,-3.5354,-3.5446,-3.552,-3.5573,-3.5607,-3.5762,-3.5912,-3.5947,-3.5973,-3.5996,-3.5996,-3.5995,-3.5992,-3.5996,-3.5996,-3.5996,-3.5996,-3.5996,-3.5996,-3.5996,-3.5996,-3.5996,-3.5996,-3.5996,-3.5996,-3.5996,-3.5996,-3.5996,-3.5996,-3.5996,-3.5996,-3.5996,-3.5996,-3.5996,-3.5996,-3.5996,-3.6009,-3.6006,-3.5916,-3.5849,-3.581,-3.5747,-3.5704,-3.5704,-3.5704,-3.5704,-3.5704,-3.5704,-3.5704,-3.5704,-3.5673,-3.5608,-3.5489,-3.536,-3.5165,-3.4905,-3.4755,-3.4651,-2.8415,-2.8858,-2.9116,-2.9237,-2.8369,-2.7388,-2.7104,-2.6442,-2.597,-2.6026,-2.5934,-2.5942,-2.6229,-2.6493,0.0,-2.6677,0.0,0.0,0.0,0.0,0.0,0.0,0.0,0.0,0.0,0.0,0.0,0.0,0.0,0.0,0.0,0.0,0.0,0.0,0.0,0.0,-2.9617,-2.9766,-3.0589,-3.2213,-3.2275,-3.2221,-3.2073,-3.2214,-3.2651,-3.3284,-3.3372,-3.3643,-3.4023,-3.4099,-3.4269,-3.4539,-3.4792,-3.5054,-3.5273,-3.5446,-3.5534,-3.5611,-3.5596,-3.5709,-3.5882,-3.5893,-3.5956,-3.5996,-3.5996,-3.5996,-3.5996,-3.5996,-3.5996,-3.5996,-3.5996,-3.5996,-3.5996,-3.5996,-3.5996,-3.5996,-3.5996,-3.5996,-3.5996,-3.5996,-3.5996,-3.5996,-3.5996,-3.5996,-3.5996,-3.5996,-3.5996,-3.5996,-3.5996,-3.5989,-3.5973,-3.5979,-3.5908,-3.582,-3.5781,-3.5723,-3.5704,-3.5704,-3.5704,-3.5704,-3.5704,-3.5704,-3.5704,-3.5704,-3.5651,-3.5528,-3.5326,-3.52,-3.498,-3.4653,-3.4591,-3.4545,-2.8716,-2.9243,-2.9726,-3.0038,-2.8967,-2.7704,-2.7202,-2.65,-2.6026,-2.6168,-2.5914,-2.6073,-2.7247,-2.7852,-2.7889,0.0,0.0,0.0,0.0,0.0,0.0,0.0,0.0,0.0,0.0,0.0,0.0,0.0,0.0,0.0,0.0,0.0,0.0,0.0,0.0,0.0,-2.9136,-2.9572,-3.0326,-3.138,-3.1509,-3.1589,-3.1654,-3.2109,-3.2519,-3.2965,-3.3325,-3.3725,-3.4099,-3.4173,-3.434,-3.4604,-3.4831,-3.5124,-3.5479,-3.5493,-3.5528,-3.5604,-3.5608,-3.5684,-3.5814,-3.5884,-3.5957,-3.5996,-3.5996,-3.5996,-3.5996,-3.5996,-3.5996,-3.5996,-3.5996,-3.5996,-3.5996,-3.5996,-3.5996,-3.5996,-3.5996,-3.5996,-3.5996,-3.5996,-3.5996,-3.5996,-3.5996,-3.5996,-3.5996,-3.5996,-3.5996,-3.5996,-3.5996,-3.595,-3.5901,-3.5908,-3.5781,-3.5704,-3.5704,-3.5704,-3.5704,-3.5704,-3.5704,-3.5704,-3.5704,-3.5704,-3.5704,-3.5704,-3.5522,-3.5402,-3.5391,-3.4961,-3.4773,-3.4773,-3.4586,-3.4473,-2.9483,-2.9924,-3.0368,-3.0781,-2.9989,-2.8915,-2.8086,-2.7379,-2.6886,-2.6939,-2.6706,-2.6716,-2.747,0.0,-2.7244,0.0,0.0,0.0,0.0,0.0,0.0,0.0,0.0,0.0,0.0,0.0,0.0,0.0,0.0,0.0,0.0,0.0,0.0,0.0,0.0,0.0,0.0,-2.9095,-2.9452,-3.0174,-3.107,-3.15,-3.1538,-3.1856,-3.23,-3.2822,-3.2565,-3.2766,-3.3272,-3.2868,-3.278,-3.2929,-3.3771,-3.4664,-3.5493,-3.5493,-3.5528,-3.5591,-3.5591,-3.5697,-3.5813,-3.5881,-3.5955,-3.5996,-3.5996,-3.5996,-3.5996,-3.5996,-3.5996,-3.5996,-3.5996,-3.5996,-3.5996,-3.5996,-3.5996,-3.5996,-3.5996,-3.5996,-3.5996,-3.5996,-3.5996,-3.5996,-3.5996,-3.5996,-3.5996,-3.5996,-3.599,-3.5976,-3.5937,-3.5921,-3.5889,-3.5839,-3.5762,-3.5704,-3.5704,-3.5704,-3.5704,-3.5704,-3.5704,-3.5704,-3.5704,-3.5704,-3.5631,-3.5521,-3.5443,-3.5277,-3.5032,-3.4832,-3.4693,-3.4564,-3.4476,-3.445,-3.0081,-3.0485,-3.0931,-3.13,-3.0887,-3.0176,-2.9202,-2.8131,-2.7431,-2.7595,-2.7398,-2.725,-2.7394,-2.7131,0.0,0.0,0.0,0.0,0.0,0.0,0.0,0.0,0.0,0.0,0.0,0.0,0.0,0.0,0.0,0.0,0.0,0.0,0.0,0.0,0.0,0.0,0.0,-2.8517,-2.8772,-2.917,-3.0247,-3.08,-3.0854,-3.0967,-3.1411,-3.2045,-3.1613,-3.181,-3.2391,-3.1955,-3.1871,-3.2079,-3.2939,-3.3853,-3.468,-3.468,-3.4719,-3.482,-3.5116,-3.5306,-3.5466,-3.5813,-3.595,-3.5996,-3.5996,-3.5996,-3.5996,-3.5996,-3.5996,-3.5996,-3.5996,-3.5996,-3.5996,-3.5996,-3.5996,-3.5996,-3.5996,-3.5996,-3.5996,-3.5996,-3.5996,-3.5996,-3.5996,-3.5996,-3.5994,-3.6007,-3.5978,-3.5947,-3.5908,-3.5858,-3.582,-3.5762,-3.5723,-3.5704,-3.5704,-3.5704,-3.5673,-3.5608,-3.5608,-3.5631,-3.5704,-3.5631,-3.5534,-3.5405,-3.5307,-3.5119,-3.4831,-3.4752,-3.4628,-3.4473,-3.445,-3.4473,-3.0526,-3.101,-3.1418,-3.1497,-3.1497,-3.1271,-3.0438,-2.878,-2.754,-2.7998,-2.7895,-2.7576,-2.7197,-2.716,0.0,0.0,0.0,0.0,0.0,0.0,0.0,0.0,0.0,0.0,0.0,0.0,0.0,0.0,0.0,0.0,0.0,0.0,0.0,0.0,0.0,0.0,0.0,-2.785,-2.8323,-2.8389,-2.8926,-2.9246,-2.942,-2.9385,-2.9824,-3.0511,-3.0563,-3.0984,-3.1597,-3.1649,-3.1963,-3.2405,-3.2534,-3.2718,-3.2891,-3.2891,-3.294,-3.3122,-3.4067,-3.4477,-3.4736,-3.5602,-3.5917,-3.5976,-3.5996,-3.5996,-3.5996,-3.5996,-3.5996,-3.5996,-3.5996,-3.5976,-3.5976,-3.5996,-3.5996,-3.5996,-3.5996,-3.5996,-3.5996,-3.5976,-3.5976,-3.5976,-3.5996,-3.5996,-3.5996,-3.6009,-3.5947,-3.5908,-3.5908,-3.5781,-3.5704,-3.5704,-3.5704,-3.5704,-3.5704,-3.5704,-3.562,-3.5405,-3.5405,-3.5496,-3.5693,-3.5509,-3.5391,-3.5391,-3.5069,-3.4908,-3.4908,-3.4628,-3.4539,-3.4602,-3.4539,-3.4539,-3.1128,-3.1568,-3.1968,-3.2248,-3.2231,-3.2178,-3.2353,-3.0855,-2.9132,-2.8081,-2.8283,-2.8364,-2.7588,0.0,0.0,0.0,0.0,0.0,0.0,0.0,0.0,0.0,0.0,0.0,0.0,0.0,0.0,0.0,0.0,0.0,0.0,0.0,0.0,0.0,0.0,0.0,0.0,0.0,-2.7224,-2.729,-2.7518,-2.8271,-2.942,-2.9455,-2.9725,-3.0137,-2.988,-3.0034,-3.0455,-3.0302,-3.0716,-3.1495,-3.1691,-3.2215,-3.2891,-3.2891,-3.294,-3.3056,-3.3357,-3.3574,-3.3746,-3.4039,-3.415,-3.4297,-3.4902,-3.5098,-3.5215,-3.582,-3.5566,-3.5098,-3.5098,-3.4629,-3.4473,-3.5703,-3.5996,-3.582,-3.5215,-3.5098,-3.4902,-3.4297,-3.418,-3.4375,-3.498,-3.5041,-3.5219,-3.5841,-3.587,-3.5807,-3.5764,-3.5723,-3.5704,-3.5704,-3.5704,-3.5704,-3.5704,-3.5704,-3.562,-3.5405,-3.5405,-3.5364,-3.5273,-3.5209,-3.513,-3.5051,-3.4945,-3.4831,-3.4689,-3.4604,-3.4561,-3.4602,-3.4561,-3.4561,-3.166,-3.2092,-3.2486,-3.2752,-3.2719,-3.2687,-3.2834,-3.1509,-2.9765,-2.8132,-2.8197,-2.8384,-2.7961,0.0,0.0,0.0,0.0,0.0,0.0,0.0,0.0,0.0,0.0,0.0,0.0,0.0,0.0,0.0,0.0,0.0,0.0,0.0,0.0,0.0,0.0,0.0,0.0,0.0,0.0,-2.6897,-2.6995,-2.7585,-2.8594,-2.8676,-2.8931,-2.923,-2.9296,-2.9466,-2.9724,-2.972,-3.0086,-3.0639,-3.0906,-3.1367,-3.1903,-3.191,-3.1958,-3.2064,-3.2491,-3.2686,-3.2843,-3.3273,-3.3398,-3.3496,-3.4023,-3.418,-3.4297,-3.4824,-3.459,-3.418,-3.418,-3.3789,-3.3652,-3.4726,-3.4961,-3.4824,-3.4297,-3.418,-3.4023,-3.3496,-3.3404,-3.3571,-3.4098,-3.4419,-3.4778,-3.5308,-3.56,-3.5752,-3.5706,-3.5704,-3.5704,-3.5704,-3.5704,-3.5673,-3.5577,-3.5577,-3.5483,-3.5232,-3.5197,-3.5117,-3.4925,-3.498,-3.4981,-3.4889,-3.4831,-3.473,-3.4602,-3.4602,-3.4602,-3.4602,-3.4602,-3.458,-3.2022,-3.2519,-3.2948,-3.3028,-3.3011,-3.2816,-3.223,-3.1038,-2.965,-2.8286,0.0,-2.802,-2.8268,0.0,0.0,0.0,0.0,0.0,0.0,0.0,0.0,0.0,0.0,0.0,0.0,0.0,0.0,0.0,0.0,0.0,0.0,0.0,0.0,0.0,0.0,0.0,0.0,0.0,0.0,0.0,-2.7085,-2.7184,-2.733,-2.7496,-2.7754,-2.8156,-2.885,-2.92,-2.9326,-2.9735,-2.9886,-2.9934,-3.0247,-3.0371,-3.0386,-3.0402,-3.0436,-3.0607,-3.1476,-3.1835,-3.2011,-3.2887,-3.3163,-3.3184,-3.3262,-3.3281,-3.3301,-3.3379,-3.3359,-3.3281,-3.3281,-3.3223,-3.3164,-3.3164,-3.3281,-3.3379,-3.3301,-3.3281,-3.3262,-3.3182,-3.3165,-3.32,-3.3258,-3.3872,-3.4399,-3.4554,-3.5151,-3.5607,-3.5684,-3.5704,-3.5704,-3.5704,-3.5704,-3.562,-3.5405,-3.5405,-3.5262,-3.4908,-3.4908,-3.4811,-3.4623,-3.4771,-3.487,-3.487,-3.4689,-3.4602,-3.4602,-3.4602,-3.4602,-3.4602,-3.4602,-3.4602,-3.2401,-3.2798,-3.3104,-3.3201,-3.3024,-3.2588,-3.1628,-3.0469,-2.9627,-2.9627,-2.9144,-2.872,0.0,0.0,0.0,0.0,0.0,0.0,0.0,0.0,0.0,0.0,0.0,0.0,0.0,0.0,0.0,0.0,0.0,0.0,0.0,0.0,0.0,0.0,0.0,0.0,-2.5162,-2.5905,-2.628,0.0,-2.6957,-2.7282,-2.7299,-2.7345,-2.7701,-2.8272,-2.8652,-2.9012,-2.9388,-2.9589,-2.9769,-2.9918,-3.0099,-3.026,-3.0386,-3.0402,-3.0436,-3.0549,-3.0788,-3.0923,-3.102,-3.128,-3.1391,-3.1562,-3.2246,-3.2461,-3.2598,-3.3223,-3.2949,-3.2461,-3.2461,-3.1953,-3.1445,-3.1445,-3.2441,-3.3223,-3.2598,-3.2461,-3.2238,-3.1501,-3.1366,-3.1564,-3.2193,-3.2405,-3.2928,-3.4244,-3.4582,-3.493,-3.5607,-3.5704,-3.5704,-3.5704,-3.5704,-3.562,-3.5405,-3.5405,-3.5262,-3.4908,-3.4908,-3.4811,-3.4623,-3.4626,-3.4668,-3.4668,-3.4604,-3.4602,-3.4602,-3.4602,-3.4602,-3.4602,-3.4602,-3.4561,-3.2368,-3.2816,-3.3042,-3.3042,-3.2766,-3.2362,-3.1603,-3.0558,-2.9943,-3.0501,-2.9753,0.0,0.0,0.0,0.0,0.0,0.0,0.0,0.0,0.0,0.0,0.0,0.0,0.0,0.0,0.0,0.0,0.0,0.0,0.0,0.0,0.0,0.0,0.0,0.0,0.0,-2.5535,-2.6297,-2.6657,-2.6691,-2.7105,-2.7299,-2.7282,-2.7421,-2.7926,-2.8737,-2.87,-2.8971,-2.9427,-2.9551,-2.9734,-2.9918,-3.0052,-3.0248,-3.0439,-3.0406,-3.0469,-3.0569,-3.0625,-3.0676,-3.0726,-3.0818,-3.0875,-3.0976,-3.1445,-3.1582,-3.168,-3.209,-3.1894,-3.1582,-3.1582,-3.123,-3.0898,-3.0898,-3.1562,-3.209,-3.168,-3.1543,-3.1387,-3.0895,-3.0752,-3.083,-3.1265,-3.1623,-3.23,-3.3576,-3.4137,-3.4563,-3.5007,-3.5433,-3.5704,-3.5704,-3.562,-3.5464,-3.5273,-3.5197,-3.5032,-3.4752,-3.4751,-3.471,-3.4583,-3.4602,-3.4602,-3.4602,-3.4602,-3.4602,-3.4602,-3.4602,-3.4602,-3.4602,-3.4602,-3.4583,-3.2231,-3.2719,-3.3011,-3.2766,-3.2519,-3.2196,-3.1787,-3.0848,-3.0311,-3.1055,0.0,0.0,0.0,0.0,0.0,0.0,0.0,0.0,0.0,0.0,0.0,0.0,0.0,0.0,0.0,0.0,0.0,0.0,0.0,0.0,0.0,0.0,0.0,0.0,0.0,-2.5749,-2.5669,-2.6385,-2.6759,-2.6759,-2.6854,-2.6916,-2.6978,-2.7138,-2.7897,-2.903,-2.8855,-2.9012,-2.9427,-2.9551,-2.9734,-2.9918,-3.0052,-3.026,-3.0499,-3.0428,-3.049,-3.0588,-3.0665,-3.0684,-3.0724,-3.0836,-3.0898,-3.0898,-3.0898,-3.0898,-3.0898,-3.0898,-3.0898,-3.0898,-3.0898,-3.0898,-3.0898,-3.0898,-3.0896,-3.0889,-3.0889,-3.0845,-3.0791,-3.0772,-3.0675,-3.0598,-3.0598,-3.1159,-3.1894,-3.2754,-3.3499,-3.406,-3.435,-3.4997,-3.5477,-3.5631,-3.5464,-3.5273,-3.5081,-3.4963,-3.4792,-3.4604,-3.4602,-3.4602,-3.4602,-3.4602,-3.4602,-3.4602,-3.4602,-3.4602,-3.4602,-3.4602,-3.4602,-3.4602,-3.4602,-3.4583,-3.2196,-3.2816,-3.3183,-3.2862,-3.2535,-3.2196,-3.1787,-3.0848,-3.0311,0.0,0.0,0.0,0.0,0.0,0.0,0.0,0.0,0.0,0.0,0.0,0.0,0.0,0.0,0.0,0.0,0.0,0.0,0.0,0.0,0.0,0.0,0.0,-2.4453,-2.4081,-2.4313,0.0,-2.3858,-2.4364,-2.4622,-2.4622,-2.509,-2.5426,-2.5655,-2.5455,-2.6476,-2.8453,-2.8938,-2.9222,-2.9427,-2.9551,-2.9734,-2.9918,-3.0052,-3.026,-3.0499,-3.0428,-3.0449,-3.052,-3.0577,-3.0653,-3.0704,-3.0797,-3.0859,-3.0898,-3.0898,-3.0898,-3.0898,-3.0898,-3.0898,-3.0898,-3.0898,-3.0898,-3.0898,-3.0898,-3.086,-3.0812,-3.0812,-3.0808,-3.0772,-3.0656,-3.0617,-3.0598,-3.0598,-3.0694,-3.1043,-3.1855,-3.2068,-3.2687,-3.4214,-3.4357,-3.461,-3.5374,-3.5273,-3.5081,-3.4945,-3.4908,-3.4792,-3.4604,-3.4602,-3.4602,-3.4602,-3.4602,-3.4602,-3.4602,-3.4602,-3.4602,-3.4602,-3.4602,-3.4602,-3.4602,-3.4602,-3.4517,-3.2248,-3.2719,-3.288,-3.2586,-3.2231,-3.186,-3.1487,-3.1036,-3.0818,0.0,0.0,0.0,0.0,0.0,0.0,0.0,0.0,0.0,0.0,0.0,0.0,0.0,0.0,0.0,0.0,0.0,0.0,0.0,0.0,0.0,0.0,-2.4319,-2.4207,-2.4259,-2.411,0.0,-2.3735,-2.4193,-2.4506,-2.4645,-2.4871,-2.5046,-2.5181,-2.5374,-2.6106,-2.7247,-2.7323,-2.7607,-2.8051,-2.8671,-2.9055,-2.9292,-2.9861,-3.0248,-3.0439,-3.0439,-3.0479,-3.0519,-3.0616,-3.0683,-3.0717,-3.0811,-3.0879,-3.0898,-3.0898,-3.0898,-3.0898,-3.0898,-3.0898,-3.0898,-3.0898,-3.0898,-3.0896,-3.0852,-3.0812,-3.0772,-3.0694,-3.0694,-3.0675,-3.0617,-3.0598,-3.0598,-3.0598,-3.0598,-3.0714,-3.1081,-3.1507,-3.2048,-3.2748,-3.3179,-3.3711,-3.4486,-3.4375,-3.4431,-3.4851,-3.4811,-3.4689,-3.4623,-3.4602,-3.4602,-3.4602,-3.4602,-3.4602,-3.4602,-3.4602,-3.4602,-3.4602,-3.4602,-3.4602,-3.4602,-3.4495,-3.434,-3.2074,-3.2403,-3.2453,-3.2214,-3.1932,-3.162,-3.1291,0.0,0.0,0.0,0.0,0.0,0.0,0.0,0.0,0.0,0.0,0.0,0.0,0.0,0.0,0.0,0.0,0.0,0.0,0.0,0.0,0.0,0.0,0.0,-2.4902,-2.4347,-2.4053,-2.408,-2.3699,-2.3506,-2.3506,-2.4093,-2.4567,-2.4918,-2.4712,-2.4637,-2.4695,-2.4936,-2.5267,-2.5703,-2.5978,-2.6399,-2.6934,-2.7753,-2.8207,-2.8457,-2.9417,-2.9909,-3.0128,-3.0392,-3.0518,-3.0537,-3.0636,-3.0685,-3.0722,-3.0846,-3.0897,-3.0898,-3.0898,-3.0898,-3.0898,-3.0898,-3.0898,-3.0898,-3.0886,-3.088,-3.0859,-3.08,-3.075,-3.0714,-3.0617,-3.0598,-3.0598,-3.0598,-3.0598,-3.0598,-3.0598,-3.0598,-3.0598,-3.0598,-3.112,-3.1525,-3.1588,-3.2135,-3.2779,-3.344,-3.3332,-3.3582,-3.4433,-3.4388,-3.4376,-3.4583,-3.4602,-3.4602,-3.4602,-3.4602,-3.458,-3.4517,-3.4517,-3.4539,-3.4602,-3.4539,-3.4539,-3.4583,-3.4363,-3.4173,-3.1414,-3.1733,-3.2003,-3.1787,-3.1714,-3.162,0.0,0.0,0.0,0.0,0.0,0.0,0.0,0.0,0.0,0.0,0.0,0.0,0.0,0.0,0.0,0.0,0.0,0.0,0.0,0.0,0.0,0.0,0.0,0.0,-2.4902,-2.4633,-2.3996,-2.2943,-2.2611,-2.2491,-2.2491,-2.3391,-2.408,-2.4601,-2.3854,-2.3613,-2.3822,-2.317,-2.319,-2.3847,-2.58,-2.6703,-2.6839,-2.7154,-2.7339,-2.7566,-2.8572,-2.9078,-2.9357,-3.018,-3.0527,-3.0595,-3.0593,-3.0646,-3.0709,-3.0781,-3.086,-3.0898,-3.0898,-3.0898,-3.0898,-3.0898,-3.0898,-3.0892,-3.0812,-3.0808,-3.0784,-3.072,-3.0664,-3.0617,-3.0598,-3.0598,-3.0598,-3.0598,-3.0598,-3.0598,-3.0598,-3.0598,-3.0598,-3.0598,-3.0636,-3.0887,-3.1511,-3.1544,-3.173,-3.2421,-3.2298,-3.2538,-3.3402,-3.3475,-3.3794,-3.4545,-3.4602,-3.4602,-3.4602,-3.4602,-3.4517,-3.4316,-3.4316,-3.4427,-3.4602,-3.4427,-3.4409,-3.4583,-3.4269,-3.3961,-3.1507,-3.162,-3.1748,-3.1731,-3.1524,-3.1368,-3.123,-3.1213,0.0,0.0,0.0,0.0,0.0,0.0,0.0,0.0,0.0,0.0,0.0,0.0,0.0,0.0,0.0,0.0,0.0,0.0,0.0,0.0,0.0,0.0,-2.4533,-2.3561,-2.2827,-2.2443,-2.1483,-2.1415,-2.2263,-2.2991,-2.3753,-2.4601,-2.433,-2.404,-2.3815,-2.3701,-2.3533,-2.3342,-2.4475,-2.5113,-2.5374,-2.6085,-2.6469,-2.6726,-2.7681,-2.8183,-2.848,-2.939,-2.9709,-2.9803,-3.0496,-3.0718,-3.073,-3.0829,-3.0876,-3.0898,-3.0898,-3.0898,-3.0898,-3.0898,-3.0869,-3.0834,-3.0808,-3.0772,-3.0713,-3.0645,-3.0632,-3.0598,-3.0598,-3.0598,-3.0598,-3.0598,-3.0598,-3.0598,-3.0598,-3.0598,-3.0598,-3.0598,-3.0481,-3.0452,-3.0618,-3.0528,-3.0698,-3.1374,-3.1374,-3.1673,-3.2499,-3.2574,-3.2931,-3.3776,-3.3832,-3.4057,-3.4583,-3.4473,-3.4363,-3.4293,-3.4049,-3.4023,-3.4221,-3.4269,-3.4269,-3.4221,-3.3961,-3.368,-3.1393,-3.1487,-3.16,-3.1582,-3.1389,-3.123,-3.1286,0.0,0.0,0.0,0.0,0.0,0.0,0.0,0.0,0.0,0.0,0.0,0.0,0.0,0.0,0.0,0.0,0.0,0.0,0.0,0.0,0.0,0.0,0.0,-2.4533,-2.3057,-2.1971,-2.1526,-2.1116,-2.1299,-2.2176,-2.3203,-2.4148,-2.501,-2.4888,-2.4734,-2.4574,-2.4205,-2.3859,-2.352,-2.375,-2.4018,-2.4394,-2.519,-2.5601,-2.5872,-2.6823,-2.7309,-2.7574,-2.8492,-2.883,-2.8936,-2.9972,-3.0322,-3.0353,-3.0762,-3.0898,-3.0898,-3.0898,-3.0898,-3.0898,-3.0897,-3.0847,-3.0791,-3.0772,-3.0714,-3.0656,-3.0617,-3.0598,-3.0598,-3.0598,-3.0598,-3.0598,-3.0598,-3.0598,-3.0598,-3.0598,-3.0598,-3.0588,-3.051,-3.0389,-3.0234,-3.0052,-2.9969,-3.0048,-3.0453,-3.0509,-3.0828,-3.1635,-3.171,-3.2047,-3.2847,-3.3147,-3.354,-3.4067,-3.4167,-3.4197,-3.4197,-3.3868,-3.3698,-3.3689,-3.3972,-3.4074,-3.3998,-3.368,-3.3314,0.0,0.0,0.0,-3.1372,0.0,0.0,-3.1479,0.0,0.0,0.0,0.0,0.0,0.0,0.0,0.0,0.0,0.0,0.0,0.0,0.0,0.0,0.0,0.0,0.0,0.0,0.0,0.0,0.0,0.0,-2.4902,-2.4863,-2.3157,-2.1535,-2.025,-2.1495,-2.2202,-2.2217,-2.3975,-2.5198,-2.5803,-2.5477,-2.5593,-2.6027,-2.4511,-2.4006,-2.4257,-2.3749,-2.3692,-2.4036,-2.4495,-2.4779,-2.4991,-2.5971,-2.6435,-2.6659,-2.7547,-2.7911,-2.8105,-2.9031,-2.9414,-2.9629,-3.0554,-3.0853,-3.0879,-3.0898,-3.0898,-3.0889,-3.0894,-3.0858,-3.0781,-3.0714,-3.0656,-3.0598,-3.0598,-3.0598,-3.0598,-3.0598,-3.0598,-3.0598,-3.0598,-3.0598,-3.0598,-3.0598,-3.0598,-3.052,-3.0337,-3.0294,-3.0196,-2.9937,-2.9907,-2.9841,-2.9701,-2.9701,-3.0021,-3.0809,-3.0846,-3.1143,-3.1818,-3.2616,-3.3082,-3.3086,-3.3654,-3.3998,-3.3998,-3.3788,-3.3502,-3.3086,-3.3502,-3.3807,-3.3947,-3.3419,-3.2894,-3.1967,0.0,0.0,0.0,0.0,0.0,0.0,0.0,0.0,0.0,0.0,0.0,0.0,0.0,0.0,0.0,0.0,0.0,0.0,0.0,0.0,0.0,0.0,0.0,0.0,0.0,0.0,0.0,0.0,-2.5146,-2.4492,-2.246,-2.0971,-2.0135,-2.0927,-2.1884,-2.3002,-2.3962,-2.4958,-2.5941,-2.5832,-2.5815,-2.578,-2.4969,-2.4465,-2.4198,-2.3921,-2.3876,-2.4036,-2.4339,-2.4642,-2.4921,-2.5221,-2.5466,-2.5765,-2.6687,-2.7052,-2.7179,-2.8126,-2.8509,-2.8711,-2.9608,-2.9917,-3.0089,-3.0703,-3.0902,-3.0884,-3.0847,-3.0777,-3.0717,-3.0653,-3.0617,-3.0598,-3.0598,-3.0598,-3.0598,-3.0598,-3.0481,-3.043,-3.0569,-3.0598,-3.0598,-3.0598,-3.0481,-3.0359,-3.0306,-3.0131,-2.9981,-2.9905,-2.9825,-2.9738,-2.9701,-2.9701,-2.9795,-3.0002,-3.0021,-3.0301,-3.0924,-3.1722,-3.2381,-3.2863,-3.3453,-3.378,-3.378,-3.3577,-3.3345,-3.3086,-3.335,-3.3379,-3.319,-3.2894,-3.2639,-3.2368,-3.2266,-3.2179,0.0,0.0,0.0,-3.1631,-3.1671,0.0,0.0,0.0,0.0,0.0,0.0,0.0,0.0,0.0,0.0,0.0,0.0,0.0,0.0,0.0,0.0,0.0,0.0,0.0,0.0,-2.5647,-2.4882,-2.331,-2.181,-2.0596,-1.9711,-2.0538,-2.1451,-2.235,-2.3466,-2.4502,-2.5443,-2.5631,-2.5889,-2.6129,-2.5504,-2.4988,-2.4539,-2.4295,-2.4042,-2.3858,-2.4302,-2.4657,-2.4915,-2.5031,-2.516,-2.537,-2.5907,-2.6137,-2.632,-2.7245,-2.7593,-2.7819,-2.8709,-2.9273,-2.9689,-3.0209,-3.0611,-3.0892,-3.0836,-3.0793,-3.071,-3.0625,-3.0598,-3.0598,-3.0598,-3.055,-3.0481,-3.0481,-3.0344,-3.0278,-3.0441,-3.0439,-3.0386,-3.0386,-3.029,-3.0196,-3.0131,-3.0011,-2.9891,-2.9823,-2.9756,-2.9664,-2.9569,-2.9645,-2.9683,-2.9569,-2.9569,-2.9827,-3.0445,-3.1187,-3.1906,-3.2643,-3.3232,-3.3587,-3.3698,-3.3491,-3.3274,-3.3042,-3.319,-3.3081,-3.277,-3.2672,-3.2523,-3.2651,-3.2603,-3.2588,0.0,0.0,0.0,-3.1763,-3.1839,0.0,0.0,0.0,0.0,0.0,0.0,0.0,0.0,0.0,0.0,0.0,0.0,0.0,0.0,0.0,0.0,0.0,0.0,0.0,-2.5832,-2.5582,-2.4408,-2.2013,-2.1318,-2.048,-1.9272,-2.0367,-2.1032,-2.109,-2.277,-2.3964,-2.4672,-2.5012,-2.573,-2.6674,-2.5946,-2.5456,-2.5161,-2.4789,-2.4298,-2.3801,-2.4373,-2.4712,-2.4929,-2.5171,-2.5293,-2.5303,-2.5322,-2.5395,-2.5604,-2.6388,-2.6704,-2.6916,-2.7837,-2.8666,-2.934,-2.9437,-3.0054,-3.0776,-3.0859,-3.0836,-3.0761,-3.0635,-3.0607,-3.0578,-3.0453,-3.0295,-3.014,-3.0013,-2.996,-2.997,-3.01,-3.0113,-3.0109,-3.0109,-3.0095,-3.0037,-2.9921,-2.9891,-2.9823,-2.972,-2.9664,-2.9607,-2.9412,-2.955,-2.9588,-2.9373,-2.9392,-2.9665,-3.0222,-3.0919,-3.166,-3.2428,-3.3073,-3.3481,-3.3671,-3.3433,-3.3214,-3.2916,-3.2961,-3.2866,-3.2573,-3.2573,-3.2523,0.0,0.0,0.0,0.0,0.0,0.0,-3.1856,-3.1929,-3.2073,0.0,0.0,0.0,0.0,0.0,0.0,0.0,0.0,0.0,0.0,0.0,0.0,0.0,0.0,0.0,0.0,0.0,-2.679,-2.6368,-2.5303,-2.4153,-2.3062,-2.1702,-2.0721,-2.016,-2.0707,-2.1276,-2.1799,-2.2977,-2.3852,-2.4369,-2.4451,-2.5005,-2.5966,-2.5396,-2.5516,-2.6149,-2.5236,-2.482,-2.479,-2.4596,-2.4663,-2.4915,-2.508,-2.5192,-2.5313,-2.5357,-2.5398,-2.5461,-2.5738,-2.5834,-2.6009,-2.6883,-2.7329,-2.7636,-2.8339,-2.916,-2.998,-3.0637,-3.0739,-3.0639,-3.062,-3.0591,-3.0405,-2.9601,-2.9366,-2.9121,-2.8286,-2.8564,-2.8996,-2.9007,-2.9594,-3.0109,-3.0109,-3.0026,-2.9937,-2.9905,-2.9808,-2.9719,-2.9683,-2.955,-2.9433,-2.9412,-2.9433,-2.9373,-2.9169,-2.9312,-2.9601,-3.0131,-3.0881,-3.1581,-3.2246,-3.2987,-3.3422,-3.3452,-3.3165,-3.2979,-3.2916,-3.2674,-3.2507,-3.2457,-3.2457,-3.2422,0.0,0.0,0.0,-3.3032,0.0,0.0,0.0,-3.2197,-3.2197,0.0,0.0,0.0,0.0,0.0,0.0,0.0,0.0,0.0,0.0,0.0,0.0,0.0,0.0,0.0,0.0,0.0,-2.7378,-2.692,-2.5517,-2.4327,-2.3553,-2.1924,-2.0637,-1.9922,-2.0101,-2.0386,-2.081,-2.1682,-2.26,-2.3565,-2.3565,-2.4236,-2.5566,-2.5464,-2.5664,-2.61,-2.6001,-2.5559,-2.49,-2.5078,-2.5039,-2.4915,-2.5056,-2.5194,-2.5348,-2.539,-2.5439,-2.5504,-2.5571,-2.5628,-2.572,-2.6152,-2.6617,-2.707,-2.7519,-2.8248,-2.8989,-2.9398,-2.9747,-3.0003,-2.9989,-3.0294,-3.0347,-2.9338,-2.9041,-2.8708,-2.7719,-2.774,-2.8053,-2.8468,-2.8931,-2.9393,-2.9829,-2.9751,-2.9681,-2.979,-2.9664,-2.9588,-2.9701,-2.9531,-2.9353,-2.9251,-2.9251,-2.9188,-2.9012,-2.9097,-2.9586,-3.0643,-3.0998,-3.1656,-3.2741,-3.3194,-3.3364,-3.3256,-3.3011,-3.2852,-3.2737,-3.2507,-3.2406,-3.2406,-3.2406,-3.2406,0.0,0.0,0.0,0.0,0.0,-3.2537,0.0,0.0,0.0,0.0,0.0,0.0,0.0,0.0,0.0,0.0,0.0,0.0,0.0,0.0,0.0,0.0,0.0,0.0,0.0,0.0,-2.7904,-2.7378,-2.59,-2.4748,-2.4094,-2.2315,-2.0775,-1.9639,-1.9598,-1.9488,-1.9327,-2.0039,-2.1084,-2.2388,-2.2478,-2.337,-2.4909,-2.5379,-2.565,-2.5778,-2.6503,-2.616,-2.51,-2.5522,-2.5477,-2.511,-2.5094,-2.5215,-2.539,-2.5403,-2.5492,-2.5589,-2.5613,-2.5642,-2.5691,-2.5702,-2.6172,-2.6777,-2.6928,-2.7424,-2.797,-2.8152,-2.878,-2.9382,-2.9349,-2.9951,-3.023,-2.9052,-2.8683,-2.8278,-2.7134,-2.6924,-2.7167,-2.7824,-2.8182,-2.867,-2.9495,-2.9511,-2.9433,-2.9569,-2.9472,-2.9453,-2.9569,-2.9453,-2.9251,-2.9082,-2.906,-2.9012,-2.8839,-2.8881,-2.9558,-3.1151,-3.1084,-3.1709,-3.3339,-3.3393,-3.3304,-3.3117,-3.2979,-3.2802,-3.2606,-3.2473,-3.2406,-3.2406,-3.2406,-3.2406,0.0,0.0,0.0,0.0,-3.3273,0.0,0.0,0.0,0.0,0.0,0.0,-3.2852,-3.2852,0.0,0.0,0.0,0.0,0.0,0.0,0.0,0.0,0.0,0.0,0.0,0.0,0.0,0.0,-2.7495,-2.6232,-2.5438,-2.5399,-2.3504,-2.176,-2.033,-2.0274,-1.9639,-1.8275,-1.9314,-2.0147,-2.0854,-2.1282,-2.2163,-2.3458,-2.4409,-2.5157,-2.5799,-2.6068,-2.6271,-2.6331,-2.564,-2.5555,-2.5815,-2.5298,-2.5182,-2.5322,-2.5446,-2.5498,-2.5526,-2.5645,-2.5685,-2.5709,-2.5699,-2.5761,-2.5973,-2.6693,-2.6977,-2.7207,-2.797,-2.8783,-2.936,-2.919,-2.9737,-2.9867,-2.8036,-2.759,-2.7096,-2.5386,-2.5587,-2.6169,-2.6263,-2.743,-2.8614,-2.9303,-2.9412,-2.9353,-2.9191,-2.9293,-2.9332,-2.9191,-2.9148,-2.906,-2.8934,-2.891,-2.8839,-2.8662,-2.881,-2.9509,-3.0948,-3.1012,-3.1709,-3.3339,-3.3393,-3.3304,-3.3117,-3.2979,-3.2802,-3.2606,-3.2473,-3.2406,-3.2406,-3.2406,-3.2406,0.0,0.0,0.0,0.0,0.0,0.0,-3.3361,0.0,-3.3111,0.0,0.0,0.0,0.0,0.0,0.0,0.0,0.0,0.0,0.0,0.0,0.0,0.0,0.0,0.0,0.0,0.0,0.0,0.0,0.0,-2.5969,-2.5845,-2.3951,-2.2111,-2.0429,-1.981,-1.8895,-1.7708,-1.8163,-1.8792,-1.968,-2.012,-2.1094,-2.2539,-2.3619,-2.4729,-2.5822,-2.6499,-2.6825,-2.6819,-2.6659,-2.6655,-2.67,-2.599,-2.5609,-2.5418,-2.548,-2.5547,-2.5616,-2.5681,-2.5707,-2.5693,-2.5698,-2.5704,-2.5751,-2.6057,-2.6113,-2.6157,-2.6533,-2.7168,-2.7856,-2.8245,-2.8898,-2.9257,-2.8369,-2.7774,-2.7047,-2.5731,-2.5327,-2.5367,-2.5753,-2.6764,-2.7717,-2.8313,-2.887,-2.9209,-2.9107,-2.9119,-2.9119,-2.9104,-2.9034,-2.8962,-2.8905,-2.881,-2.8687,-2.8612,-2.8687,-2.9377,-3.0894,-3.1769,-3.2552,-3.3375,-3.3196,-3.3073,-3.2979,-3.2802,-3.2657,-3.2473,-3.2422,-3.2319,-3.2108,-3.2319,-3.2406,-3.684,0.0,0.0,0.0,0.0,0.0,0.0,0.0,0.0,0.0,0.0,0.0,0.0,0.0,-3.2844,0.0,0.0,0.0,0.0,0.0,0.0,0.0,0.0,0.0,0.0,0.0,0.0,0.0,0.0,0.0,-2.625,-2.4547,-2.2798,-2.1064,-1.974,-1.8585,-1.7619,-1.7301,-1.7638,-1.8585,-1.9008,-1.9954,-2.137,-2.2475,-2.3784,-2.5273,-2.6219,-2.6839,-2.7228,-2.7381,-2.75,-2.7506,-2.6854,-2.6266,-2.5745,-2.5593,-2.5582,-2.5687,-2.5687,-2.5693,-2.5702,-2.5679,-2.5662,-2.5669,-2.5593,-2.5538,-2.5484,-2.5459,-2.6005,-2.6774,-2.7512,-2.8262,-2.8803,-2.8657,-2.7982,-2.7066,-2.6115,-2.5241,-2.4781,-2.5224,-2.6135,-2.6948,-2.7303,-2.8305,-2.9034,-2.8971,-2.8915,-2.891,-2.8966,-2.8915,-2.8881,-2.8815,-2.8687,-2.8587,-2.8587,-2.8587,-2.93,-3.0894,-3.2342,-3.3165,-3.3304,-3.3042,-3.2852,-3.2705,-3.2639,-3.2472,-3.2267,-3.2267,-3.2144,-3.1894,-3.2232,-3.2354,0.0,0.0,0.0,-3.6714,0.0,0.0,0.0,0.0,-3.3815,0.0,0.0,0.0,0.0,-3.3024,-3.2666,-3.1867,-3.2416,0.0,0.0,0.0,0.0,0.0,0.0,0.0,0.0,0.0,0.0,0.0,0.0,0.0,-2.6888,-2.5579,-2.4139,-2.2681,-2.0713,-1.9148,-1.8096,-1.7058,-1.6835,-1.7458,-1.7917,-1.8688,-1.9707,-2.064,-2.2064,-2.3812,-2.4577,-2.5976,-2.7748,-2.7452,-2.769,-2.822,-2.781,-2.7171,-2.6401,-2.5814,-2.5603,-2.5609,-2.5687,-2.5702,-2.5696,-2.5611,-2.5595,-2.5588,-2.5519,-2.5492,-2.5468,-2.5341,-2.5938,-2.6732,-2.7281,-2.8063,-2.866,-2.8459,-2.7786,-2.6926,-2.5927,-2.5089,-2.4461,-2.4376,-2.5614,-2.6661,-2.6563,-2.7862,-2.8839,-2.8637,-2.8785,-2.8834,-2.8637,-2.8785,-2.8834,-2.8637,-2.8612,-2.8587,-2.8587,-2.8587,-2.93,-3.0894,-3.2342,-3.3117,-3.3117,-3.2961,-3.2672,-3.2214,-3.2454,-3.2386,-3.193,-3.193,-3.1894,-3.1894,-3.2232,-3.2232,0.0,0.0,-3.7144,-3.7092,0.0,0.0,0.0,0.0,0.0,0.0,0.0,0.0,0.0,-3.3415,-3.3266,-3.2995,-3.3194,-3.3266,0.0,0.0,0.0,0.0,0.0,0.0,0.0,0.0,0.0,0.0,0.0,0.0,0.0,-2.6198,-2.481,-2.3014,-2.1852,-2.0199,-1.814,-1.7726,-1.7298,-1.681,-1.7545,-1.8313,-1.9094,-2.0251,-2.1454,-2.2692,-2.3742,-2.4879,-2.5991,-2.6357,-2.6984,-2.7646,-2.7029,-2.7094,-2.7472,-2.6721,-2.6121,-2.5663,-2.5644,-2.5633,-2.5623,-2.5609,-2.5574,-2.5514,-2.5397,-2.5379,-2.5341,-2.5212,-2.5325,-2.5774,-2.7058,-2.7538,-2.7966,-2.9006,-2.8218,-2.7059,-2.6544,-2.5337,-2.4301,-2.4077,-2.515,-2.6149,-2.6272,-2.7459,-2.843,-2.8587,-2.8662,-2.8687,-2.8612,-2.8662,-2.8637,-2.8484,-2.8536,-2.8562,-2.8476,-2.9395,-3.0196,-3.065,-3.1817,-3.2654,-3.293,-3.2318,-3.2038,-3.2214,-3.1966,-3.1785,-3.1654,-3.1654,-3.1542,-3.1312,-3.1671,-3.1856,-3.9332,-3.8612,0.0,0.0,-3.7144,0.0,-3.6993,0.0,0.0,0.0,0.0,0.0,0.0,0.0,-3.376,-3.3707,-3.3662,-3.3652,0.0,-3.3698,0.0,0.0,0.0,0.0,0.0,0.0,0.0,0.0,-2.8299,0.0,0.0,0.0,-2.5513,-2.385,-2.2649,-2.0969,-1.8749,-1.8505,-1.7735,-1.6522,-1.7227,-1.7868,-1.8481,-1.9301,-2.0436,-2.1778,-2.2862,-2.3941,-2.5067,-2.5859,-2.6655,-2.7295,-2.6952,-2.7128,-2.7485,-2.6745,-2.6132,-2.566,-2.5615,-2.5578,-2.5517,-2.5498,-2.543,-2.5341,-2.5253,-2.5233,-2.5269,-2.5411,-2.5151,-2.5267,-2.7191,-2.7358,-2.7438,-2.91,-2.8222,-2.6954,-2.6686,-2.5316,-2.406,-2.3732,-2.4766,-2.5765,-2.5875,-2.6988,-2.8047,-2.8518,-2.8492,-2.8422,-2.8422,-2.8422,-2.837,-2.8255,-2.8317,-2.8317,-2.8201,-2.9612,-3.0446,-3.0373,-3.1524,-3.2283,-3.2488,-3.1858,-3.1579,-3.1785,-3.1579,-3.1445,-3.1312,-3.1312,-3.1213,-3.1015,-3.1078,-3.1312]}]]